GFSSW_sfc_dewp_000.txt.gz
Dewpoint
53 53 53 53 53 53 53 53 54 54 54 54 54 55 55 56 55 48 27 38 41 57 54 33 28 12 12 5 6 7 6 1 1 4 3 4 3 14 16 14 18 20 29 48 53
53 53 54 54 53 53 53 54 54 54 53 54 54 55 55 56 48 24 47 55 55 56 33 20 14 11 9 7 9 10 9 7 6 5 7 5 4 9 10 13 18 25 31 43 50
53 53 53 53 53 53 53 54 54 54 53 54 54 56 56 55 38 25 54 56 55 50 33 27 21 13 13 14 14 14 9 8 11 15 9 9 9 12 11 12 21 21 30 36 41
54 54 54 54 54 54 54 55 54 54 54 54 55 55 56 49 25 28 54 56 57 41 31 25 19 18 17 15 17 15 15 16 18 18 17 18 19 17 17 17 22 24 28 33 37
54 54 54 55 55 55 55 55 55 54 54 54 55 55 53 36 29 32 52 50 36 28 24 21 21 23 17 17 19 18 19 21 22 23 21 21 19 19 18 18 23 24 31 33 36
54 54 54 54 55 55 55 55 55 54 54 54 55 55 48 27 31 32 32 31 29 28 25 26 25 25 24 24 24 23 22 22 22 21 19 21 18 16 15 19 22 24 29 32 34
54 54 54 54 54 55 55 55 55 55 54 54 55 51 37 28 30 32 32 31 30 28 25 25 28 27 29 28 26 23 23 24 23 17 13 19 13 12 19 22 22 22 27 28 29
54 54 54 54 54 54 55 54 54 55 55 55 55 51 31 32 33 30 31 30 30 29 27 26 29 27 30 27 27 22 21 11 13 16 17 15 10 11 16 16 19 21 24 27 28
54 54 54 54 54 54 54 54 54 55 55 55 53 49 29 40 30 30 31 30 30 31 31 27 27 25 28 28 22 17 12 14 16 14 13 14 13 13 15 13 16 21 22 23 27
54 54 54 54 54 53 54 54 54 54 53 48 40 30 29 28 29 30 31 32 31 30 30 27 27 25 20 20 17 18 18 19 19 18 18 19 19 18 18 17 18 20 22 23 25
54 54 53 53 54 54 53 48 37 39 33 30 27 27 25 27 30 24 25 29 29 28 23 21 26 21 19 22 20 18 18 18 19 18 19 20 20 19 16 16 20 21 25 26 28
54 54 53 53 54 54 54 44 45 48 30 27 26 25 25 27 25 24 25 25 25 21 20 19 25 22 20 20 19 16 17 20 21 21 23 22 20 18 17 19 20 21 26 27 29
53 53 53 52 53 56 49 47 50 52 39 25 27 25 25 27 23 23 25 25 22 19 18 17 25 20 20 19 21 18 23 23 22 23 22 21 16 17 18 20 20 24 26 26 28
53 53 52 52 48 49 47 50 55 57 38 24 25 27 25 24 26 27 23 25 26 21 18 21 22 20 20 19 21 20 24 25 26 25 21 24 15 14 17 19 20 24 30 31 31
53 53 53 52 55 44 49 52 55 58 37 28 24 27 25 23 23 25 26 27 24 21 21 26 22 17 19 22 23 24 27 28 27 27 25 21 16 16 17 15 18 25 28 32 34
53 53 54 50 58 51 52 57 57 50 37 26 24 25 25 25 24 24 26 27 25 22 19 17 20 21 22 24 25 28 28 27 27 26 29 24 22 19 16 18 18 21 26 31 33
52 53 52 53 52 54 59 56 43 40 29 24 25 25 24 25 25 24 25 29 28 29 28 24 22 23 26 26 27 28 29 32 35 35 32 23 21 23 24 21 21 24 28 33 36
52 52 55 54 55 59 57 47 36 29 27 27 25 24 25 26 26 24 26 26 29 29 27 26 27 24 28 27 28 28 28 35 27 27 27 25 20 18 20 21 22 25 31 32 36
51 58 56 59 59 60 48 46 36 29 27 26 25 24 27 26 24 26 28 27 29 30 29 31 26 28 28 28 29 28 31 30 31 36 31 28 25 25 24 22 25 26 28 34 35
54 51 51 58 59 58 54 38 30 28 28 27 26 25 25 26 25 27 28 29 29 32 33 32 30 31 29 32 32 30 31 31 36 30 25 22 25 24 26 29 30 31 32 35 36
58 48 54 55 58 48 47 34 28 27 30 31 28 26 27 27 29 27 28 30 31 31 33 34 34 33 33 30 29 29 31 33 30 32 30 28 25 31 31 32 32 31 33 34 37
58 49 54 56 46 44 37 31 33 30 31 32 32 32 32 31 32 30 29 33 34 33 32 37 35 34 32 32 29 28 30 30 34 31 32 33 30 32 33 34 33 33 33 35 35
44 44 54 55 48 48 35 32 33 30 33 32 33 34 34 33 35 33 33 36 35 33 36 36 37 32 28 30 31 31 30 30 34 37 32 32 30 32 33 33 32 32 34 34 35
45 49 50 47 42 38 35 34 34 37 34 34 34 35 34 34 34 35 33 36 37 37 42 39 34 35 32 32 32 32 30 31 32 32 30 31 30 30 30 30 31 33 34 34 34
43 43 43 47 46 40 37 34 34 35 36 35 34 34 33 36 35 32 33 34 36 41 37 37 36 34 33 32 32 32 31 30 29 29 28 28 27 27 29 29 32 34 35 35 34
48 45 41 38 37 37 38 34 33 33 32 33 33 34 35 36 35 35 35 36 36 36 38 41 37 37 35 34 33 31 32 32 30 28 27 29 29 30 29 30 33 35 35 36 38
46 45 46 44 42 44 41 33 32 34 38 34 36 37 39 38 40 39 40 39 38 38 39 38 39 35 32 33 33 32 31 31 30 29 29 28 30 29 29 33 35 37 37 39 39

GFSSW_sfc_dewp_006.txt.gz
Dewpoint
53 53 53 53 53 53 53 54 55 55 54 54 55 56 56 56 55 46 27 35 38 57 55 38 33 30 25 18 11 10 7 6 9 7 13 8 12 15 16 14 21 36 44 47 50
54 53 53 53 53 54 53 54 55 54 54 55 55 56 56 56 49 29 42 52 57 59 30 30 29 29 19 12 15 9 7 14 13 10 10 12 13 11 9 20 23 44 46 50 56
53 53 53 53 53 53 55 55 55 54 55 55 55 56 56 54 37 26 49 55 58 56 38 36 33 29 16 15 15 29 16 17 18 18 16 19 19 18 13 16 23 43 44 51 54
54 53 53 53 53 54 55 55 55 55 55 54 54 56 56 50 21 29 53 57 59 51 37 30 27 25 17 16 18 16 19 19 19 19 20 20 20 20 32 16 23 37 48 50 51
55 55 55 55 55 56 55 55 55 55 54 54 55 55 48 35 30 31 54 46 32 32 29 27 28 27 26 24 23 20 20 21 21 21 20 23 19 19 19 18 23 32 36 40 44
54 54 55 55 55 56 56 55 55 55 54 54 55 54 42 30 31 31 32 32 30 29 27 26 27 28 29 25 25 28 24 23 22 22 23 21 21 21 20 18 22 31 32 33 34
54 54 54 54 55 55 55 55 55 54 54 54 54 50 48 29 30 32 32 31 30 32 28 26 29 27 28 29 29 27 23 23 23 22 20 16 13 14 16 18 22 25 30 32 32
54 54 54 53 53 54 54 54 54 54 54 54 54 50 33 33 33 31 31 33 33 33 32 27 28 29 32 30 30 26 23 19 21 23 18 14 12 14 16 21 22 23 26 29 31
54 54 53 53 53 53 53 53 54 54 55 54 50 47 34 38 31 30 30 31 32 34 34 30 33 30 27 24 20 20 16 18 20 18 17 16 13 18 21 20 21 21 22 26 27
54 54 53 53 53 52 52 53 54 54 53 51 47 38 33 30 30 30 26 27 29 33 32 34 30 25 23 20 16 18 16 17 20 20 24 20 20 22 19 19 18 19 21 23 27
54 53 53 53 53 52 49 48 44 35 40 27 29 30 27 27 31 25 26 28 30 33 28 25 23 20 19 22 22 21 21 22 22 23 26 24 24 24 20 21 22 23 24 26 29
54 53 53 53 52 52 53 46 47 46 36 30 29 28 28 29 28 26 27 26 29 23 22 24 23 24 22 24 23 21 25 23 25 26 28 26 25 20 18 20 22 25 25 26 28
53 53 53 52 51 52 48 49 54 53 41 28 30 29 27 29 28 25 26 27 28 24 21 23 24 24 22 24 22 22 25 25 25 28 28 26 23 18 20 24 25 25 25 26 26
53 53 53 52 45 51 48 50 53 54 35 27 29 29 28 28 30 27 27 29 26 24 22 25 23 20 25 24 24 22 25 27 27 27 24 26 23 21 19 21 24 25 25 26 27
52 53 52 53 52 48 49 53 56 50 25 31 27 27 26 25 25 26 27 29 25 23 23 22 20 21 23 23 26 24 28 30 30 28 26 25 22 20 20 19 21 26 28 29 30
52 52 52 54 51 50 54 56 52 39 28 30 28 29 29 28 26 29 33 34 34 32 30 22 23 23 25 27 30 30 31 31 32 28 24 26 22 21 22 20 26 29 29 30 30
52 52 52 56 49 54 57 50 39 28 34 27 29 28 30 27 28 30 32 31 30 25 29 31 26 26 30 28 30 30 30 26 23 23 23 27 24 23 24 25 26 27 29 31 30
51 51 55 57 57 56 52 43 29 34 29 29 29 28 29 27 27 31 30 29 32 32 31 31 27 31 29 30 29 29 31 26 21 21 24 28 23 23 25 27 27 27 28 31 32
51 55 53 54 57 57 46 34 29 32 30 29 29 27 29 29 26 30 31 31 31 33 30 31 30 34 32 31 31 30 29 31 27 23 23 27 28 26 27 32 31 31 31 34 34
50 53 48 54 55 52 40 32 30 31 32 34 30 30 29 30 30 30 31 34 33 35 35 35 31 35 35 35 33 31 32 28 29 19 25 26 26 25 28 32 33 33 32 34 35
56 44 46 54 54 45 33 29 30 30 33 33 33 33 33 33 34 32 34 35 35 34 37 35 34 31 33 33 32 29 31 31 32 30 26 26 28 31 32 33 34 34 35 33 34
52 37 44 51 40 42 32 32 34 32 36 36 36 35 34 34 34 34 35 35 36 37 35 36 32 28 30 33 34 33 33 33 27 29 29 28 28 32 34 33 34 34 34 35 34
46 45 50 49 32 33 35 35 37 36 35 36 36 36 36 35 31 35 36 38 35 37 34 34 30 26 25 27 34 33 32 33 33 29 27 22 26 30 31 32 34 34 35 36 38
43 38 45 46 44 36 34 36 35 38 37 36 36 36 35 35 36 32 35 39 39 38 40 38 33 29 25 26 33 32 32 32 31 23 29 29 29 29 30 33 34 36 37 37 39
45 38 42 35 38 36 38 38 36 36 38 36 36 37 35 31 32 35 38 38 39 41 38 36 30 32 33 33 34 34 33 34 33 31 28 29 29 30 34 35 36 37 38 38 39
43 43 43 41 41 36 37 35 36 34 36 36 36 39 38 35 35 34 38 37 36 38 37 38 30 32 32 35 35 34 34 34 33 32 30 30 28 37 38 38 38 38 39 39 39
49 47 43 38 36 34 35 36 37 38 39 37 36 36 33 39 40 40 40 39 39 38 34 34 30 27 27 33 32 30 31 31 30 30 29 28 31 38 39 39 39 39 39 40 40

GFSSW_sfc_dewp_009.txt.gz
Dewpoint
53 53 53 53 53 53 54 54 54 55 54 55 55 55 56 57 55 50 24 34 37 58 55 33 31 30 25 17 10 10 7 9 8 8 11 10 14 14 15 32 28 40 43 45 56
53 53 54 54 53 54 54 54 55 54 54 55 55 55 56 56 50 28 41 52 56 57 31 30 29 30 14 13 15 12 10 10 12 9 12 13 16 12 12 30 41 46 46 51 56
54 54 53 53 53 53 54 55 55 54 55 55 55 55 56 55 28 24 49 55 59 56 38 36 34 30 16 16 15 15 15 15 18 15 14 19 19 18 13 21 38 42 45 54 56
55 53 53 53 53 54 55 55 55 55 55 55 55 56 56 48 10 23 55 58 58 52 36 29 28 24 21 22 21 15 19 19 18 19 19 19 32 21 31 16 24 43 44 53 54
55 55 55 55 54 55 55 55 55 55 55 54 55 56 46 30 30 31 54 46 31 31 26 27 27 27 25 24 23 19 19 21 21 21 20 22 19 18 18 18 23 42 47 52 53
54 54 55 55 55 55 55 55 55 55 55 54 55 55 40 26 30 31 32 32 30 31 28 25 27 29 28 28 24 27 25 23 23 21 23 22 21 21 20 19 22 37 45 49 49
54 54 54 54 54 54 55 55 55 54 54 54 55 50 42 29 30 32 31 32 31 32 30 27 30 26 30 28 29 26 23 24 24 23 22 20 13 15 18 19 21 31 37 39 39
54 54 53 53 53 53 54 54 54 54 54 54 54 50 32 34 33 30 31 31 32 33 34 31 30 29 29 30 27 22 20 17 19 23 19 14 13 14 18 18 18 22 29 31 32
54 53 53 53 53 53 53 53 54 54 54 54 48 43 32 39 30 30 27 26 27 31 33 32 29 28 26 19 19 20 15 16 18 23 23 16 14 14 21 19 19 21 24 28 28
54 53 53 53 53 52 53 54 54 54 51 48 46 33 30 28 29 27 26 28 27 30 31 30 28 23 22 20 16 18 16 19 19 21 27 24 19 23 25 19 19 21 21 23 25
54 53 53 53 52 52 51 49 42 33 39 28 28 29 26 26 30 26 27 28 29 26 24 27 23 19 19 21 21 21 22 23 23 23 27 26 26 26 25 21 21 21 24 28 30
53 53 53 52 52 52 50 46 45 43 30 34 29 28 28 28 25 26 26 25 26 22 23 25 22 23 23 24 22 23 23 22 25 26 28 27 25 19 19 20 23 25 27 28 30
53 53 53 52 51 50 48 50 55 51 32 28 29 28 28 27 27 25 25 28 26 22 22 23 23 22 24 24 22 22 23 23 24 27 28 26 23 19 21 24 25 25 26 27 30
53 53 52 52 49 50 47 50 53 48 29 27 27 28 27 28 27 27 27 29 25 23 23 25 21 23 24 23 25 22 24 27 27 27 23 26 20 21 19 21 24 25 25 26 27
52 52 52 53 49 46 50 54 55 46 21 29 26 28 27 25 25 28 33 28 27 28 23 23 19 22 22 24 27 26 30 29 30 28 27 24 21 23 22 19 23 27 28 28 29
52 52 52 54 49 49 54 54 50 36 25 28 27 27 27 28 28 32 34 34 34 31 30 29 24 24 25 27 30 30 31 30 30 28 23 25 23 20 21 23 27 28 29 31 30
52 52 53 55 44 54 55 47 36 26 32 26 27 27 29 26 29 31 32 31 30 21 28 32 30 31 30 28 31 30 30 23 20 22 22 27 22 22 24 26 28 29 30 30 30
51 52 56 56 55 54 48 40 26 32 30 29 27 27 26 25 29 32 30 30 32 32 31 30 25 32 32 29 28 29 30 25 18 19 23 27 22 23 26 27 27 29 28 31 32
52 55 50 51 55 54 41 31 27 30 30 29 29 27 28 31 28 30 31 31 33 33 29 31 29 34 34 34 31 30 29 31 26 22 22 27 28 28 29 33 31 29 32 34 36
53 48 45 53 55 45 38 31 29 31 32 34 28 31 28 31 30 30 31 34 32 36 35 34 31 34 34 34 34 30 32 28 29 18 22 27 28 26 29 32 32 34 33 34 35
55 37 43 54 50 41 32 28 29 30 33 34 33 32 33 32 33 32 33 34 34 34 35 33 32 29 31 31 31 31 31 31 31 29 26 22 27 32 31 33 32 33 34 34 35
46 35 43 48 40 39 31 31 36 35 37 36 36 35 34 34 34 34 34 34 36 36 33 36 31 28 29 32 34 32 32 31 29 27 27 24 27 31 32 33 34 35 36 36 35
45 43 48 43 33 31 34 36 37 34 35 35 34 35 37 35 31 34 35 37 34 36 33 34 29 24 22 25 30 32 33 33 31 28 27 24 25 31 32 33 35 36 36 37 37
40 36 43 43 41 34 33 34 34 37 36 36 35 37 35 34 35 32 36 39 40 37 41 37 32 27 25 23 30 30 32 33 31 26 27 29 28 30 32 34 36 37 37 38 38
42 36 42 34 37 37 37 37 35 34 36 37 37 37 34 30 32 35 37 37 38 40 37 35 30 31 32 32 33 33 33 34 33 32 30 30 30 31 32 36 37 37 38 38 39
43 41 41 41 41 34 35 34 35 35 36 35 36 38 37 34 34 34 37 36 36 37 36 37 29 31 30 34 34 33 34 34 34 34 33 32 29 31 38 39 39 39 39 39 39
47 45 41 36 33 33 34 35 36 37 37 37 37 35 32 38 40 39 39 38 37 36 33 33 29 28 24 32 31 24 29 32 32 30 29 27 29 36 37 38 39 39 39 39 38

GFSSW_sfc_dewp_015.txt.gz
Dewpoint
55 53 52 52 53 52 52 54 55 54 54 55 55 56 56 56 55 51 28 34 37 58 53 36 31 29 19 15 12 13 10 7 5 7 11 13 12 15 23 40 34 40 50 49 59
54 53 53 53 53 53 53 54 55 54 55 55 56 56 56 56 49 29 43 54 59 58 35 30 28 22 19 17 18 14 13 11 11 9 13 16 12 11 21 33 39 44 48 56 60
54 53 53 53 53 53 53 54 55 55 55 56 56 56 56 55 33 27 52 59 59 54 36 33 29 25 23 22 20 19 15 16 16 12 16 19 18 16 24 26 33 31 48 56 59
54 54 54 53 53 54 54 54 55 55 55 56 56 56 56 50 26 27 55 57 59 45 33 31 30 28 26 21 21 19 18 18 18 20 19 18 19 18 19 17 25 38 52 56 57
54 55 55 53 54 54 55 55 55 55 56 55 56 56 49 33 31 31 53 45 33 33 27 29 29 29 25 24 24 21 19 20 20 18 19 22 19 18 19 21 20 40 53 55 56
54 54 54 55 55 55 56 55 55 55 55 55 56 56 42 30 31 32 31 32 31 32 29 29 28 29 30 26 27 26 25 24 23 22 23 22 22 21 20 20 23 40 49 54 56
54 54 54 55 55 55 55 55 54 54 55 55 55 52 35 35 34 33 28 34 30 34 31 28 29 29 30 29 30 24 19 21 23 23 20 21 18 17 18 17 19 29 42 52 54
54 54 53 54 54 54 54 54 54 54 54 55 55 50 35 35 37 29 27 28 29 32 34 34 33 32 29 29 23 20 20 19 21 25 23 20 20 21 19 22 22 25 27 44 51
53 53 53 53 53 53 53 53 53 54 54 54 50 43 34 37 29 30 28 27 29 33 34 30 31 29 26 20 19 21 14 18 20 26 27 26 24 25 27 26 27 25 23 35 44
53 53 53 52 52 52 52 53 54 53 52 49 37 34 29 26 27 28 28 31 30 35 32 31 27 24 24 20 14 19 17 20 21 23 28 27 26 27 22 23 24 23 23 31 36
54 53 52 52 52 53 51 49 35 35 36 29 32 29 25 27 29 28 28 31 29 29 27 29 24 21 21 22 21 20 20 22 23 25 28 27 27 23 23 25 24 25 27 30 31
54 53 53 53 52 53 51 46 42 43 29 32 30 29 29 29 27 29 31 28 29 23 25 26 23 22 24 24 22 21 21 20 24 26 29 27 24 23 24 26 28 29 30 31 32
53 53 53 52 52 52 52 52 55 49 30 29 30 30 29 29 29 30 30 32 25 25 25 25 21 26 25 26 27 26 22 23 23 27 28 26 22 24 22 25 27 28 30 30 32
52 53 53 51 48 51 49 52 55 48 29 26 27 27 28 30 28 32 34 31 30 23 25 23 23 27 28 26 27 25 25 29 27 28 23 27 18 23 24 23 26 27 29 30 31
52 52 52 49 50 48 50 54 57 43 20 27 27 28 29 27 29 31 35 34 31 29 27 22 26 28 28 26 28 29 31 31 29 29 27 26 21 24 25 23 24 29 30 31 32
52 52 51 49 51 52 55 53 49 33 20 28 28 28 28 31 32 33 34 36 33 32 33 30 30 28 28 29 31 32 31 28 29 29 25 26 23 25 25 25 27 29 31 32 33
53 54 54 51 45 54 53 47 33 27 32 26 26 28 28 29 32 32 32 33 31 25 31 31 30 33 32 30 32 32 27 24 28 28 26 27 23 26 29 30 30 31 32 37 39
53 53 53 54 55 54 48 40 27 31 30 30 27 30 27 29 31 33 31 31 34 32 32 29 24 31 34 31 29 31 30 29 20 24 25 27 23 28 31 32 34 35 35 37 39
52 49 50 53 55 50 42 33 29 30 30 28 30 28 29 32 31 32 32 31 33 35 31 31 27 33 35 34 31 30 31 31 28 25 29 27 28 29 32 32 34 34 34 36 38
49 46 48 52 53 45 40 32 31 33 32 32 29 32 29 32 31 31 31 33 31 36 35 34 29 31 32 33 34 32 32 29 32 26 22 24 27 25 30 31 33 34 36 37 37
45 42 47 53 47 39 34 30 32 36 36 33 33 33 32 33 32 31 31 33 34 35 36 32 31 28 30 31 31 32 31 32 31 31 28 26 25 32 32 32 33 34 37 38 39
42 40 49 50 37 36 32 31 36 36 37 36 37 36 34 35 34 33 33 34 36 37 34 35 32 27 26 31 34 33 31 29 27 24 30 30 25 30 33 33 34 35 37 39 40
43 43 47 46 35 34 37 36 36 35 36 35 36 38 37 35 33 35 36 40 38 37 36 35 31 24 18 25 29 32 33 32 31 32 29 29 24 31 33 32 34 36 38 39 40
40 40 43 43 40 36 35 35 35 37 37 38 36 37 36 35 37 36 36 40 41 39 41 39 32 27 22 20 27 29 31 32 33 32 28 29 27 29 31 32 35 36 39 39 39
42 40 41 36 39 38 37 35 34 33 37 38 37 36 34 32 35 36 37 37 38 40 39 37 33 32 31 31 32 31 31 32 32 32 31 29 29 31 33 35 35 37 38 38 38
42 41 41 39 39 36 35 37 36 36 36 37 36 38 37 34 32 34 37 37 36 37 37 36 33 34 32 32 31 31 31 32 33 33 33 33 32 34 35 38 37 36 36 37 39
46 44 42 36 34 35 35 36 36 37 38 38 38 36 33 37 39 40 40 39 37 37 36 36 34 31 27 29 29 27 26 31 30 32 32 29 29 34 35 36 36 36 38 39 37

GFSSW_sfc_dewp_018.txt.gz
Dewpoint
55 54 54 53 53 53 53 54 54 55 55 55 56 56 56 57 56 46 28 38 40 57 52 33 30 29 18 14 14 13 6 5 6 7 10 12 10 16 30 34 35 38 40 45 55
55 54 54 53 53 53 53 54 55 55 55 55 56 56 57 56 44 28 46 58 60 59 34 27 22 19 16 17 18 11 7 8 9 10 9 11 10 14 19 20 26 35 45 51 57
55 54 54 54 54 53 54 54 55 55 55 56 56 57 56 54 31 28 57 59 59 55 32 28 23 19 17 19 19 15 9 12 11 13 11 11 12 13 12 15 18 21 39 52 56
54 54 54 54 54 54 55 55 55 55 55 56 56 57 56 46 22 29 56 57 59 39 31 28 23 18 14 12 15 11 14 11 11 15 14 12 14 14 15 14 23 27 38 49 52
54 55 55 54 54 54 55 55 55 55 55 55 56 56 51 31 28 30 53 46 32 29 27 26 21 20 14 16 18 19 20 20 18 17 17 20 17 19 17 18 20 33 43 45 46
54 54 55 55 55 54 55 55 55 55 55 55 56 55 40 26 30 30 27 28 29 29 28 27 27 26 25 24 22 26 23 23 23 21 23 22 21 21 18 20 21 29 37 41 43
54 54 54 55 55 55 55 55 55 54 55 55 55 51 31 29 31 29 27 28 28 31 29 30 29 27 29 29 28 24 23 23 23 23 22 20 19 17 19 19 20 25 30 38 42
54 54 54 54 54 54 54 54 54 54 55 54 55 49 29 32 32 27 25 26 30 32 32 32 30 29 29 28 22 18 19 16 23 23 25 24 17 20 26 26 21 25 26 37 42
53 53 53 53 53 53 53 53 53 54 54 54 49 37 25 37 26 28 27 27 30 32 33 29 28 27 25 21 16 15 11 13 19 24 25 23 20 23 24 23 25 26 25 29 37
53 53 53 53 53 53 53 53 54 53 50 46 34 29 26 25 27 27 27 29 28 30 28 28 27 22 19 13 9 13 13 18 17 21 23 20 21 22 23 23 25 28 27 26 35
54 53 52 52 53 53 52 49 37 34 32 27 27 26 25 26 29 28 27 28 26 27 23 27 22 21 20 23 21 19 18 17 18 24 26 26 24 21 24 25 26 26 27 30 37
54 54 53 53 53 53 53 40 42 40 27 29 27 26 27 28 25 29 31 24 25 21 26 21 23 23 24 24 22 22 19 20 23 25 28 26 22 22 25 27 28 28 30 32 32
53 54 53 52 53 55 52 51 55 49 27 27 28 27 26 30 30 30 30 27 23 22 23 21 22 24 25 27 25 25 23 26 25 26 28 26 23 22 24 26 27 28 30 31 32
52 53 53 52 50 51 49 52 57 49 25 23 24 26 27 27 28 32 33 28 26 24 22 23 25 27 27 27 28 23 27 29 28 26 19 28 18 23 22 24 26 28 31 32 32
52 53 52 52 53 43 51 56 58 50 24 26 25 27 30 27 28 30 34 31 27 27 27 23 26 27 27 27 30 29 32 31 30 28 26 25 19 25 24 23 25 30 32 34 34
53 53 52 51 56 54 57 56 54 37 21 25 26 27 28 31 30 30 32 32 32 29 28 28 30 30 30 30 30 32 31 30 31 31 27 27 25 25 25 26 28 32 35 38 38
53 54 54 53 49 58 58 51 32 30 30 23 25 27 29 30 31 30 32 33 29 26 27 27 29 32 33 27 32 30 28 27 30 29 26 27 25 29 29 31 32 33 36 39 40
52 53 54 55 58 58 53 43 27 29 27 27 27 28 27 30 31 32 29 28 33 30 27 26 26 31 34 32 30 31 30 31 21 25 25 27 21 27 31 32 33 34 36 37 38
52 54 55 57 59 56 44 41 33 28 27 26 27 26 28 30 30 31 32 31 33 34 29 28 26 32 33 33 32 30 31 32 30 31 31 25 27 31 32 32 32 33 33 35 37
48 50 52 57 57 52 46 33 30 31 31 28 26 28 27 29 29 30 31 33 32 35 36 33 28 29 31 33 34 32 33 31 32 30 17 15 21 20 31 32 32 32 34 36 38
50 42 52 57 53 43 41 34 31 34 34 31 30 30 31 31 31 31 31 33 33 34 35 31 31 27 30 31 30 32 32 30 29 31 25 22 17 31 29 31 32 33 35 36 38
50 41 53 56 41 40 35 32 36 35 36 36 36 34 33 34 33 33 33 34 37 36 32 36 34 26 23 32 34 32 30 28 28 20 29 30 22 28 30 33 33 34 36 37 38
46 46 51 52 44 45 37 36 36 34 35 34 36 36 37 35 34 35 35 38 37 36 35 36 33 22 21 29 32 32 31 31 31 32 29 31 25 27 31 32 31 35 36 37 36
45 48 46 44 42 37 36 35 35 37 37 37 36 36 36 36 36 36 36 38 40 38 41 40 33 26 18 18 25 25 25 27 29 32 27 28 26 27 26 29 32 35 37 36 36
46 45 45 45 42 39 37 35 34 34 37 37 35 35 35 36 34 36 36 37 37 40 40 38 30 30 28 27 27 29 28 27 27 30 29 29 25 27 29 31 33 37 36 35 35
46 45 44 42 41 38 39 36 34 35 34 34 34 36 34 32 29 33 32 33 31 38 38 37 33 34 30 30 28 29 28 28 30 30 29 29 29 30 31 35 36 35 35 35 38
49 46 46 40 39 42 39 36 35 37 39 37 38 37 38 35 37 41 41 39 37 36 36 37 37 34 33 30 31 32 29 28 29 28 29 28 28 32 32 34 35 36 36 38 38

GFSSW_sfc_dewp_021.txt.gz
Dewpoint
57 56 55 54 53 53 53 54 55 54 55 55 56 56 57 57 56 49 32 38 43 56 51 32 30 27 20 13 13 11 9 8 7 7 8 9 9 11 19 25 27 27 35 40 49
56 56 55 54 54 54 53 54 55 55 55 55 56 56 57 57 47 26 43 59 61 60 36 27 23 17 14 13 12 10 8 7 6 7 6 6 6 9 18 19 21 30 35 46 50
56 55 55 55 55 54 54 55 55 55 55 56 56 57 57 55 41 25 57 59 59 56 35 24 16 16 13 13 12 9 9 8 5 6 4 4 4 7 9 13 19 24 31 44 48
56 55 55 55 55 54 54 55 55 55 55 56 56 57 57 50 22 28 55 59 60 42 27 22 19 15 14 12 12 9 8 5 5 7 8 6 8 9 9 14 17 21 33 41 45
55 55 55 55 54 54 55 55 55 55 55 56 56 57 52 37 25 28 51 50 34 28 23 19 16 13 8 7 7 10 10 7 8 10 11 14 12 12 11 14 16 25 33 39 44
55 55 55 55 55 54 55 55 55 55 55 55 56 56 45 27 28 27 26 26 27 24 19 19 18 17 10 12 15 18 18 19 18 18 18 19 17 18 16 16 15 24 30 35 38
55 55 55 55 55 56 56 55 55 55 55 55 56 49 40 28 27 26 25 25 26 28 22 25 23 19 22 23 22 20 19 21 21 21 20 19 15 16 18 19 18 20 24 31 35
54 54 54 55 55 55 55 55 54 55 55 55 55 48 31 29 29 24 23 24 28 30 30 29 28 27 25 26 20 18 19 18 20 21 23 22 18 17 21 22 20 23 24 28 33
54 54 54 54 54 54 54 54 54 55 55 55 51 49 25 36 25 23 25 23 28 31 30 26 28 25 26 22 18 15 13 11 19 20 20 20 17 20 24 22 22 21 23 25 30
53 53 53 53 53 53 53 53 54 54 51 44 37 31 23 22 23 25 26 29 29 31 29 28 25 22 17 14 12 11 9 12 12 20 16 16 16 21 22 22 23 23 25 25 27
52 53 53 53 54 53 52 46 38 40 33 27 24 24 21 23 28 25 27 27 27 28 25 24 22 20 18 19 16 14 14 13 15 20 21 19 19 20 23 24 26 26 26 26 30
53 54 53 53 53 54 55 42 43 39 27 27 27 28 28 28 22 26 29 26 27 21 22 18 22 22 21 21 19 19 18 18 20 22 23 22 20 21 23 26 27 28 31 34 36
53 53 54 54 53 55 50 48 51 46 26 26 27 25 26 27 27 27 28 23 18 16 14 21 23 23 23 23 22 23 22 25 23 23 24 23 21 21 24 26 27 29 30 31 32
53 53 53 53 51 51 47 51 54 52 25 20 22 24 25 27 27 30 31 27 21 16 18 22 25 24 24 24 26 23 26 27 25 23 18 24 18 22 23 25 27 29 32 32 32
53 54 52 53 50 42 49 55 57 54 25 24 24 28 25 26 27 29 31 27 21 23 26 24 24 26 25 27 27 26 31 28 28 26 22 21 16 23 22 23 26 31 33 35 35
53 54 52 52 57 52 54 57 57 39 23 23 24 26 27 28 28 29 29 30 31 25 24 26 28 28 29 29 28 30 30 28 30 27 25 24 22 23 23 26 28 32 35 37 38
54 54 52 52 47 57 59 52 29 32 25 22 24 26 27 27 28 28 28 30 28 26 27 25 27 30 31 28 30 29 28 29 29 28 27 25 20 29 29 30 31 33 35 37 38
53 54 56 56 56 59 54 38 32 26 22 24 24 26 26 27 29 29 26 27 30 27 24 24 28 28 31 30 29 29 29 32 22 25 23 25 17 26 30 31 33 33 34 35 37
53 57 55 60 61 58 42 38 31 25 25 24 24 24 26 28 28 30 31 29 30 32 28 27 26 30 32 32 31 29 30 30 30 32 30 19 25 30 31 31 32 32 34 35 36
47 46 48 59 61 55 43 35 29 29 26 25 24 27 25 26 27 28 29 32 30 32 33 30 28 26 29 31 33 31 31 32 32 28 18 13 15 19 30 30 32 30 32 34 35
49 39 55 59 57 41 39 33 30 32 31 28 27 27 28 29 28 29 29 32 32 32 32 28 28 27 25 28 26 29 31 29 25 28 24 20 17 27 26 28 30 29 33 35 36
49 39 55 57 37 40 37 32 36 33 35 34 33 31 31 31 31 32 31 34 36 34 30 33 31 28 19 28 32 29 28 28 29 21 28 30 24 27 28 30 31 32 34 35 37
41 44 54 55 44 46 37 35 34 33 32 33 34 34 35 33 33 33 34 38 36 35 36 34 33 26 22 28 32 28 28 28 27 32 26 32 26 26 28 29 29 31 35 35 36
43 46 44 46 42 36 36 34 35 37 36 35 35 35 35 34 35 35 35 38 39 38 41 40 31 26 24 22 22 22 22 22 25 29 29 28 24 24 25 28 29 31 34 35 35
45 44 44 43 41 38 37 34 33 32 35 35 34 33 34 34 34 34 35 37 37 39 38 36 31 29 28 24 22 22 23 23 23 25 28 28 25 26 28 30 32 34 34 34 34
41 43 44 44 40 38 38 34 31 33 33 33 33 34 32 35 28 32 31 30 30 36 36 35 34 35 30 26 23 25 23 23 24 26 26 26 26 28 31 30 33 33 35 36 35
49 50 45 42 42 41 38 35 33 36 38 34 35 34 37 34 38 40 39 36 35 34 35 36 37 32 31 31 32 34 29 24 24 26 28 28 28 29 30 32 35 36 36 37 37

GFSSW_sfc_dewp_027.txt.gz
Dewpoint
58 58 57 57 57 56 55 55 55 55 55 55 56 56 57 57 56 53 40 42 45 56 52 33 32 34 32 27 25 17 12 10 12 13 14 13 11 13 24 25 34 40 47 49 48
57 57 57 57 57 57 55 55 55 55 56 56 56 57 57 57 52 45 49 55 58 58 35 31 30 29 26 21 20 13 13 9 8 10 7 8 8 11 19 24 41 47 48 48 47
57 58 58 57 57 57 56 55 55 56 56 56 56 57 57 56 50 37 55 59 60 59 38 35 33 27 23 19 13 11 7 5 8 8 6 6 7 14 19 21 37 45 46 46 46
55 56 57 57 57 57 56 55 55 56 56 56 56 57 56 53 35 29 57 60 60 50 42 36 33 18 17 15 13 6 5 5 9 9 5 3 4 8 15 18 30 45 46 46 46
55 56 56 56 56 56 55 54 55 55 56 56 56 57 53 48 39 28 59 57 50 40 39 37 28 18 16 13 10 4 6 7 8 11 12 10 8 12 16 18 29 45 45 45 45
56 56 56 55 55 56 55 54 55 55 55 56 56 56 52 38 33 27 26 31 34 38 35 32 24 17 17 17 11 12 6 7 8 13 16 16 18 16 14 15 29 38 43 43 44
56 55 55 55 55 55 56 55 55 55 55 56 56 52 49 45 29 26 26 26 24 27 27 25 25 24 23 21 21 15 15 14 14 15 15 17 17 15 15 14 22 28 36 41 43
56 55 55 54 55 55 55 55 55 55 55 55 56 52 45 37 27 25 22 24 26 27 30 29 30 29 30 22 17 16 19 16 18 19 18 17 16 16 16 17 17 22 23 32 41
55 55 54 54 54 54 54 54 54 55 55 55 52 52 39 37 26 23 23 25 28 29 34 25 28 30 22 20 19 18 15 18 19 19 22 19 18 17 18 17 18 19 20 22 28
54 54 54 54 54 53 53 54 54 54 53 49 47 43 41 28 26 23 25 31 31 33 33 31 28 24 22 21 19 16 16 20 18 17 12 11 16 21 22 21 22 22 24 38 42
54 54 54 54 53 53 52 49 44 44 47 39 34 37 23 21 23 23 24 30 30 31 28 28 25 23 18 19 17 17 17 17 19 20 18 18 16 22 26 25 25 36 39 41 43
54 54 53 53 53 53 51 50 46 42 35 39 31 28 28 27 23 25 29 31 31 27 28 24 24 22 21 22 21 19 20 24 21 21 20 19 20 24 26 30 34 36 37 39 41
54 53 53 52 53 52 51 50 50 52 32 29 31 25 32 31 28 24 30 30 26 25 25 24 24 25 22 27 25 26 26 25 23 23 23 22 21 24 27 30 31 33 35 37 40
54 53 53 53 49 54 49 50 54 55 28 25 26 26 28 29 28 27 27 30 25 25 25 25 24 24 25 27 26 26 30 28 26 24 21 21 18 24 26 29 31 33 35 36 39
53 54 53 53 51 52 51 53 54 52 23 25 26 23 24 30 27 29 26 29 28 23 27 27 26 29 29 28 27 30 32 29 29 27 26 25 21 22 27 29 32 34 35 37 39
54 53 52 51 53 56 58 58 52 40 24 29 26 27 23 29 30 26 29 32 32 24 26 26 28 29 29 29 29 28 31 31 30 28 26 29 26 26 24 30 34 36 37 37 37
53 54 52 54 55 57 59 53 34 33 30 22 25 27 27 27 28 28 27 29 30 26 27 27 29 30 31 30 32 30 30 29 28 28 26 34 30 35 34 33 36 37 38 38 38
53 53 56 59 61 61 57 43 32 29 24 23 26 28 27 28 28 30 28 28 31 34 30 28 27 28 30 29 29 30 29 28 24 26 27 27 27 29 33 35 37 37 37 38 38
54 58 59 60 60 58 49 38 36 31 26 25 25 27 27 30 32 30 30 29 30 31 30 32 28 30 29 30 30 28 29 28 28 29 26 25 28 31 32 33 34 34 36 36 37
54 55 55 59 60 56 46 40 35 31 28 28 26 27 26 26 29 31 31 33 32 33 34 30 28 27 28 30 34 28 29 28 31 23 22 22 29 33 31 32 34 32 34 36 37
55 44 56 60 57 46 39 41 34 30 36 34 30 28 30 27 29 30 32 33 35 34 31 32 32 28 26 26 26 29 29 29 28 29 24 22 22 31 35 35 35 34 36 36 35
53 40 57 59 38 43 39 39 35 32 37 37 37 31 33 30 32 32 35 36 35 36 31 32 32 26 26 28 28 28 30 30 27 25 28 27 24 28 34 34 33 32 34 35 36
47 50 56 57 35 38 40 37 36 33 33 36 35 36 36 36 32 38 38 40 39 39 38 36 30 27 26 30 32 26 27 30 34 30 25 18 21 29 34 35 34 32 35 36 36
51 42 48 50 47 42 40 36 37 39 38 36 35 36 37 35 36 37 38 41 41 38 41 40 32 28 26 25 24 24 23 24 31 27 27 27 28 27 35 36 35 36 37 36 37
51 44 42 37 38 41 40 37 36 37 39 37 36 36 35 32 34 37 39 39 41 40 39 37 31 32 32 26 25 24 23 24 24 25 24 25 27 29 33 35 36 36 37 38 38
50 48 43 39 37 39 39 35 36 35 36 35 35 35 37 36 37 35 37 36 36 36 37 38 32 30 28 30 29 26 27 29 27 26 26 27 27 34 36 36 36 37 38 38 37
51 51 49 45 36 40 38 38 37 39 40 40 38 40 37 38 39 39 39 37 37 36 36 38 32 28 27 32 31 26 29 28 27 28 28 26 30 35 34 34 37 38 38 38 38

GFSSW_sfc_dewp_030.txt.gz
Dewpoint
58 58 58 58 58 58 57 56 55 56 55 55 56 56 56 57 56 54 40 39 48 56 49 34 35 35 35 31 27 19 16 12 11 17 16 13 20 20 30 38 41 44 47 43 45
57 57 57 58 58 57 57 56 55 55 55 55 56 56 57 56 52 47 49 56 58 57 33 30 28 30 28 25 25 18 14 11 11 14 9 8 12 16 37 45 47 47 47 46 43
56 55 55 57 58 57 57 56 55 55 56 56 56 56 56 56 49 41 55 56 59 57 35 34 33 30 26 23 18 12 5 9 8 9 9 9 13 17 36 42 47 45 45 46 43
57 55 54 56 57 57 56 56 55 55 56 56 56 56 56 53 32 30 55 59 61 51 40 37 36 34 20 16 15 4 9 7 11 9 6 5 7 14 20 36 48 47 47 46 44
56 56 56 56 56 56 56 55 54 55 55 55 56 56 53 47 38 36 58 60 53 43 38 35 35 24 16 14 8 6 7 7 13 13 8 8 9 15 18 40 48 47 46 45 44
56 56 56 56 56 56 55 55 53 55 55 55 56 56 50 38 37 30 38 48 38 36 35 36 31 24 21 16 8 8 7 7 9 15 15 13 16 14 17 41 45 45 45 45 45
56 56 55 55 55 55 55 55 55 55 55 56 56 53 50 42 40 38 25 25 27 34 30 30 29 25 29 18 14 11 7 10 12 15 14 16 16 14 15 43 44 45 45 45 45
56 55 55 54 54 54 54 54 54 55 55 55 56 52 40 41 36 27 25 22 25 30 33 31 28 30 23 24 18 16 17 14 17 17 18 16 13 16 14 31 42 43 43 44 44
55 55 54 54 53 53 53 54 54 54 55 54 51 51 31 43 25 22 24 25 29 28 30 24 28 28 22 19 17 18 13 17 19 19 19 19 17 19 16 19 24 26 37 41 46
54 54 54 53 53 53 53 53 54 54 53 51 48 42 41 35 25 23 24 29 31 30 29 25 28 23 22 20 15 18 15 19 17 17 18 14 19 21 20 20 29 39 43 44 44
54 54 53 53 53 52 51 48 41 42 46 31 34 38 31 28 24 22 25 28 30 30 27 29 24 20 18 18 18 19 19 18 19 20 17 18 21 25 29 37 39 41 42 43 44
53 53 53 53 53 53 50 48 43 43 32 37 40 38 36 23 25 25 28 29 31 27 30 25 22 22 21 25 27 23 23 22 21 23 18 21 22 28 33 36 40 40 41 43 43
53 53 52 52 53 50 47 48 50 50 41 28 33 28 28 30 29 24 30 32 28 26 26 24 22 24 28 27 25 29 26 26 23 25 23 22 22 29 32 34 37 39 42 43 43
52 52 52 52 47 49 43 44 50 48 26 25 27 25 29 30 28 27 27 29 29 26 24 23 24 26 29 27 27 29 31 28 25 23 17 22 18 24 30 32 34 37 40 42 43
52 52 52 52 48 51 50 56 55 47 17 25 26 24 24 29 28 27 26 31 28 24 26 25 29 29 28 28 28 28 30 29 29 26 25 25 21 23 31 31 34 36 39 41 43
52 53 52 49 50 54 57 58 44 37 20 26 27 26 23 29 29 26 28 30 32 27 26 26 30 29 29 30 30 29 31 33 31 29 24 28 25 23 28 31 35 36 38 40 41
52 53 51 54 53 57 57 43 31 29 29 23 24 25 26 27 28 27 28 30 31 24 26 28 30 30 31 30 30 29 31 27 26 26 25 32 31 31 32 35 36 37 38 38 39
52 52 52 57 60 57 50 36 30 33 27 25 27 29 26 28 28 31 29 29 31 34 28 28 26 28 30 29 28 29 31 26 22 23 24 28 28 30 36 37 38 37 37 38 37
53 53 57 58 59 55 44 35 34 33 26 25 27 27 28 30 28 30 30 29 30 31 29 29 27 30 30 30 30 29 27 29 29 28 24 27 29 31 34 36 36 37 39 39 38
52 52 51 58 57 49 44 38 37 32 32 28 26 28 25 26 28 30 31 33 31 32 34 31 26 29 29 29 31 27 29 27 29 20 22 23 28 31 34 34 36 35 35 36 37
52 39 48 59 49 42 37 40 38 34 36 31 31 27 28 27 29 32 33 35 35 34 31 33 30 27 30 26 25 27 28 29 28 27 23 21 22 29 34 36 34 34 36 36 37
49 37 53 48 30 41 36 38 36 33 35 34 36 36 30 30 33 36 34 35 39 39 29 33 30 25 26 27 28 27 29 30 25 23 26 25 23 32 33 34 34 34 35 36 36
45 49 55 44 28 34 37 37 36 33 34 34 36 36 36 34 35 38 37 41 37 37 36 33 29 25 26 29 31 25 28 33 31 27 23 18 20 30 34 35 35 36 36 37 37
47 40 45 49 43 36 39 35 36 39 37 36 35 35 35 35 38 37 38 40 39 36 41 40 31 26 24 25 25 21 23 31 29 25 25 25 25 28 34 35 35 36 38 38 37
50 41 39 34 35 41 40 36 36 35 38 36 33 35 34 32 36 37 39 39 39 39 37 36 30 32 31 27 26 24 23 24 24 26 25 25 27 32 35 35 36 38 38 37 37
48 46 42 36 35 37 39 37 36 36 35 35 34 38 36 35 35 36 37 37 35 35 36 38 30 29 24 32 31 24 26 29 29 26 25 29 32 36 36 38 38 38 38 37 37
51 50 43 42 33 36 38 36 38 38 39 41 40 38 35 38 39 39 38 38 38 35 37 36 30 26 19 31 28 22 27 29 26 28 27 25 32 34 36 37 38 38 37 36 37

GFSSW_sfc_dewp_033.txt.gz
Dewpoint
58 58 57 58 58 58 58 57 56 55 55 55 55 56 56 57 56 54 43 37 46 56 51 34 35 35 35 32 28 20 17 13 19 23 18 26 23 28 42 46 45 46 44 49 51
57 57 55 55 56 57 57 57 56 56 55 55 55 56 57 56 53 47 49 56 59 57 32 30 28 30 28 28 26 21 18 16 14 24 24 15 37 36 43 46 46 43 44 48 48
57 57 56 55 55 56 57 57 56 56 55 55 56 56 56 55 47 35 55 56 60 53 33 32 30 30 29 26 20 16 8 7 10 12 10 13 26 31 45 45 45 42 43 45 47
57 57 57 55 55 57 57 56 56 55 55 55 56 56 56 53 26 33 57 61 60 42 35 34 33 33 30 21 19 9 8 8 10 10 9 14 13 35 32 45 46 43 44 44 45
56 56 56 56 56 56 56 55 55 54 55 55 55 56 53 46 37 33 61 61 50 41 34 34 34 30 21 16 10 6 7 12 12 8 5 9 15 16 19 45 46 45 43 43 44
56 56 56 56 56 56 55 55 55 53 55 55 55 56 48 31 32 34 43 46 41 39 36 35 32 31 23 10 5 8 8 9 13 13 13 15 16 18 27 48 46 45 43 42 42
56 56 56 55 55 55 55 54 55 54 55 55 55 53 49 35 39 39 35 36 38 35 31 33 34 26 23 21 14 10 7 10 12 14 13 17 15 18 30 47 46 45 45 45 43
56 55 55 55 55 54 54 54 54 55 55 55 55 52 40 38 42 38 27 22 27 35 30 29 29 26 22 19 19 16 15 12 14 16 16 15 12 17 39 45 45 45 45 44 47
55 55 54 54 53 53 53 53 53 54 54 54 51 50 29 39 30 25 24 23 29 31 33 25 29 26 23 18 15 17 13 17 18 17 17 17 16 20 30 44 38 40 43 46 46
55 54 54 53 53 53 52 53 53 53 53 52 49 40 36 29 28 22 24 29 29 31 27 28 27 21 21 16 10 14 17 17 16 18 19 16 17 23 19 29 41 43 44 44 44
54 54 53 53 53 53 51 48 41 41 46 29 30 35 36 29 23 21 24 28 29 28 26 28 22 18 18 20 19 20 18 19 18 19 17 19 25 30 37 41 42 43 43 43 43
54 53 53 53 53 53 49 44 38 42 33 40 41 39 38 37 25 24 29 26 27 25 28 24 23 23 24 29 24 24 20 20 23 24 22 28 28 34 37 40 42 42 43 42 43
53 53 52 52 53 49 45 45 49 47 39 34 31 30 31 30 26 24 29 30 27 25 25 22 23 27 26 27 28 29 25 25 22 23 23 25 25 32 35 39 41 42 43 43 42
53 52 52 52 46 47 40 44 51 45 27 24 26 25 27 29 26 26 27 27 28 25 24 22 30 28 28 25 28 28 30 27 24 20 18 22 21 27 32 34 39 41 42 43 44
52 52 52 51 47 51 49 57 53 43 19 23 25 25 25 27 25 24 25 29 25 24 25 25 28 28 26 27 27 27 29 28 27 25 24 24 24 24 32 33 36 39 41 43 43
52 53 52 50 49 50 57 53 43 34 16 24 26 24 24 28 27 26 27 32 31 28 26 27 30 28 28 30 29 29 30 32 32 28 24 27 24 24 29 33 35 37 40 42 43
52 53 50 52 53 57 55 39 27 29 28 23 25 24 26 27 27 26 31 31 28 23 25 29 29 29 31 29 30 30 30 26 26 24 24 30 29 28 31 33 36 38 39 41 42
52 52 51 50 59 56 44 31 28 32 24 26 26 26 25 27 29 30 30 28 30 30 28 27 25 28 29 29 27 29 29 25 22 22 23 28 28 30 36 37 38 38 38 38 39
52 50 56 57 58 51 38 29 32 33 27 25 28 26 28 29 30 30 29 29 29 31 28 28 26 30 28 29 29 29 25 28 28 27 23 27 30 33 35 36 37 37 37 39 38
53 52 51 56 55 48 39 34 38 35 31 28 26 28 25 26 28 30 31 33 30 32 33 31 26 28 27 29 29 25 29 27 27 20 21 23 28 29 32 35 37 37 40 37 38
50 37 44 58 44 38 32 37 41 33 35 27 27 28 28 27 30 31 32 34 34 34 31 32 27 25 30 25 25 26 27 28 28 27 22 20 23 28 33 35 37 36 37 37 37
45 35 51 42 30 38 37 39 38 32 34 35 35 33 30 31 34 34 33 35 39 37 27 33 28 25 25 28 30 27 29 27 21 21 25 23 22 30 35 36 35 35 36 36 37
44 49 55 37 26 33 35 37 37 32 32 34 34 36 36 36 33 37 37 40 35 36 33 32 27 23 24 28 29 25 29 32 29 27 23 18 20 30 35 35 36 35 36 37 37
46 40 44 47 37 32 35 36 35 38 36 35 34 36 35 35 38 36 37 39 37 34 41 37 32 24 22 23 26 20 23 30 28 24 24 23 22 32 34 35 36 36 37 37 37
47 39 40 35 39 41 37 36 35 33 36 35 33 34 34 32 36 36 38 38 36 38 37 33 28 30 28 27 25 23 21 26 26 26 23 24 26 28 34 35 37 38 37 37 36
48 42 41 34 35 38 39 37 35 35 34 34 33 38 36 33 34 35 36 34 30 34 36 36 28 28 24 31 30 23 22 24 25 25 28 30 32 35 36 37 37 37 37 36 36
48 49 42 39 35 35 37 36 36 37 41 40 38 36 33 37 39 39 38 38 36 34 37 33 28 23 15 28 22 16 21 27 27 27 27 30 31 34 36 36 37 37 36 34 35

GFSSW_sfc_dewp_036.txt.gz
Dewpoint
57 57 56 55 56 55 57 58 57 57 56 55 55 55 56 56 56 53 43 37 45 55 52 34 33 33 34 31 27 21 17 14 18 31 34 36 37 30 45 45 46 46 52 55 56
57 56 57 57 56 54 55 57 57 57 56 55 55 56 56 56 53 47 49 56 58 56 32 30 29 30 28 27 25 22 18 16 19 25 35 36 37 42 45 46 43 45 50 54 53
57 57 57 57 57 55 54 55 56 56 56 55 55 56 56 55 47 32 55 57 59 52 32 31 32 29 28 26 22 19 17 12 13 26 19 28 32 41 45 44 44 46 49 50 50
57 57 57 56 56 56 55 56 56 56 55 55 55 56 56 52 25 31 61 60 60 37 33 32 31 31 30 24 22 15 14 7 11 16 19 32 27 43 38 40 45 48 49 48 47
56 56 56 56 55 56 56 56 55 55 54 55 55 55 52 45 36 46 61 60 44 36 32 33 32 30 26 20 15 12 10 12 9 9 17 15 22 39 23 46 44 47 46 45 44
56 56 56 56 56 56 56 55 55 55 54 55 55 56 48 32 31 45 50 45 41 36 35 33 32 33 27 18 8 10 10 11 10 8 11 14 17 18 32 46 43 45 45 45 45
56 56 56 56 56 55 55 55 54 54 55 55 55 53 48 38 36 39 38 40 39 37 32 35 34 28 25 20 14 11 7 10 12 13 15 16 14 18 42 45 43 43 43 43 43
56 56 55 55 55 55 54 54 54 54 55 55 55 51 41 38 41 39 35 26 36 36 33 31 34 30 24 21 19 15 14 8 12 15 17 12 8 16 46 45 44 45 45 46 48
56 55 54 54 54 54 53 53 53 54 54 54 50 49 34 38 32 28 27 25 30 32 30 27 29 25 22 17 15 16 12 15 17 17 16 16 16 22 44 45 41 41 45 46 46
55 55 54 54 53 53 52 53 54 53 52 52 50 41 34 27 33 22 24 28 30 32 27 28 26 21 20 14 12 12 14 16 16 18 17 16 25 33 34 40 43 44 44 45 45
55 54 54 53 53 52 51 48 41 40 46 33 31 31 35 35 27 21 23 29 29 28 26 27 21 17 18 18 18 18 15 16 18 20 24 32 34 36 40 42 43 43 43 44 44
54 54 54 53 53 53 48 42 36 38 38 41 39 39 38 36 30 23 28 26 27 25 28 24 21 22 28 26 25 21 19 20 23 24 28 32 32 36 39 41 43 42 42 42 43
54 53 53 52 53 50 45 43 49 46 40 35 37 31 27 33 28 22 28 29 25 24 23 22 23 27 28 29 27 28 23 24 22 24 26 27 27 33 37 41 42 43 42 42 43
53 53 52 52 47 46 40 40 52 44 26 24 27 26 27 29 27 26 27 27 27 23 23 25 30 27 26 25 28 25 29 26 23 19 19 23 19 29 34 38 41 42 42 42 43
53 52 52 51 46 48 43 56 54 38 18 24 25 25 26 25 23 23 29 28 23 25 24 26 28 27 25 27 26 27 29 28 26 25 22 23 24 27 36 37 38 40 42 42 44
53 52 52 50 48 50 55 48 39 33 21 24 24 23 25 27 26 26 31 32 29 28 28 28 30 28 27 29 28 29 31 31 31 28 23 27 23 24 31 35 37 39 41 42 43
52 52 51 49 50 56 52 37 27 26 28 23 23 23 26 26 27 28 30 30 25 24 26 28 28 29 30 28 30 31 29 25 25 24 24 28 27 27 30 34 38 39 40 42 42
52 52 51 50 55 54 41 29 21 28 27 25 24 25 24 27 29 30 29 28 30 27 27 26 24 28 28 28 27 30 27 26 22 23 24 28 27 29 35 35 38 39 40 41 41
52 50 52 56 52 48 34 26 24 32 28 26 26 25 27 28 29 29 29 28 29 30 26 26 25 29 28 30 29 29 25 27 28 27 23 26 29 34 36 37 37 38 38 39 40
51 50 51 56 53 46 33 27 33 39 31 28 23 27 25 27 28 29 30 32 29 30 33 30 26 27 27 29 29 25 30 26 26 18 19 22 27 29 33 35 36 36 37 38 38
46 43 46 54 42 36 27 30 40 40 34 26 27 28 27 26 30 30 30 33 34 34 32 30 26 24 29 24 25 27 27 28 28 26 21 18 23 30 34 36 36 37 39 37 38
41 35 52 41 32 37 35 38 40 31 35 35 33 30 29 31 33 32 32 33 38 36 27 32 28 25 24 27 30 27 27 25 19 17 25 23 21 30 34 36 37 36 37 37 37
46 48 53 37 29 32 34 36 36 31 33 33 34 34 36 35 32 35 36 38 34 35 30 30 26 23 22 23 27 25 30 29 27 26 23 18 18 33 35 35 36 35 36 37 36
45 41 44 44 36 31 31 33 34 37 35 34 34 36 35 36 37 35 36 38 36 34 40 36 29 24 21 19 25 20 26 29 26 23 23 23 20 29 33 34 35 36 36 36 36
44 40 42 37 39 32 30 33 33 32 35 34 33 34 34 33 35 35 37 36 34 39 37 31 27 29 27 28 25 21 21 28 25 24 21 21 24 25 33 34 35 36 37 36 36
46 39 37 35 41 37 36 35 33 35 34 32 32 37 35 33 32 34 36 33 26 35 35 34 28 27 25 30 28 25 22 23 26 24 26 27 26 33 35 37 37 37 37 36 35
48 47 39 37 37 35 37 37 36 38 40 39 36 35 33 36 38 39 38 37 34 34 35 31 28 24 20 26 20 16 21 23 25 28 26 26 26 35 35 36 37 37 37 35 34

GFSSW_sfc_dewp_039.txt.gz
Dewpoint
57 57 55 55 55 57 56 54 55 57 57 56 56 56 56 56 55 53 41 39 46 56 52 34 32 32 34 31 27 21 18 15 28 37 41 40 40 37 46 46 47 45 56 59 60
56 55 56 56 57 57 56 55 55 56 57 56 56 56 56 56 52 47 49 56 57 57 32 30 29 32 30 29 27 23 20 17 22 39 43 40 40 40 45 46 43 50 56 58 58
56 56 57 57 57 56 57 55 53 56 56 56 55 56 56 55 44 32 55 57 58 54 33 32 30 28 26 27 24 22 20 20 17 32 38 35 38 44 44 44 44 49 56 57 57
57 56 56 56 55 55 55 55 56 56 56 55 55 55 56 53 24 30 62 60 59 37 33 33 30 30 30 25 24 17 16 12 14 21 30 34 39 44 43 39 46 53 56 56 55
56 56 56 56 55 55 56 56 56 55 55 54 55 55 52 44 39 47 61 60 47 35 33 32 31 30 29 26 19 17 13 11 12 19 30 28 39 43 33 45 50 53 54 53 52
55 56 56 56 56 56 56 55 55 54 55 54 55 55 48 33 32 51 48 42 38 35 33 33 30 32 29 21 16 16 12 11 10 15 17 19 22 32 35 45 49 51 49 49 47
55 56 56 56 56 56 55 55 54 54 55 55 55 53 49 38 35 44 42 41 40 36 34 34 34 30 29 18 13 11 12 14 14 14 15 17 15 17 41 44 47 48 46 45 43
56 56 55 55 55 55 54 54 54 54 55 55 55 52 42 39 41 38 38 32 38 37 33 34 36 32 25 22 21 14 16 11 14 14 16 14 12 24 46 43 44 45 44 44 47
56 55 55 54 54 54 53 53 53 54 54 54 52 50 38 41 33 31 31 27 31 36 36 30 34 29 22 21 18 18 11 14 15 17 16 16 18 32 40 44 43 44 45 46 47
55 55 55 54 53 53 52 53 53 53 52 52 50 44 35 29 34 26 28 31 33 33 32 30 27 23 21 16 14 16 15 16 16 18 27 22 31 36 39 44 44 45 46 46 46
55 55 54 54 53 53 51 49 43 42 47 37 34 35 32 35 34 23 26 33 31 33 29 29 24 20 17 18 16 17 16 16 19 22 32 34 35 38 41 43 44 44 45 46 47
55 54 54 53 53 53 50 43 39 42 41 43 41 39 39 37 30 26 32 30 32 27 27 26 23 22 28 25 23 21 21 22 24 26 32 33 35 39 41 42 43 44 45 46 49
54 54 53 53 53 51 48 46 49 50 44 36 40 35 29 34 30 25 32 33 27 26 24 26 23 27 29 28 27 27 25 24 22 27 29 29 29 36 40 42 43 44 45 47 48
53 53 52 52 48 47 44 45 47 50 30 27 29 28 29 30 30 26 29 31 29 26 25 28 29 27 26 27 28 27 27 25 22 21 20 25 16 30 38 41 42 43 44 45 46
53 53 52 51 47 44 45 56 52 44 21 28 26 26 27 26 26 28 33 30 27 26 26 27 28 27 27 27 28 28 31 28 26 26 24 24 21 27 38 40 41 42 43 43 45
53 53 52 51 50 50 54 50 45 34 23 25 26 24 27 28 28 28 33 33 31 32 31 29 30 29 28 31 29 34 32 32 31 30 26 26 23 23 34 37 41 42 42 43 44
52 52 52 49 47 57 54 43 31 29 30 24 24 26 28 28 29 31 31 32 27 28 29 29 29 29 32 29 31 32 30 27 27 29 25 28 28 30 30 35 42 41 42 43 44
51 52 52 50 53 54 44 33 26 28 29 26 25 26 26 28 30 31 29 30 31 29 28 26 22 27 29 28 29 30 30 31 21 26 26 28 27 28 35 35 40 41 41 43 43
52 50 50 53 52 51 38 29 28 28 31 26 26 26 29 30 30 31 30 29 29 30 28 29 25 28 30 31 30 30 26 29 29 28 26 24 28 32 36 36 39 40 41 42 43
50 49 49 57 55 44 35 29 28 36 32 28 24 29 27 29 29 30 30 33 30 32 34 31 27 27 27 29 31 29 31 28 29 22 17 19 25 26 34 35 38 39 40 41 41
50 46 50 56 46 38 30 29 36 41 35 28 28 29 29 29 31 30 30 34 34 32 34 30 31 28 28 25 28 29 29 29 28 27 20 20 18 32 34 36 37 39 40 40 40
45 38 54 45 35 37 33 32 40 36 36 36 33 32 31 33 33 32 32 34 39 37 30 31 31 28 25 27 30 28 28 28 24 19 26 26 21 29 35 37 38 38 39 39 39
41 48 55 42 33 35 35 36 37 33 34 34 36 36 38 36 33 35 37 39 36 34 34 33 30 26 24 25 28 27 30 28 27 28 25 30 20 30 35 36 38 38 38 38 37
48 43 47 41 38 33 33 34 34 38 37 36 36 38 38 37 38 36 37 38 38 36 40 37 29 28 25 23 27 24 30 27 28 28 24 25 21 23 33 35 36 37 38 37 37
44 42 44 38 37 33 33 35 34 34 37 36 35 36 36 35 36 36 37 35 35 40 38 34 29 28 27 28 26 22 23 29 26 26 26 23 23 24 28 35 36 37 37 36 36
43 40 39 38 40 34 37 35 34 36 37 35 35 37 37 35 34 36 36 34 29 37 36 34 31 28 27 29 28 25 24 24 28 26 25 26 25 28 33 36 36 36 36 36 36
50 45 39 37 38 33 35 37 35 39 41 39 37 37 36 38 39 39 39 38 35 36 35 32 32 28 25 24 21 23 24 25 25 26 27 25 26 35 35 36 36 37 37 36 35

GFSSW_sfc_dewp_042.txt.gz
Dewpoint
57 56 56 56 55 57 58 57 55 55 55 57 56 56 56 56 54 49 38 37 42 57 53 31 30 26 28 25 28 24 15 22 35 36 41 44 38 40 44 43 47 48 53 58 63
56 56 56 56 57 57 56 57 56 55 55 57 56 56 56 56 49 41 44 56 57 59 27 28 25 27 21 23 26 21 15 18 31 40 38 38 39 39 40 44 44 49 58 60 61
56 56 56 57 57 55 55 54 56 55 57 57 56 55 56 55 44 24 57 57 58 55 32 31 26 24 19 23 23 20 16 20 19 39 37 37 37 40 36 40 43 45 56 59 59
57 56 56 56 57 55 54 54 56 56 56 56 55 55 56 51 23 31 61 62 59 40 32 31 27 23 16 17 19 18 18 15 20 37 33 38 38 40 40 37 43 46 57 58 56
56 56 56 56 56 56 54 55 56 56 55 55 54 55 51 42 32 45 60 58 42 34 29 31 26 22 18 16 20 20 16 16 30 32 31 36 37 39 37 44 48 54 56 53 51
56 55 56 56 56 56 56 56 55 55 55 54 55 55 48 33 27 44 46 42 36 32 30 30 26 23 27 25 21 20 12 15 22 30 29 34 38 39 39 46 51 54 51 46 44
55 55 55 56 56 56 56 55 55 54 54 55 55 51 45 35 33 42 40 36 36 33 31 31 29 29 30 23 12 13 11 13 17 25 25 28 30 22 39 45 48 48 47 42 39
55 55 55 55 55 55 55 54 54 54 54 54 54 51 37 35 35 35 34 35 37 35 34 32 33 30 29 21 16 12 13 13 17 24 19 20 17 28 42 43 44 45 44 43 41
55 55 55 54 54 54 54 53 53 54 54 54 51 49 33 40 31 29 32 25 33 36 35 33 33 30 24 16 12 12 8 10 13 16 20 18 17 30 43 41 42 43 43 43 45
54 55 55 54 54 53 53 53 53 53 51 50 48 47 39 26 30 31 24 26 29 33 30 30 28 20 19 13 9 14 7 11 10 17 15 16 25 30 42 41 41 43 44 45 45
54 55 55 54 54 53 52 49 45 43 46 35 30 35 29 31 31 22 22 28 30 29 24 29 23 16 14 15 15 15 15 11 15 22 21 21 26 30 42 43 42 44 45 46 46
54 55 54 54 53 53 50 40 38 46 37 38 37 36 34 33 28 22 27 22 24 19 28 24 20 25 24 21 18 16 17 19 23 23 26 29 30 33 38 42 43 44 45 46 49
54 54 54 53 53 52 47 41 48 47 43 34 36 31 26 32 25 20 26 26 20 20 24 21 25 28 25 23 21 23 21 23 20 26 29 27 28 33 38 42 44 45 46 47 50
54 53 53 52 49 47 43 40 43 47 33 22 26 26 27 31 24 25 27 26 27 23 25 26 27 26 25 25 25 21 26 23 23 22 16 26 13 30 36 37 41 44 46 48 50
53 53 53 52 50 41 44 46 52 50 19 21 24 27 27 25 23 25 32 27 21 24 26 26 25 25 23 25 26 26 27 25 24 23 22 22 18 26 35 35 37 43 46 48 48
53 53 52 51 51 50 54 57 53 37 21 23 24 23 25 25 24 26 29 30 30 28 28 28 30 28 28 30 28 32 30 30 29 27 22 20 22 10 24 30 38 42 46 47 46
51 53 52 50 43 58 57 51 35 28 26 22 22 23 21 23 24 26 27 27 22 26 27 27 28 29 30 29 32 30 26 22 23 24 21 28 25 19 29 34 38 42 45 46 44
50 52 53 50 51 57 53 42 27 21 22 24 22 21 20 24 25 28 28 26 29 27 24 21 24 25 29 29 25 27 24 23 12 19 22 28 22 27 34 36 37 42 44 44 42
51 52 51 52 54 55 45 36 26 26 26 23 23 21 23 26 24 27 29 26 28 30 21 25 23 28 29 31 30 29 26 30 29 31 28 20 25 30 34 35 36 42 42 41 41
49 49 46 53 56 49 43 33 27 33 29 25 20 22 23 24 23 25 28 30 29 31 34 30 26 27 28 29 31 30 30 27 29 22 12 11 17 16 30 34 36 40 40 40 41
48 42 53 59 56 46 38 32 29 38 34 25 20 25 24 28 24 23 26 31 31 32 33 30 28 28 28 26 24 30 28 27 25 28 17 14 11 30 30 33 36 39 40 40 41
47 37 59 57 44 46 36 31 37 34 39 31 28 26 26 29 29 26 27 29 37 33 30 32 32 31 26 28 29 28 27 26 23 19 29 28 13 26 33 37 37 37 39 40 42
42 47 55 51 42 41 34 31 36 31 33 33 31 31 34 32 31 33 34 37 36 33 33 32 31 28 26 27 30 27 28 27 27 29 24 30 14 26 32 35 37 38 39 41 42
42 44 52 48 40 37 33 30 32 38 35 35 35 37 37 35 37 36 36 36 37 35 40 36 32 28 25 22 26 26 27 27 24 26 19 21 11 20 26 31 34 37 39 40 40
45 39 43 43 40 35 34 30 28 33 36 36 35 34 34 35 35 36 36 34 36 40 38 35 30 28 26 25 25 23 23 27 24 23 25 15 12 11 18 24 29 35 39 39 39
44 42 43 43 39 35 34 32 28 34 35 33 34 36 36 35 32 35 35 34 34 37 37 35 32 31 28 28 27 25 24 23 26 25 24 22 20 22 25 30 32 37 38 38 38
52 45 42 40 38 34 32 32 29 38 40 38 37 38 38 38 40 41 39 36 34 37 37 35 35 31 24 25 24 32 27 24 22 25 26 24 24 26 28 30 33 36 37 37 37

GFSSW_sfc_dewp_048.txt.gz
Dewpoint
56 56 57 58 58 58 58 57 55 56 56 56 56 57 57 57 55 46 43 40 42 57 52 32 29 23 20 18 17 16 15 16 19 39 45 46 47 53 42 40 45 43 55 54 61
56 56 56 57 57 57 57 57 56 55 56 57 57 57 57 56 50 40 45 59 57 58 29 28 24 23 17 15 15 16 17 18 36 43 45 46 48 50 36 38 37 52 58 61 61
56 56 56 56 57 57 57 57 56 56 56 57 56 57 56 54 44 33 60 59 59 52 28 25 24 22 17 15 15 16 18 21 39 42 45 46 44 46 36 39 40 52 57 60 60
57 56 56 56 56 57 56 56 56 56 56 56 56 56 56 50 33 32 61 60 60 37 30 27 26 19 15 14 15 15 21 19 38 43 45 45 48 46 42 41 48 51 57 57 57
56 56 56 56 56 56 56 56 56 56 56 55 55 55 50 43 36 39 62 59 43 32 30 26 22 18 14 12 15 18 20 22 20 38 32 40 42 43 44 36 48 52 51 52 54
56 56 56 56 56 56 56 56 56 56 55 55 55 55 48 37 27 32 37 44 33 26 27 25 22 21 19 22 15 18 23 27 31 30 29 39 39 40 36 48 49 47 47 48 52
56 56 55 55 56 56 56 56 55 55 55 55 55 50 43 36 31 32 37 34 31 31 28 28 25 24 24 25 21 25 26 27 29 31 31 43 43 39 36 44 45 43 44 46 40
56 55 55 54 55 55 55 54 55 55 55 55 54 49 40 35 32 29 31 34 34 31 32 31 32 28 28 31 16 20 24 24 23 29 31 33 37 34 36 39 40 40 40 37 34
56 55 54 54 54 54 54 54 54 54 54 54 51 48 37 40 29 28 29 27 28 31 33 31 31 31 29 27 21 22 17 19 21 22 26 30 26 29 34 35 36 36 36 33 34
56 55 54 54 55 54 54 54 54 53 52 47 45 40 41 28 24 24 26 26 28 33 32 31 31 29 28 22 18 18 15 16 17 19 21 24 19 25 31 34 35 34 32 32 33
55 55 54 54 54 54 52 50 46 47 45 35 33 31 27 29 29 26 27 23 26 31 29 31 27 23 22 22 18 18 17 18 16 17 15 14 20 19 27 32 37 36 36 36 36
55 55 54 55 54 54 52 44 40 45 42 41 32 30 28 30 27 23 24 22 26 25 27 27 29 27 23 22 19 15 19 18 11 11 13 13 13 22 24 29 35 38 38 39 42
54 55 55 54 54 52 47 42 42 44 42 39 36 22 25 28 27 22 22 22 22 26 24 27 35 36 28 24 16 16 24 27 23 19 13 17 13 22 26 27 30 36 40 41 43
54 54 54 53 49 48 45 45 44 50 38 31 27 23 26 26 26 23 21 21 21 24 32 34 33 33 28 17 17 26 30 24 26 29 14 26 21 28 25 28 31 33 38 41 43
54 54 53 53 52 46 48 46 48 52 34 26 24 22 25 23 21 21 21 21 22 23 27 34 32 30 25 20 24 29 32 29 20 18 22 25 25 29 31 28 30 37 39 41 44
53 53 53 51 51 51 51 55 49 42 30 19 18 21 22 22 20 18 19 23 22 22 24 31 37 33 29 24 22 31 29 24 23 26 24 29 27 26 28 32 33 36 40 43 45
53 53 52 48 46 52 54 53 41 32 23 20 18 22 22 22 20 17 20 20 19 22 21 27 21 25 27 21 24 23 23 27 32 32 26 15 19 20 33 31 36 36 42 45 49
52 52 52 49 51 55 55 49 33 26 29 16 18 21 21 20 19 19 16 16 17 19 16 26 24 24 24 21 34 31 24 33 26 29 26 27 16 25 30 30 34 38 41 46 47
52 51 50 53 55 56 50 42 33 29 25 22 17 19 20 19 18 19 18 16 16 18 19 23 25 33 27 21 31 29 24 26 23 38 35 17 10 30 30 31 33 37 41 45 46
49 47 46 54 57 52 47 40 34 31 25 21 18 18 18 18 18 19 18 20 16 17 28 32 33 36 30 26 25 23 24 26 26 25 21 12 14 27 26 28 31 37 42 45 46
48 41 48 56 55 47 40 40 37 33 30 26 20 19 18 18 19 19 16 18 19 26 28 32 34 29 26 23 16 26 25 20 18 28 29 27 18 23 23 27 30 33 41 45 45
47 38 52 56 43 38 38 38 36 35 31 29 28 22 21 20 20 19 18 21 27 26 26 27 27 29 24 23 24 24 24 23 35 25 31 35 25 24 27 29 31 32 39 43 45
42 46 56 53 36 37 36 37 34 34 32 30 31 26 25 23 23 22 22 36 30 28 28 30 29 29 22 23 27 25 21 20 25 33 29 35 25 24 25 25 27 31 35 40 43
42 43 50 52 42 34 34 36 35 36 31 28 29 27 25 26 26 26 24 36 36 33 41 41 29 25 26 20 24 26 25 21 25 36 31 28 19 17 22 25 24 30 33 36 40
48 41 46 43 44 38 39 35 32 32 33 31 29 27 25 27 25 25 26 37 36 38 35 34 27 22 19 20 20 24 24 21 20 24 28 27 19 17 16 23 26 27 29 29 30
45 42 45 40 42 40 36 38 33 32 29 31 31 27 26 28 26 25 28 36 33 37 35 35 32 33 31 28 25 25 23 22 21 21 18 21 20 20 23 26 25 25 23 25 29
45 49 48 42 42 38 37 39 36 33 32 29 32 32 32 32 35 39 37 37 34 37 37 36 38 37 34 28 26 29 28 23 21 21 22 23 25 24 22 22 26 28 27 31 31

GFSSW_sfc_dewp_051.txt.gz
Dewpoint
58 58 57 57 58 58 57 57 57 56 56 56 57 57 57 57 55 49 46 46 46 55 53 36 32 33 26 21 19 19 14 12 22 41 44 47 46 52 48 49 49 50 49 58 61
58 57 57 57 57 57 57 57 56 57 56 57 57 57 57 56 51 45 48 55 58 58 33 28 27 28 23 19 16 15 15 17 39 45 45 46 46 47 46 44 48 55 59 61 57
58 58 57 57 57 57 56 56 56 57 57 57 57 57 56 55 47 40 58 59 59 52 31 27 26 25 23 18 15 14 15 27 40 43 45 44 47 50 48 42 43 53 58 59 58
57 57 57 57 56 56 56 56 56 57 56 56 56 56 56 52 34 34 59 61 60 38 31 29 27 25 22 16 15 14 16 26 40 46 45 46 43 45 49 43 47 58 59 56 56
56 56 56 56 56 56 56 56 56 56 56 56 56 56 52 45 44 42 61 59 46 35 30 30 29 25 18 15 16 16 17 23 40 44 44 47 43 42 45 46 49 58 59 57 56
56 56 56 56 55 56 56 56 55 55 56 56 56 56 51 40 38 45 50 44 37 30 29 30 27 24 22 21 24 28 28 29 34 38 38 44 45 38 48 45 48 54 56 55 54
56 56 55 55 55 55 55 55 55 55 55 55 55 52 46 40 36 34 34 38 36 28 26 28 30 26 27 29 29 29 25 27 29 39 40 37 36 38 44 49 51 51 53 52 47
57 56 55 54 54 54 54 54 54 54 55 55 55 50 45 42 40 38 35 30 36 34 32 34 34 33 31 31 29 25 25 24 29 38 40 38 36 38 41 45 44 45 48 52 46
57 56 55 54 53 54 54 54 54 54 55 54 51 49 44 45 41 36 30 29 33 33 37 31 34 33 31 29 25 23 20 20 24 37 40 34 34 36 39 41 40 39 36 35 37
56 56 55 54 53 54 53 53 53 53 52 49 47 42 42 34 32 29 29 30 29 34 36 35 31 31 30 24 20 22 22 20 18 23 32 30 28 32 37 38 37 35 33 33 35
56 56 55 54 54 54 52 49 47 47 46 42 39 36 30 31 32 28 29 27 28 33 33 33 31 27 25 26 23 21 21 19 18 21 21 29 27 30 33 35 35 34 32 33 35
56 55 55 54 54 54 50 45 44 44 43 44 41 40 35 32 29 30 28 27 27 29 31 30 33 33 33 32 26 22 20 23 24 20 18 16 19 25 29 35 36 33 34 33 39
56 55 54 53 53 51 49 45 44 45 44 41 40 41 36 29 28 28 27 24 25 28 29 30 33 33 32 32 31 30 28 26 26 28 22 21 19 23 25 29 37 37 36 37 43
55 54 53 53 49 49 48 49 48 46 41 36 35 37 33 25 30 28 28 23 26 28 33 33 33 31 31 31 31 29 29 30 26 24 21 25 21 27 28 26 29 37 40 42 43
55 54 53 52 50 50 50 52 48 48 31 36 32 27 22 28 27 27 26 24 22 32 32 29 31 33 31 30 30 29 32 28 30 29 25 26 24 28 27 28 30 31 38 42 44
54 53 53 52 51 50 50 50 51 43 31 30 27 23 25 27 26 24 22 26 25 28 28 30 33 33 33 33 29 30 30 32 34 32 25 26 26 27 26 26 33 35 39 41 44
54 53 52 49 47 52 50 50 41 36 30 24 21 22 25 24 24 23 21 21 21 22 26 30 27 31 36 31 32 31 29 27 27 27 26 27 29 30 32 31 31 31 36 43 49
53 52 52 49 50 52 53 48 36 32 31 26 23 24 23 24 24 24 19 21 22 22 24 26 25 31 34 29 30 32 32 28 23 27 27 29 27 30 32 33 36 38 40 46 49
53 52 50 50 51 52 51 40 34 34 28 28 21 23 23 23 25 24 21 19 20 18 19 28 31 36 33 33 30 34 32 34 29 33 27 24 24 32 32 33 39 40 43 46 47
51 50 47 50 53 51 47 37 38 35 34 33 26 23 22 22 22 22 22 22 21 21 27 36 32 37 37 35 32 30 30 28 28 17 17 20 21 29 31 33 35 39 44 45 45
50 46 47 51 53 49 38 38 38 38 36 34 28 24 23 24 22 21 23 23 23 30 34 34 31 34 35 34 29 27 26 26 25 30 23 23 21 26 29 31 31 38 44 45 45
49 42 48 53 43 42 39 37 39 37 38 38 33 35 33 25 26 23 24 25 28 31 28 33 34 34 32 34 32 25 28 30 26 22 28 27 24 26 28 31 31 31 42 45 45
45 44 52 49 33 37 37 36 37 36 36 36 34 35 36 30 27 27 27 40 32 31 30 35 29 24 27 27 31 27 25 24 27 32 26 23 24 25 25 25 27 29 39 44 45
45 40 48 49 37 33 35 32 34 38 38 36 34 34 34 30 30 31 37 40 40 38 41 38 32 28 25 23 26 26 26 26 26 27 26 26 26 25 24 25 25 26 29 40 44
47 40 45 42 42 38 34 33 33 36 39 37 35 33 33 29 27 31 37 39 39 40 37 34 28 28 25 25 28 26 27 26 25 27 26 27 25 25 24 24 25 30 31 29 34
43 41 46 44 43 42 38 32 33 34 36 35 35 35 32 30 30 28 34 37 35 38 35 35 31 30 31 32 29 27 26 26 25 24 22 24 23 25 25 25 24 24 24 28 29
46 46 45 41 42 41 38 34 32 35 36 35 34 35 34 31 36 36 38 39 38 38 35 36 34 31 29 27 26 23 26 25 25 25 25 23 25 28 28 28 28 29 31 30 32

GFSSW_sfc_dewp_054.txt.gz
Dewpoint
58 58 58 58 57 57 57 57 57 57 57 57 57 57 57 57 55 50 44 41 48 55 52 35 32 33 30 24 22 18 15 13 13 41 43 48 45 49 50 48 48 52 56 58 62
58 58 57 57 57 57 57 56 56 56 57 57 57 57 57 56 52 47 49 57 57 59 38 34 26 26 27 22 20 14 13 13 22 45 45 46 47 48 47 45 54 56 60 61 61
58 58 57 57 57 56 56 56 56 56 57 57 57 57 56 55 47 43 57 59 59 58 33 31 29 27 24 22 19 15 13 27 43 45 45 45 47 48 45 41 50 55 57 59 59
58 57 57 57 57 56 55 55 56 56 56 56 56 56 56 52 29 33 58 60 60 44 32 30 29 27 24 21 19 14 15 29 43 45 43 44 46 45 46 43 54 58 58 56 58
56 56 56 57 56 56 55 55 55 56 56 55 56 56 51 42 42 43 60 59 45 35 32 30 32 31 23 18 20 18 18 35 44 45 44 45 43 43 43 47 56 54 57 56 55
56 56 56 56 56 55 55 54 55 55 55 55 55 56 50 38 38 50 46 47 37 31 30 31 30 28 24 24 23 26 41 42 43 43 45 43 43 40 43 47 54 56 56 56 56
57 56 56 56 55 55 54 54 54 54 55 55 55 52 47 33 36 35 35 37 38 29 27 27 30 31 28 29 31 29 27 36 38 38 37 40 37 38 44 47 53 55 55 56 56
57 56 55 55 54 54 53 54 54 54 55 55 55 50 42 44 44 41 39 36 35 31 28 30 35 34 32 32 29 22 23 24 38 39 38 33 31 36 40 48 52 54 54 56 55
57 56 55 54 54 53 53 54 54 54 55 54 50 47 43 48 41 42 39 33 32 34 35 31 33 33 31 28 25 23 20 20 30 35 36 33 30 36 40 42 48 52 51 51 54
57 56 55 54 53 53 53 53 53 53 52 50 47 40 41 32 35 34 32 32 31 37 35 32 31 31 31 24 21 23 21 21 22 35 36 35 31 31 37 43 44 48 49 43 47
57 56 56 54 53 53 51 49 44 46 46 40 35 36 31 34 34 30 30 31 30 34 34 35 31 29 28 31 31 25 24 21 21 26 33 32 29 30 37 40 36 36 44 43 45
57 56 55 54 53 53 50 44 43 41 39 44 43 41 38 40 33 29 30 26 26 28 34 29 30 33 30 33 33 30 27 23 25 24 31 27 28 31 35 38 35 33 35 36 38
56 56 55 53 53 50 48 46 44 44 41 42 43 43 42 43 34 28 29 27 25 30 29 27 30 34 32 32 31 30 30 27 25 25 22 21 23 23 29 37 37 37 33 34 37
55 55 54 52 47 48 48 50 50 46 38 38 40 40 41 33 25 28 29 26 29 28 31 31 34 30 31 31 31 28 31 30 28 21 15 24 20 28 24 31 36 36 36 35 40
55 55 53 51 49 47 50 49 48 48 15 32 36 38 35 24 28 28 28 26 22 31 29 26 32 31 29 28 31 30 33 32 29 27 25 26 21 23 28 27 30 36 37 36 43
54 55 53 51 50 49 50 49 51 40 26 34 32 28 22 24 28 25 25 27 28 31 31 27 33 31 29 34 32 31 30 33 33 31 24 26 23 22 25 26 27 33 37 39 45
54 54 52 50 44 51 52 50 39 33 34 29 24 24 26 25 27 25 24 19 20 22 25 29 28 31 34 28 30 30 28 24 23 25 23 28 26 24 30 30 30 31 39 41 47
52 53 52 49 49 51 51 45 33 33 34 33 23 24 23 25 24 24 21 19 23 23 26 25 23 30 33 30 30 32 28 25 18 24 24 28 25 27 32 33 33 33 37 46 48
52 53 51 51 51 49 49 38 32 36 30 28 23 23 24 25 24 25 22 21 20 22 20 27 29 37 36 34 30 32 29 31 28 30 27 25 22 30 33 36 38 39 41 47 50
49 51 50 51 50 49 46 35 38 39 36 34 27 25 23 23 24 24 23 23 20 23 24 31 28 34 37 35 33 27 31 29 29 17 17 19 21 28 31 34 39 39 41 47 47
49 46 50 51 50 45 37 36 36 36 38 38 35 30 25 24 24 24 23 24 24 24 30 33 30 29 36 32 27 27 25 27 27 27 21 21 20 24 32 33 38 40 44 46 46
47 41 49 51 40 40 36 37 37 37 39 39 39 37 28 27 25 25 23 23 29 34 29 33 34 30 28 32 36 33 29 30 25 19 26 25 21 27 31 33 34 36 44 46 45
44 44 49 47 33 34 37 37 38 34 36 38 37 36 34 29 25 27 26 37 35 31 31 33 30 28 27 29 31 31 27 27 32 29 24 22 23 26 26 30 31 30 38 45 46
46 39 46 45 39 32 33 36 37 36 35 36 37 39 35 32 30 29 34 39 41 37 40 37 32 27 26 24 25 26 27 26 26 26 24 25 24 25 25 25 26 26 32 44 45
46 38 41 38 39 34 33 34 33 33 34 38 36 36 36 31 29 30 38 38 39 38 37 33 27 28 27 27 28 27 26 26 25 27 24 25 26 25 25 25 26 27 29 38 43
42 40 43 41 39 37 32 31 31 32 32 29 34 38 38 32 29 27 36 36 34 36 32 34 27 27 26 30 27 26 25 25 25 24 24 25 25 26 25 25 27 25 29 31 36
46 45 44 38 39 38 36 31 31 31 34 31 36 36 36 36 35 32 37 38 36 34 34 34 33 29 26 26 27 24 25 25 25 26 25 21 25 29 29 29 30 33 33 34 37

GFSSW_sfc_dewp_057.txt.gz
Dewpoint
58 58 58 58 57 57 56 56 56 56 56 56 56 56 56 57 55 51 41 40 48 55 51 36 33 33 32 28 22 19 15 13 13 34 39 48 44 49 49 47 56 58 56 59 62
59 58 57 57 57 56 56 56 56 56 56 56 56 56 57 56 52 47 49 56 57 59 37 33 26 26 25 24 20 15 13 12 15 39 45 46 45 46 46 47 53 56 60 61 60
59 58 58 57 57 57 56 55 55 56 56 56 56 56 56 55 41 38 56 58 59 57 39 31 29 27 25 24 21 16 14 15 39 45 46 46 46 47 44 42 53 55 57 58 58
58 58 57 57 57 57 56 54 55 55 56 55 55 56 56 52 19 32 59 61 60 51 34 30 28 26 26 23 21 15 16 29 42 46 44 45 45 44 45 44 55 57 58 58 58
57 57 57 57 57 56 55 54 55 55 55 55 55 56 50 38 34 39 58 56 52 38 32 28 31 29 26 22 20 18 27 30 44 44 43 43 41 42 44 55 57 57 58 57 56
57 56 56 56 56 56 55 54 54 55 55 55 55 56 48 30 32 48 41 41 37 35 31 30 29 29 27 25 26 39 42 43 43 44 45 40 42 40 43 53 57 56 56 56 55
57 56 56 56 56 55 55 54 54 54 55 54 55 52 47 28 36 39 41 35 38 31 26 29 32 31 32 27 31 33 36 37 38 41 41 43 37 39 45 54 55 55 55 54 54
58 57 56 55 55 54 54 53 53 54 55 55 54 49 38 40 45 46 41 37 36 36 28 31 31 32 32 30 29 26 29 31 36 39 38 35 31 40 48 54 54 55 55 53 52
58 57 56 55 54 54 53 53 53 54 55 54 49 46 41 46 39 40 39 34 33 34 33 29 33 32 30 32 23 23 20 27 29 38 37 34 30 34 44 51 54 54 54 54 54
57 57 56 55 54 53 53 53 53 53 52 51 48 36 32 31 36 35 38 34 31 34 33 32 33 30 30 24 20 24 21 22 21 31 35 34 32 33 41 48 52 54 54 55 55
56 57 56 55 54 53 51 47 41 44 46 40 33 27 30 34 40 31 31 30 31 33 31 34 30 28 28 27 31 30 27 24 23 23 31 31 31 30 37 43 46 52 51 53 55
55 56 56 55 54 53 49 43 39 42 38 42 42 38 39 40 39 37 31 25 28 26 33 29 30 31 31 33 31 31 30 28 26 26 31 30 30 30 37 41 44 48 50 47 50
54 55 56 55 53 50 47 45 45 45 38 39 42 42 41 42 40 39 29 27 24 25 28 27 28 34 32 31 29 28 29 29 27 26 29 24 24 25 33 39 39 43 49 44 45
53 54 55 53 49 46 48 49 48 46 33 32 42 42 42 40 29 34 29 26 29 24 29 29 32 30 31 28 29 26 30 31 30 22 16 22 17 26 29 36 37 37 41 41 42
52 54 54 52 46 47 50 49 48 46 13 22 39 39 39 25 26 27 29 26 28 31 29 27 31 30 28 27 29 27 33 31 31 27 24 25 20 20 26 31 35 36 35 36 38
52 53 54 52 50 48 49 50 51 36 18 29 35 34 29 25 26 26 27 27 27 29 31 25 33 31 28 31 32 32 31 30 31 29 23 25 22 21 24 26 31 36 36 34 36
52 53 53 51 45 50 50 49 39 31 28 30 29 27 28 23 24 26 22 22 23 23 25 29 28 31 35 29 30 29 26 22 22 23 22 27 25 25 26 28 28 32 37 37 40
51 51 53 51 50 48 50 46 32 31 33 36 25 26 22 25 24 26 21 20 21 23 25 23 21 27 31 29 28 32 26 24 16 22 22 28 25 25 31 35 33 33 37 39 43
51 48 51 53 51 47 48 37 31 33 34 26 24 22 23 25 24 24 22 21 20 22 19 26 24 35 37 33 30 31 29 29 28 29 27 25 23 29 31 34 37 35 41 43 45
47 45 46 53 52 46 44 36 35 38 38 37 22 24 22 24 23 23 23 24 21 23 24 26 23 33 35 35 34 29 31 26 28 18 18 18 21 24 29 30 36 38 39 46 49
44 41 46 51 52 43 36 35 36 37 37 38 36 30 25 24 25 25 23 24 24 24 26 31 26 27 34 30 26 28 26 26 28 25 21 20 22 23 30 31 34 35 40 46 49
42 37 50 51 42 38 35 36 37 33 36 38 39 38 32 27 25 25 25 24 27 31 25 31 29 25 26 31 33 28 27 28 25 21 26 25 20 24 29 33 35 38 40 46 48
38 41 51 48 38 35 36 36 37 34 36 35 37 38 37 29 24 28 29 30 33 31 31 33 29 24 23 27 33 31 30 31 30 28 25 22 22 25 26 29 33 34 37 45 46
40 37 44 47 41 36 34 36 35 38 36 36 36 39 37 32 31 28 28 38 39 33 41 35 31 26 24 24 28 28 27 26 28 26 23 25 23 24 25 26 26 31 31 38 46
41 34 39 37 39 39 34 35 35 35 37 35 33 35 35 33 30 29 37 37 38 38 36 33 28 27 27 26 25 24 25 27 26 26 24 24 25 26 26 25 26 27 28 38 44
37 39 41 38 38 39 34 32 34 35 33 32 30 35 33 33 32 29 36 35 33 35 32 33 26 25 29 29 28 26 26 25 26 25 27 26 24 27 26 30 29 29 30 35 38
36 43 41 38 35 36 35 33 33 35 35 33 32 30 29 36 39 37 35 36 34 34 32 31 31 27 23 26 26 24 26 25 25 25 24 22 24 28 29 31 32 33 35 37 41

GFSSW_sfc_dewp_060.txt.gz
Dewpoint
59 58 58 58 57 57 56 56 56 56 55 56 56 56 56 57 55 50 39 40 49 55 52 38 33 34 32 28 22 19 15 14 14 19 28 48 44 48 49 50 55 57 55 59 62
59 59 59 58 57 57 56 56 55 55 56 56 56 56 56 56 51 45 48 55 57 57 35 30 26 26 25 25 21 16 14 13 15 26 41 47 44 45 46 50 53 57 60 61 60
60 59 59 58 57 57 56 55 55 55 56 56 56 56 56 54 33 31 58 58 58 55 40 31 28 26 24 24 21 15 16 15 23 42 45 46 46 47 44 43 52 54 55 59 59
59 59 58 58 57 57 56 55 55 55 55 55 55 56 55 51 17 29 60 60 59 49 37 28 26 25 26 24 22 16 16 17 39 46 45 44 45 44 45 43 54 56 58 59 58
58 58 57 57 57 56 55 55 55 55 54 55 55 55 50 33 28 32 56 59 49 38 31 29 29 28 25 24 23 18 32 40 44 45 43 43 41 41 49 55 57 58 57 57 57
58 57 57 57 57 56 55 55 54 54 54 55 55 55 47 26 27 45 37 38 39 34 32 30 30 29 27 26 27 41 40 42 42 44 45 39 41 42 50 56 56 56 56 57 57
57 58 57 57 56 56 55 55 54 54 54 54 54 52 46 29 35 39 43 39 37 33 26 30 31 29 32 29 35 37 36 36 39 44 40 41 35 39 52 56 55 54 55 56 55
55 57 57 56 56 55 55 54 53 54 54 54 54 49 36 37 43 44 43 41 38 37 29 30 31 32 32 32 27 32 28 29 35 39 39 35 30 41 52 55 53 54 54 55 54
55 55 56 56 55 55 54 53 53 54 55 54 48 44 36 42 37 36 40 35 33 34 34 29 33 31 30 29 23 23 21 27 25 38 36 35 29 41 53 53 53 54 54 53 53
55 55 56 56 55 54 53 53 53 53 52 52 48 40 32 29 35 37 40 36 30 33 35 32 33 29 29 24 20 22 21 22 23 30 36 34 32 36 49 53 53 53 54 53 52
54 55 56 56 56 53 50 46 37 43 47 39 37 32 25 36 41 33 32 30 32 32 30 33 29 27 27 26 26 28 27 26 26 28 27 26 31 32 41 50 52 52 53 54 53
54 53 54 56 55 53 50 41 38 42 39 41 42 40 37 40 38 37 31 26 27 24 32 29 29 30 29 33 30 30 29 27 28 27 27 28 28 31 38 44 50 52 52 53 55
53 53 54 55 54 51 46 42 45 47 40 36 41 40 39 41 38 37 30 26 24 26 29 27 27 33 31 31 29 28 27 27 27 28 29 27 23 28 31 40 43 49 52 52 53
52 52 53 54 50 47 45 49 49 47 30 28 39 40 42 42 34 40 30 26 27 23 27 27 30 30 30 29 29 25 29 30 30 25 19 22 15 23 28 35 39 43 49 51 49
52 52 53 53 47 47 48 48 49 44 12 23 40 41 41 30 25 27 29 26 25 27 29 24 30 30 29 28 29 27 32 31 31 28 24 24 20 20 29 33 37 39 42 48 47
52 52 52 53 51 49 49 50 50 32 19 24 36 36 32 26 25 27 27 27 29 31 32 25 32 30 28 30 30 32 32 29 29 27 23 25 22 21 25 29 33 38 37 41 44
50 51 52 52 49 49 50 48 40 29 27 27 32 32 28 24 22 24 24 24 24 23 25 28 28 30 32 29 30 29 25 21 21 23 21 26 25 25 27 27 30 35 38 37 39
49 51 51 51 50 48 50 45 32 31 31 34 28 30 26 22 21 24 21 22 22 24 24 23 19 26 30 28 26 30 25 23 15 20 21 26 23 23 29 33 35 32 34 38 36
49 46 48 48 52 48 46 37 30 32 33 28 25 22 22 24 21 24 22 21 21 24 20 24 21 33 35 33 29 30 26 27 26 28 26 24 24 22 30 32 37 35 38 38 37
47 43 42 48 53 50 41 35 35 36 37 37 25 24 20 23 23 22 22 23 21 24 24 25 20 31 34 34 34 29 31 25 26 20 18 18 19 20 23 27 33 36 36 42 43
46 40 41 48 53 46 35 35 37 37 38 37 36 30 24 24 24 24 24 24 24 24 24 28 22 24 32 30 27 29 28 26 27 24 20 19 20 24 23 29 31 33 38 39 47
43 33 44 51 42 42 38 35 37 36 38 36 38 38 31 26 25 25 24 24 27 28 24 30 26 21 25 31 30 28 29 27 25 21 25 24 21 23 23 27 33 33 38 41 47
39 35 50 47 34 37 38 35 37 35 35 33 36 37 37 29 23 26 28 29 29 27 28 31 25 20 20 25 32 31 30 30 29 27 24 22 22 24 26 26 29 33 34 41 46
39 31 42 44 36 33 35 35 34 38 36 36 35 37 36 33 30 27 28 35 35 31 40 35 30 23 19 19 26 29 28 30 28 26 24 24 23 23 24 25 26 28 32 33 44
39 31 38 35 35 35 35 34 33 33 36 37 35 35 35 32 30 28 35 37 37 40 35 31 25 27 26 25 24 24 24 26 25 25 23 24 24 25 26 26 25 26 27 30 35
36 34 40 36 35 35 37 33 33 34 36 34 33 33 35 32 31 29 36 35 32 34 33 32 26 26 28 28 28 28 26 27 26 26 25 25 24 27 27 30 30 30 32 38 41
41 40 41 35 36 33 34 33 33 35 36 35 33 32 33 33 33 37 37 36 35 34 32 30 30 26 23 26 26 24 26 26 26 26 26 24 26 27 30 31 32 35 38 41 42

GFSSW_sfc_dewp_063.txt.gz
Dewpoint
59 59 59 58 58 57 57 57 56 55 55 55 56 56 56 56 54 50 38 39 45 56 54 38 33 35 32 27 23 20 19 16 16 16 21 47 44 48 49 52 55 56 54 59 63
60 60 60 59 58 57 57 56 56 55 55 56 56 56 56 56 51 43 47 54 57 57 35 30 25 29 28 27 22 19 18 16 17 17 36 46 43 44 46 52 52 55 59 62 62
61 60 59 59 58 57 57 56 55 55 55 55 56 56 55 55 34 27 59 57 57 56 38 30 28 25 24 25 22 18 19 19 16 18 44 46 44 46 44 44 51 53 57 60 59
59 59 59 59 58 57 56 55 55 55 55 55 55 56 55 50 11 31 60 60 59 48 34 28 24 26 26 24 23 20 18 18 23 44 45 44 45 43 45 43 52 55 58 57 57
56 58 59 58 58 57 56 55 55 55 55 54 55 56 50 34 28 40 58 60 50 41 30 28 28 28 26 25 24 19 27 41 41 44 43 43 40 41 50 55 56 56 58 57 57
55 56 57 58 57 57 56 55 55 55 55 54 55 55 45 26 26 40 40 41 40 34 32 29 29 30 27 27 27 39 40 42 43 43 43 39 41 40 51 57 56 56 55 56 57
55 55 55 57 57 57 56 55 55 55 54 54 54 52 44 31 33 38 43 39 37 34 28 30 31 29 31 28 40 37 36 35 40 43 39 40 36 38 50 55 53 55 56 56 56
54 55 55 55 56 56 56 55 54 54 54 54 54 50 35 37 40 41 43 40 40 36 29 30 32 31 32 31 27 33 28 26 34 39 38 37 32 41 54 54 53 53 54 56 55
53 54 54 54 55 56 55 54 54 54 54 54 49 43 33 41 31 33 40 35 36 37 35 29 33 32 31 30 25 25 23 26 24 37 36 36 29 46 54 53 52 53 53 55 54
53 53 54 54 55 55 54 53 53 53 53 52 48 40 37 27 32 37 41 37 33 35 35 33 34 30 30 26 22 23 21 23 23 29 37 35 33 47 52 51 51 53 53 54 54
52 53 54 53 55 55 51 47 35 42 48 42 36 35 26 36 40 37 35 34 33 34 32 34 30 29 27 27 26 25 25 25 25 29 29 30 30 34 51 51 52 52 53 53 53
52 53 53 53 55 54 50 45 37 44 40 43 43 40 39 40 38 36 33 28 30 25 32 31 30 31 29 29 29 29 27 26 27 28 28 28 27 31 47 49 51 51 52 53 53
51 52 53 52 54 52 49 44 46 48 43 41 40 39 38 39 36 34 30 29 26 27 31 30 28 32 31 31 30 29 28 27 25 29 29 26 22 30 34 44 48 52 52 52 53
51 50 52 53 52 49 46 48 48 50 35 28 35 38 41 40 33 38 31 28 26 26 29 28 29 30 31 30 30 28 29 28 28 28 22 23 16 22 28 34 42 46 51 52 53
50 50 51 53 49 46 47 50 49 46 16 23 40 41 42 31 29 36 31 29 28 26 30 25 30 30 29 30 30 28 31 30 30 28 26 24 21 23 28 27 32 39 45 51 52
50 50 51 51 52 50 51 51 51 34 23 23 37 37 37 34 26 27 29 30 31 32 31 25 32 31 30 30 30 32 32 28 29 28 25 25 23 22 23 27 31 34 40 45 51
50 50 50 51 48 51 51 47 39 31 28 23 34 34 32 27 24 26 27 27 26 27 29 27 28 30 32 29 30 29 27 24 25 25 23 26 25 26 27 28 30 32 38 43 46
49 50 50 50 51 51 51 43 32 32 30 32 30 33 26 24 23 25 26 24 25 25 25 23 21 27 31 28 28 29 28 29 16 20 21 25 24 23 29 31 34 37 35 38 42
49 48 48 49 51 51 45 35 30 32 32 29 26 30 28 24 24 26 27 25 25 27 23 26 22 30 34 32 30 31 27 28 28 29 28 24 24 22 27 28 34 37 37 38 40
44 44 44 49 51 49 41 33 35 35 37 36 29 28 29 24 23 25 25 26 24 27 31 30 23 31 34 34 33 30 31 28 29 22 19 19 20 19 25 25 32 32 37 40 42
43 39 42 48 50 44 36 32 35 38 37 36 37 34 25 25 26 25 25 25 24 26 28 29 26 25 32 31 29 30 30 28 27 26 22 21 20 29 26 25 32 33 37 40 43
41 33 42 46 37 38 35 35 36 35 38 36 37 37 33 27 27 27 26 28 28 28 25 32 31 27 26 30 30 30 31 30 30 24 27 26 23 27 29 28 30 34 36 41 43
37 38 44 41 31 32 35 35 35 34 35 35 35 37 39 32 26 29 29 32 28 30 30 33 28 23 21 26 32 30 29 30 30 30 26 30 25 26 27 28 30 30 33 37 44
38 32 40 41 32 31 32 34 35 36 35 36 35 36 37 35 34 29 30 34 34 31 39 35 30 26 20 21 28 31 31 30 30 29 28 27 26 27 27 27 29 30 31 33 36
39 34 37 32 32 30 32 32 31 32 35 37 35 34 35 33 32 30 33 38 37 40 36 35 28 28 25 23 27 28 28 30 28 29 28 27 25 26 28 28 28 28 29 31 34
35 36 36 36 33 31 33 32 31 33 35 33 33 35 33 34 32 33 34 37 36 35 35 34 30 30 27 29 26 25 25 28 29 27 26 26 26 29 29 29 29 33 35 41 44
41 41 35 33 33 30 30 31 33 34 35 35 35 36 34 33 37 37 40 39 37 36 35 33 33 30 26 27 28 28 29 27 28 28 29 27 30 29 29 30 33 37 41 42 42

GFSSW_sfc_dewp_069.txt.gz
Dewpoint
58 59 60 60 60 59 58 58 57 57 57 57 57 56 56 56 54 41 38 41 38 56 52 33 29 28 26 21 17 18 15 12 14 12 20 25 27 40 45 43 46 49 50 57 63
56 57 57 59 60 59 58 58 57 57 57 57 56 56 55 55 47 36 47 55 55 56 35 28 26 27 24 22 19 18 16 16 14 15 16 20 27 35 38 38 39 48 55 60 62
53 53 54 56 58 59 59 57 57 57 57 57 56 56 55 53 40 29 58 56 56 53 32 28 26 23 23 23 23 19 15 16 16 19 22 19 26 37 35 33 43 44 54 57 59
52 52 53 55 57 57 58 57 57 57 57 57 57 56 55 47 22 36 59 59 58 38 33 26 24 22 22 21 21 19 20 21 21 22 30 26 36 36 36 41 46 51 54 56 58
53 53 52 53 55 56 56 57 57 57 57 57 57 56 49 34 28 42 60 60 44 39 32 25 23 20 21 20 22 22 25 28 29 31 31 34 34 36 35 45 50 51 54 54 56
52 53 53 53 54 55 55 56 57 57 57 57 56 55 42 32 25 28 37 45 38 36 29 24 24 26 26 24 23 31 30 30 31 30 32 33 32 35 44 46 49 49 52 53 56
51 52 52 53 53 54 55 55 56 57 57 56 55 49 41 35 28 30 35 35 33 30 26 28 28 28 28 26 26 28 27 34 37 30 29 30 31 32 44 46 48 49 51 50 54
51 51 51 52 53 53 54 55 55 56 56 55 55 47 40 32 31 28 30 37 35 32 30 31 32 32 30 28 26 23 25 21 39 35 30 29 36 43 43 46 46 48 48 48 48
50 51 51 51 52 53 53 54 55 57 55 54 51 46 34 40 30 27 25 30 35 34 35 33 33 31 29 24 21 21 17 24 25 27 26 28 28 35 40 44 44 46 47 46 48
51 50 51 50 52 53 53 54 54 54 52 49 45 41 37 26 26 25 24 27 30 34 35 34 30 28 27 23 19 17 18 17 19 26 26 25 27 30 36 41 44 44 45 45 47
51 50 50 51 51 53 52 48 44 46 46 33 31 27 25 25 34 30 24 27 30 32 30 30 27 25 23 24 21 20 19 19 21 23 23 25 26 25 36 40 43 45 45 47 47
51 50 50 51 51 53 53 43 40 45 37 35 36 34 35 34 31 27 31 28 29 28 29 27 27 26 24 20 20 21 21 22 23 23 24 23 21 21 33 40 41 43 46 46 48
51 50 50 50 52 51 48 44 46 48 40 28 26 29 28 31 32 26 29 26 26 26 25 25 26 25 26 24 24 24 24 25 22 24 23 21 19 21 28 37 38 39 42 45 48
51 50 49 50 47 43 45 46 48 50 34 18 31 31 27 27 28 27 28 24 25 24 23 24 24 26 26 25 25 23 24 24 24 23 26 26 19 23 21 28 37 37 41 43 46
50 50 49 49 46 46 46 51 52 50 9 17 26 31 27 26 11 22 26 23 23 23 23 21 22 26 25 25 24 24 27 25 26 26 24 20 14 20 17 18 26 35 39 41 44
49 50 49 45 46 45 50 53 52 32 14 16 29 29 30 28 18 18 24 25 23 22 22 21 24 24 24 25 27 26 26 28 28 27 24 22 19 20 20 17 21 26 34 39 41
48 49 48 42 43 44 51 51 32 19 12 11 26 30 30 26 24 20 21 23 22 22 23 22 23 24 27 25 28 28 28 26 26 25 23 22 19 18 19 22 23 25 30 33 39
48 49 46 41 44 48 49 43 22 14 15 24 26 31 28 24 22 23 21 22 23 21 20 20 19 22 26 26 26 26 26 27 23 24 22 20 13 16 19 19 21 25 30 35 37
48 44 41 44 46 49 43 33 21 15 12 12 23 30 29 25 21 22 22 20 20 22 20 20 18 20 23 25 25 26 26 26 26 26 27 20 18 19 17 18 23 21 25 31 36
46 41 37 46 48 48 38 32 26 15 10 20 17 27 26 25 21 21 21 19 19 21 23 21 21 19 22 25 26 27 28 26 26 22 23 17 17 16 18 20 20 21 23 29 38
44 40 38 46 49 43 32 31 30 20 18 22 24 19 26 27 22 23 21 19 19 21 23 22 24 23 26 26 23 25 28 27 25 25 25 21 17 23 19 19 20 23 24 26 30
43 35 41 49 36 37 33 31 31 26 23 26 32 30 24 28 26 23 26 21 22 22 23 25 25 23 24 23 22 25 26 26 27 23 26 27 23 23 23 23 25 24 26 27 30
38 38 44 45 31 33 32 30 29 26 24 27 30 30 33 34 28 25 26 28 24 24 26 26 24 24 21 23 27 25 26 26 28 27 25 33 25 22 22 24 25 25 25 27 31
39 33 40 42 33 30 28 26 26 28 28 24 28 29 31 33 34 28 28 28 34 26 37 34 25 24 23 21 23 24 21 23 26 32 27 24 21 19 20 23 24 26 27 26 29
39 34 36 31 34 31 29 24 23 23 27 30 28 30 30 30 30 33 30 30 32 34 32 30 25 23 20 19 18 18 19 20 21 23 25 23 20 17 20 21 23 27 28 28 27
35 32 32 30 35 32 30 26 21 20 21 24 28 27 29 28 30 31 32 31 28 30 31 30 27 26 22 21 19 17 16 17 16 16 16 17 18 20 23 22 23 26 28 28 34
42 35 34 32 32 31 30 27 22 21 23 23 24 27 29 30 37 36 35 34 33 34 32 31 32 27 26 21 22 27 21 19 19 19 21 22 23 23 21 22 24 25 30 33 40

GFSSW_sfc_dewp_072.txt.gz
Dewpoint
56 56 57 58 58 59 60 59 58 58 58 58 57 57 57 56 54 40 36 42 45 57 51 36 30 29 26 25 21 14 14 13 19 18 18 21 21 44 41 37 40 46 57 61 62
52 52 53 55 57 58 58 59 58 58 58 58 57 57 57 56 46 38 50 58 56 56 33 31 25 25 25 23 18 16 15 17 21 15 14 17 16 42 42 44 47 48 57 60 62
52 52 52 52 55 57 57 57 58 58 58 58 58 57 56 54 41 35 57 56 55 51 33 30 25 23 20 22 20 19 16 16 14 17 18 20 21 34 35 42 45 45 54 58 60
51 51 52 52 52 55 56 56 56 58 58 58 58 58 56 49 28 39 60 57 57 36 31 30 26 23 19 20 20 18 16 18 21 22 21 20 25 31 31 43 47 51 55 57 58
51 51 52 52 52 53 55 55 55 56 58 58 58 57 51 39 33 44 60 58 42 32 30 29 23 21 17 19 19 19 20 23 22 23 24 22 25 27 30 44 48 51 52 54 57
51 49 51 53 53 53 53 54 55 55 57 58 57 56 49 40 33 28 34 46 38 35 33 29 22 21 24 23 22 22 27 25 33 34 32 28 26 35 41 43 47 49 50 55 56
51 51 51 51 52 53 52 54 54 55 56 57 57 53 47 41 37 32 30 33 38 35 31 26 23 26 27 26 26 23 22 26 38 34 30 34 26 40 46 49 46 47 50 53 55
51 50 50 51 51 52 52 53 53 54 56 57 56 51 40 35 34 32 32 29 34 31 28 28 28 28 29 28 25 24 21 21 33 36 34 34 28 44 48 46 47 46 48 48 51
52 51 50 50 51 51 51 52 53 54 56 57 51 49 36 38 35 31 27 26 33 33 30 29 32 31 29 26 24 20 19 20 27 35 31 27 25 41 46 45 44 46 47 44 50
52 51 50 50 50 51 51 52 51 55 53 51 47 38 36 22 26 28 26 23 30 33 30 31 30 27 26 25 22 22 20 23 20 26 27 25 24 33 41 47 40 46 47 46 46
51 52 51 50 50 51 49 46 41 49 50 40 34 32 23 29 26 26 24 23 26 30 29 30 27 24 24 26 25 21 19 17 26 26 24 22 25 29 32 34 39 42 42 43 45
50 51 52 50 51 51 48 44 35 44 38 34 37 37 34 32 31 28 25 20 26 25 29 28 26 24 25 24 20 18 19 18 22 24 22 21 26 25 29 36 38 42 42 45 45
50 51 51 50 50 47 43 43 44 44 39 29 25 23 24 28 31 28 25 20 22 24 26 27 25 27 25 25 22 21 22 22 23 23 25 26 23 20 26 33 36 42 44 47 46
49 50 50 49 45 44 40 42 44 49 36 15 18 22 22 23 23 29 29 25 22 21 23 25 24 24 25 24 23 23 23 23 21 22 22 29 23 23 23 27 34 39 45 42 44
49 50 50 49 43 42 47 48 51 49 15 7 14 28 24 21 18 21 29 26 24 21 23 23 23 22 25 23 24 23 24 26 25 24 24 27 26 20 23 23 30 35 42 44 46
50 49 49 45 44 42 46 48 52 35 13 12 26 27 25 22 20 17 22 27 24 21 22 22 22 21 21 25 24 24 25 26 26 26 25 23 22 22 25 21 23 31 37 42 47
49 49 48 40 39 44 51 46 34 23 11 6 21 27 25 25 22 21 19 24 23 20 23 20 20 20 23 22 24 25 26 26 28 27 26 28 23 21 30 26 22 26 34 40 43
49 49 46 39 42 46 48 41 27 15 18 16 13 26 25 26 25 22 19 18 25 20 20 20 19 19 23 24 24 25 26 30 29 29 26 28 18 11 21 21 22 24 29 36 38
49 48 45 43 44 46 42 31 27 19 12 15 19 22 27 26 24 25 23 20 22 22 21 21 18 19 23 24 24 26 25 27 29 32 32 24 22 19 19 19 19 22 27 34 38
47 45 44 46 47 45 37 29 27 27 19 17 14 21 26 27 23 22 22 22 21 22 24 24 23 20 20 24 24 24 26 26 27 27 24 18 19 26 23 20 22 21 27 33 40
45 39 43 46 48 41 31 29 28 25 28 22 14 16 14 23 26 21 21 24 23 24 24 24 26 23 20 21 21 22 24 30 26 26 26 27 23 28 25 21 23 24 28 32 37
43 34 42 45 37 36 32 31 30 22 23 26 28 25 20 20 28 23 23 24 31 24 22 25 26 25 20 21 22 23 25 28 29 24 30 34 27 28 29 30 28 28 28 31 33
38 38 44 42 31 31 31 30 28 26 22 23 25 27 28 30 25 28 28 32 31 29 24 27 26 24 22 22 25 24 22 25 28 29 28 31 27 27 24 25 27 32 29 29 34
38 32 39 42 34 30 29 28 27 28 25 23 26 27 34 29 32 31 28 31 35 33 42 38 28 25 25 24 26 24 21 23 27 31 29 28 25 26 23 25 26 30 33 31 34
38 35 36 32 34 31 30 26 25 24 25 26 24 26 29 34 26 28 31 30 30 35 35 37 30 26 23 20 20 22 22 22 21 24 26 29 23 22 22 24 28 29 31 34 34
33 33 33 30 33 34 32 29 24 22 21 22 25 26 29 35 36 31 28 32 32 36 33 32 30 28 27 22 22 20 21 22 20 19 18 21 21 22 20 21 26 24 24 28 31
42 37 34 33 33 32 31 29 27 24 23 21 23 25 30 37 40 44 39 36 34 34 37 33 32 28 27 25 22 23 24 19 18 20 20 20 23 23 24 23 26 30 28 29 35

GFSSW_sfc_dewp_075.txt.gz
Dewpoint
54 53 54 54 55 57 58 58 58 58 58 59 58 58 58 58 56 46 37 45 49 58 52 39 30 27 27 26 25 24 12 11 16 19 17 31 24 43 41 38 48 51 50 54 62
52 52 52 52 54 55 56 56 56 57 58 58 58 58 58 57 52 43 48 58 57 57 34 33 32 30 27 24 24 19 15 15 18 21 20 22 21 40 41 43 45 49 51 60 62
51 51 51 52 53 53 54 55 55 56 57 58 58 58 57 56 45 37 55 58 58 54 34 32 32 27 23 22 21 21 17 18 16 23 22 21 20 37 39 42 47 45 52 60 59
52 52 51 51 52 53 53 53 54 55 56 57 58 58 57 53 29 42 58 58 56 38 32 30 29 26 24 20 19 20 19 17 18 31 31 28 23 27 49 48 50 54 59 59 58
52 51 51 51 52 53 53 52 53 54 55 56 58 58 53 46 41 45 60 58 43 32 31 29 29 28 21 19 19 23 23 23 32 31 31 33 25 30 47 49 53 56 57 58 58
52 52 50 50 51 52 52 52 52 53 54 55 57 57 52 45 41 39 48 49 40 35 31 31 31 28 22 25 24 23 24 26 33 31 33 32 33 36 42 47 52 56 55 57 56
53 52 51 50 51 51 52 52 52 52 54 54 56 55 50 45 41 38 36 36 43 39 35 34 33 27 26 28 29 27 25 25 34 33 31 32 31 36 44 46 48 49 55 55 56
52 52 51 51 50 50 51 51 51 51 53 54 56 53 45 42 42 43 39 37 32 39 36 34 31 27 32 30 28 25 24 22 23 34 33 33 30 40 47 44 49 52 53 53 52
51 51 52 51 50 49 49 51 51 51 53 54 53 51 43 43 38 36 35 31 31 31 34 30 30 33 31 29 27 26 22 20 21 33 34 33 31 40 47 46 47 48 49 51 53
51 52 52 52 51 50 50 50 49 51 51 52 51 44 43 33 30 32 34 31 28 34 34 32 30 29 28 27 24 24 23 23 23 32 34 31 32 40 45 45 47 48 47 51 52
51 51 51 51 51 51 49 44 42 47 48 46 43 36 29 34 34 27 30 28 25 28 31 31 28 27 26 26 26 26 24 19 21 26 27 26 25 34 43 46 47 47 47 50 51
51 51 51 51 51 51 47 42 42 43 40 44 46 44 40 40 35 31 28 25 24 21 30 30 27 29 28 26 25 25 19 20 20 28 27 21 22 27 34 44 44 47 46 48 51
51 50 51 51 51 47 42 41 42 40 40 37 37 31 32 32 34 32 30 26 21 21 25 28 29 29 27 25 24 22 21 22 24 24 26 26 25 25 31 37 41 43 44 47 48
51 50 49 50 46 43 42 47 46 48 38 29 26 27 27 22 27 29 30 26 22 19 23 25 28 28 27 25 25 22 25 25 26 23 22 27 24 27 27 33 37 42 44 45 48
49 50 49 50 46 41 42 43 44 49 16 14 16 24 22 21 23 24 27 29 20 19 23 22 27 27 25 26 26 24 29 30 29 26 25 28 28 28 26 29 34 43 45 46 46
49 50 50 45 46 44 43 47 48 36 24 18 27 27 25 21 21 22 23 27 30 22 22 22 24 24 24 25 26 27 27 27 29 26 25 26 29 25 23 24 30 40 44 46 45
49 50 49 44 38 43 48 45 34 28 13 5 24 28 27 22 20 20 21 22 24 23 23 23 22 22 23 22 26 25 26 26 27 25 25 29 28 27 29 30 29 34 44 43 44
49 49 48 45 43 40 45 40 27 20 21 21 20 23 26 25 22 21 19 20 26 25 22 21 20 21 22 22 24 24 26 30 26 27 29 32 26 21 30 30 25 25 40 44 45
49 47 46 45 44 42 41 30 25 24 20 17 16 14 24 25 27 23 22 22 22 25 21 20 20 22 20 24 25 28 26 29 33 33 31 30 26 26 24 20 23 23 26 39 46
46 44 43 45 45 43 36 27 26 27 22 22 21 22 18 25 27 27 26 26 23 23 26 27 25 22 21 25 26 24 29 26 29 27 26 25 25 26 25 27 23 20 29 31 34
45 39 42 45 46 38 29 27 28 28 25 23 20 22 25 26 27 29 25 26 25 22 25 23 25 25 24 22 23 25 24 27 30 31 24 22 25 29 28 26 21 24 29 31 34
43 33 45 45 36 34 28 27 31 28 27 26 25 24 27 27 26 30 31 27 27 29 22 25 30 26 24 24 24 23 25 28 31 27 29 28 25 27 25 25 25 24 26 29 37
37 38 44 42 30 30 29 29 29 29 29 26 24 24 26 24 28 36 36 35 30 29 28 30 30 27 24 24 24 22 25 26 30 31 28 27 29 30 29 26 25 25 25 28 31
36 31 38 41 36 31 30 29 29 31 29 28 26 26 25 26 32 36 37 38 35 32 40 36 33 29 24 24 27 25 24 24 27 27 27 28 29 29 29 27 24 25 29 31 32
37 33 35 32 34 34 30 29 28 28 28 28 26 26 25 24 31 33 38 39 37 38 35 34 29 29 27 24 25 26 25 24 22 26 29 29 28 30 26 24 25 28 31 31 30
33 35 35 31 32 35 33 32 28 27 26 25 26 25 25 24 31 31 36 40 39 33 31 33 29 30 28 28 23 23 24 24 23 24 23 24 28 30 27 22 24 25 33 32 32
41 38 35 33 33 31 30 29 30 30 28 26 26 25 24 26 37 41 45 43 42 39 34 31 32 30 26 29 27 24 25 24 24 25 24 22 24 24 23 23 24 25 25 30 38

GFSSW_sfc_dewp_078.txt.gz
Dewpoint
53 52 52 53 53 53 54 55 55 56 56 57 58 58 58 58 56 50 40 43 50 58 54 37 33 29 27 26 26 23 20 18 17 12 18 29 24 41 40 47 48 51 50 52 62
51 51 51 51 53 54 53 53 53 54 55 56 57 57 58 57 53 47 49 57 59 59 36 34 34 31 29 26 25 22 17 18 17 16 20 24 21 38 41 44 47 49 52 57 61
50 50 50 50 52 53 53 53 53 53 54 55 56 57 57 56 45 38 58 59 60 56 32 33 33 32 26 25 23 21 20 20 20 21 25 29 29 40 41 43 46 45 52 60 59
52 52 52 52 51 52 53 53 53 52 52 54 55 56 56 54 8 40 56 57 57 39 30 31 31 30 26 23 23 19 19 19 19 30 31 30 33 48 48 47 52 53 59 59 57
53 53 53 52 51 51 51 52 52 53 52 52 54 55 54 47 44 43 60 57 45 33 27 28 29 30 27 23 21 20 22 24 26 30 29 32 34 47 48 54 52 57 57 58 57
52 53 53 52 52 51 51 51 51 52 52 52 53 54 51 42 38 41 49 48 40 32 30 31 29 31 29 25 26 27 26 26 29 30 31 32 36 42 51 53 50 50 53 56 56
51 52 52 52 52 51 51 50 50 51 52 51 52 52 47 43 42 38 36 37 44 38 34 33 32 33 29 26 30 28 25 25 25 30 31 31 29 37 49 49 49 51 55 55 54
51 51 52 52 52 51 51 50 50 50 51 52 52 51 44 45 45 44 45 42 39 38 38 38 36 33 29 29 29 27 25 22 23 29 33 29 26 42 48 48 47 53 54 52 52
51 51 52 52 51 51 51 50 50 50 51 52 50 50 43 47 43 42 38 34 35 35 36 37 36 30 30 29 27 27 23 24 24 25 32 30 28 41 48 49 51 52 52 51 52
51 51 51 51 51 50 50 50 49 50 49 50 51 44 43 29 33 32 36 35 32 33 31 34 29 28 28 27 23 24 24 24 24 26 32 31 30 42 45 45 48 49 50 50 50
51 51 51 51 51 50 49 42 41 43 44 45 45 40 32 33 38 34 33 33 30 30 29 32 27 26 27 27 27 26 25 25 25 24 32 31 31 31 44 45 45 48 50 50 50
50 51 51 51 50 50 47 41 40 42 40 39 40 44 45 43 40 38 33 27 27 23 31 30 28 28 29 28 27 26 25 24 23 24 27 24 21 27 44 45 45 47 49 49 51
50 51 50 50 50 45 42 40 42 45 40 37 38 37 40 39 41 39 34 27 24 22 24 27 30 30 29 28 27 26 25 24 20 24 25 26 23 25 36 42 46 47 48 49 51
49 50 50 49 43 44 41 42 41 44 35 29 33 31 33 31 32 32 29 28 24 20 21 23 26 29 29 27 27 24 26 26 26 26 22 26 22 27 30 38 44 45 46 49 50
49 50 50 49 42 41 41 42 44 47 -1 12 24 30 29 20 22 27 29 31 24 21 22 23 26 27 26 27 28 26 28 27 28 26 25 26 25 26 29 34 41 45 46 48 50
49 50 50 46 44 43 43 43 49 34 18 21 23 24 24 22 22 24 27 29 30 24 22 20 23 26 26 27 28 27 27 28 29 27 23 25 27 26 27 27 38 42 45 47 49
49 50 48 45 38 41 41 44 35 26 23 10 25 22 26 22 21 22 22 23 25 24 22 18 18 22 25 24 26 26 25 24 23 24 23 30 28 26 29 28 34 42 44 47 48
49 49 47 46 44 42 43 38 27 23 24 23 20 16 16 20 22 22 21 19 21 26 24 21 22 22 24 23 23 25 25 26 22 24 28 32 27 25 27 30 30 36 44 45 47
49 44 43 45 46 42 39 28 23 22 20 20 21 17 19 26 29 27 23 20 20 22 24 24 22 23 22 23 23 25 26 29 30 32 28 30 30 26 24 24 26 32 43 45 45
45 44 40 45 45 41 35 26 25 26 24 25 21 22 21 22 26 29 31 26 22 24 27 27 22 22 23 23 25 26 29 27 31 27 25 27 27 25 26 23 24 29 40 44 44
44 39 42 45 46 38 26 26 26 26 26 25 23 21 20 21 24 29 30 30 31 24 27 26 26 25 23 21 21 26 26 28 29 31 26 23 24 30 29 28 23 24 32 39 44
42 34 44 45 35 35 27 24 29 25 28 27 26 24 22 22 24 24 25 28 38 38 25 26 27 24 23 25 25 23 24 26 28 26 29 27 24 28 30 27 24 24 29 31 36
38 37 45 42 29 31 33 28 27 27 26 27 28 26 28 24 23 31 33 38 37 40 33 27 26 24 21 22 26 25 24 25 30 33 28 28 27 32 29 29 25 24 26 30 35
34 31 38 40 36 30 30 31 27 28 26 27 28 28 28 26 27 29 34 36 41 41 43 38 31 22 20 23 27 27 24 24 26 27 25 29 27 29 28 30 29 26 27 29 30
34 33 36 31 33 32 29 30 28 27 30 30 29 28 27 26 27 25 32 37 38 41 40 36 30 30 25 29 29 28 26 24 24 27 24 25 27 28 31 31 29 26 29 30 29
32 35 37 31 32 33 30 30 28 29 27 26 27 27 27 26 26 24 30 36 37 40 40 37 29 32 31 32 31 29 27 27 25 25 25 28 28 29 30 31 25 27 29 29 30
41 38 36 32 33 32 30 28 31 29 29 29 27 27 27 27 28 30 37 39 40 39 39 38 33 30 28 30 29 29 30 28 27 26 26 25 26 27 27 25 24 24 31 31 31

GFSSW_sfc_dewp_081.txt.gz
Dewpoint
52 51 51 51 52 52 52 52 53 52 52 52 54 56 57 57 55 51 40 42 51 59 53 34 32 28 27 26 26 23 21 19 19 16 14 21 25 40 43 48 48 50 51 50 61
51 50 50 50 52 53 53 53 53 52 52 52 54 55 56 55 52 49 49 56 59 58 33 34 33 30 29 27 25 22 20 19 20 16 18 21 22 39 42 45 45 48 53 53 61
52 52 51 50 52 52 52 53 52 51 52 53 53 55 54 54 46 26 56 58 61 56 31 32 32 31 28 27 25 22 21 22 19 20 20 23 30 40 41 42 45 46 48 59 58
50 51 52 52 52 52 52 52 52 51 51 51 52 54 54 53 -3 37 58 59 59 43 29 28 30 28 27 23 23 20 20 20 20 23 30 29 37 47 45 45 50 49 54 58 56
52 51 50 50 51 53 52 51 51 51 50 50 51 53 51 46 43 42 59 56 45 30 23 25 27 28 27 26 23 20 21 24 26 26 31 32 34 45 48 52 56 58 58 58 56
51 52 52 51 51 53 52 52 51 51 51 50 50 52 48 40 36 40 42 49 38 30 28 28 25 28 29 28 24 26 26 27 26 27 30 38 44 42 45 54 49 51 55 56 56
52 51 51 51 52 52 52 52 51 51 51 50 50 49 45 39 41 42 42 36 41 38 32 32 31 29 32 29 31 28 24 26 24 26 28 30 34 37 44 53 50 50 55 54 54
51 51 51 51 52 51 51 50 50 51 51 50 50 48 42 44 45 45 45 43 42 39 37 38 35 32 31 31 29 26 27 22 23 27 28 28 23 32 50 48 47 53 54 52 52
52 52 51 51 51 50 50 50 49 50 50 51 49 47 41 47 43 44 43 35 35 38 38 38 36 34 34 28 26 27 21 23 24 26 27 30 25 32 47 47 48 53 51 50 51
50 51 51 51 51 50 50 49 49 50 49 49 50 42 40 32 33 35 40 36 32 32 33 32 31 29 29 27 23 23 24 25 25 26 30 30 30 40 46 49 50 50 50 49 50
50 50 51 51 50 50 47 42 40 39 42 42 42 42 40 39 43 38 36 34 31 31 27 31 28 27 27 27 27 27 26 25 25 26 27 27 29 32 43 45 46 48 49 49 49
49 50 50 51 50 49 44 39 39 41 39 42 42 40 42 43 40 37 39 31 29 26 29 29 28 29 28 28 28 27 26 25 25 26 27 27 26 26 42 43 44 48 49 49 49
49 49 50 50 50 43 42 40 41 41 40 37 39 37 36 37 36 37 39 30 26 25 26 24 28 30 28 28 27 27 26 26 25 25 25 25 23 26 38 43 45 46 49 49 49
48 49 49 50 39 43 39 41 40 43 33 29 34 32 34 35 36 36 35 29 26 24 22 23 24 29 29 26 28 25 28 28 26 25 23 26 21 25 30 40 45 45 47 48 49
48 49 49 50 42 39 38 41 40 45 -5 11 26 32 32 24 17 27 31 29 25 22 22 21 24 23 26 29 28 27 30 29 28 25 24 25 24 24 31 36 39 45 46 47 49
48 49 49 45 44 43 43 41 47 30 14 17 24 27 28 25 22 27 29 29 27 24 22 20 26 25 25 26 29 30 29 29 29 27 23 25 25 23 26 29 36 42 45 47 49
48 49 48 45 39 42 42 42 32 23 23 17 22 20 19 22 22 21 25 24 26 21 24 21 20 22 27 26 28 28 25 23 22 22 22 27 27 26 28 29 35 41 44 46 48
48 48 47 45 45 43 40 35 25 24 25 25 22 19 15 27 29 31 21 22 22 27 23 21 19 19 21 23 23 25 26 25 20 22 23 31 29 28 29 29 31 40 43 46 47
47 43 44 44 45 42 35 25 17 24 23 23 21 21 22 23 27 30 31 25 19 21 24 23 20 24 20 23 23 24 24 26 26 31 28 28 30 29 25 26 32 36 43 44 47
44 42 38 44 44 41 32 20 22 26 25 24 21 22 20 19 21 29 30 32 29 34 25 28 23 25 23 23 24 24 29 26 30 24 25 26 27 27 27 23 24 34 42 44 46
42 38 40 45 44 38 25 23 25 23 24 25 24 21 20 18 19 27 30 29 36 35 39 28 25 26 25 22 20 26 26 27 28 29 23 23 24 29 29 27 23 28 42 44 46
41 32 43 44 34 34 27 25 28 24 29 26 27 25 24 24 22 23 26 26 37 38 35 38 29 23 23 25 24 21 23 28 26 25 29 27 24 27 30 31 30 25 31 43 45
37 37 44 41 27 28 30 27 25 23 25 27 29 27 26 23 22 24 25 35 38 38 37 39 33 23 23 24 24 25 25 26 30 31 28 26 26 30 31 29 26 23 24 31 41
35 31 38 40 35 27 28 30 31 29 25 26 27 28 28 27 27 27 29 33 40 38 43 42 38 34 23 21 24 25 25 28 28 26 26 27 27 28 28 29 29 29 26 27 32
36 32 36 30 32 32 29 27 31 29 28 29 27 25 24 23 24 24 25 27 35 41 38 41 35 32 29 24 28 29 28 28 28 26 24 25 27 28 29 29 29 31 29 28 28
33 34 38 31 31 33 31 28 25 29 27 27 27 29 28 25 25 21 23 23 32 39 36 38 34 33 29 26 24 26 31 31 31 29 24 25 24 29 29 30 31 29 28 29 30
41 39 36 31 31 32 31 28 29 28 30 29 27 27 27 28 29 29 28 30 35 36 35 34 35 32 27 31 31 30 31 29 29 31 28 26 27 29 30 30 30 30 28 28 30

GFSSW_sfc_dewp_084.txt.gz
Dewpoint
51 51 51 52 52 52 51 52 53 51 51 52 52 52 53 54 53 51 36 37 49 58 49 38 31 27 25 25 25 24 21 20 20 18 18 19 23 38 43 46 48 50 50 50 57
52 52 52 51 53 53 53 52 52 52 52 51 52 53 54 53 51 49 48 56 59 59 35 33 32 29 28 26 25 22 21 20 21 20 18 21 20 24 42 44 45 47 52 52 61
51 50 50 51 51 53 53 52 52 51 52 52 52 52 53 52 40 17 57 58 59 57 32 33 33 30 28 27 24 22 21 22 21 21 21 22 25 39 40 40 44 45 49 53 59
49 50 50 50 50 50 52 53 52 51 51 51 50 52 53 52 -6 29 58 59 60 47 29 29 30 28 26 23 23 20 22 21 20 22 26 28 32 43 41 40 51 49 52 58 57
50 50 50 50 50 50 52 52 52 51 51 50 50 51 50 41 38 41 58 54 45 30 24 25 28 28 25 25 23 20 21 22 24 26 26 30 31 40 46 49 57 59 58 57 57
51 51 50 50 50 50 51 51 51 51 50 50 50 51 47 27 30 39 41 48 38 29 26 25 23 27 27 27 24 25 24 26 27 25 27 31 38 44 41 53 50 54 56 56 56
52 52 51 50 50 50 50 51 50 50 50 49 49 48 45 27 36 39 42 37 37 37 29 30 31 30 31 29 29 27 26 25 24 25 26 31 29 41 43 54 51 50 54 54 54
48 50 52 52 51 51 51 50 49 50 50 49 49 47 41 42 45 45 44 42 41 37 36 37 35 31 30 31 29 27 25 22 20 25 27 27 25 28 49 52 51 51 53 52 52
48 50 51 51 51 51 50 49 49 50 50 49 47 45 36 44 42 40 43 39 38 37 38 37 35 33 32 29 26 26 21 21 23 27 28 29 26 31 48 48 46 48 52 50 52
48 49 50 50 50 51 50 49 48 49 48 48 47 37 27 17 36 37 43 39 33 34 33 36 35 31 30 27 21 23 24 24 25 25 27 27 28 28 45 46 45 48 50 49 49
47 47 49 50 50 51 47 42 39 37 40 40 38 39 39 43 43 39 37 35 33 31 27 30 27 27 28 28 25 25 25 24 25 25 25 24 24 26 39 45 46 48 48 48 48
47 47 49 49 49 50 43 39 39 39 37 39 40 40 40 41 38 33 40 32 30 26 28 30 27 27 29 29 27 27 26 25 25 25 25 24 25 26 34 42 45 47 48 47 48
47 46 48 49 49 43 40 41 41 39 39 37 39 39 37 39 34 30 34 31 28 26 27 24 27 29 28 28 27 27 26 25 22 26 26 25 24 24 31 42 44 46 49 49 47
48 48 49 49 40 42 36 40 41 41 33 28 34 34 34 37 33 32 32 28 27 25 25 25 25 27 29 27 27 24 28 27 27 25 23 25 22 24 25 29 43 44 48 49 48
47 47 49 49 43 40 36 42 41 45 5 13 29 33 33 29 21 31 34 31 23 24 23 23 23 24 25 28 27 25 29 29 28 26 27 25 24 23 28 29 31 42 45 48 49
46 48 49 44 42 43 43 43 44 31 15 17 27 29 29 28 26 27 29 29 28 25 24 22 25 24 23 27 29 31 29 29 29 27 24 24 23 21 24 28 32 36 43 47 48
47 48 47 45 38 43 43 40 32 22 22 21 22 21 21 26 26 27 26 24 22 21 20 22 21 22 27 24 29 29 25 23 22 23 23 25 25 23 26 28 30 31 40 46 48
47 47 45 45 44 43 40 33 24 22 27 25 22 22 21 21 28 30 24 22 22 25 18 12 12 20 22 24 25 27 26 25 20 22 22 29 26 27 31 31 30 32 40 45 47
46 42 43 43 45 42 35 22 21 22 24 22 19 20 22 20 24 27 31 29 29 25 25 23 20 23 21 21 22 24 26 27 25 29 27 27 28 29 29 25 28 31 42 45 47
40 40 38 43 45 41 32 20 18 26 25 24 18 21 16 16 14 16 27 31 32 36 37 26 25 25 24 22 23 23 28 25 28 22 23 25 27 25 28 27 24 31 39 42 46
41 36 39 45 43 37 24 22 24 23 21 22 24 20 22 20 18 20 22 29 35 35 37 37 25 22 22 23 20 24 23 27 28 27 22 22 24 30 28 28 29 25 34 41 44
39 31 41 44 33 33 26 25 28 23 27 24 27 25 24 24 22 19 24 26 33 38 35 38 36 27 23 20 22 23 22 23 22 24 27 25 21 27 29 30 29 27 26 38 44
35 35 43 40 27 26 28 26 27 24 25 26 27 27 27 23 19 22 23 29 37 38 37 34 35 30 24 24 26 24 24 25 30 29 25 25 23 29 28 30 30 30 29 28 40
35 29 36 39 33 25 24 26 26 30 25 24 27 27 27 26 28 26 26 28 30 25 43 38 33 33 29 31 31 28 23 23 27 26 24 25 25 28 28 29 29 29 27 25 30
36 31 34 25 31 30 25 25 24 26 28 26 24 24 24 22 21 20 23 23 24 30 39 38 31 32 33 36 36 34 29 25 24 25 24 25 26 27 29 29 30 30 31 29 27
33 32 34 35 30 32 30 27 24 26 28 27 26 28 26 23 23 22 25 27 25 37 36 38 31 33 30 29 32 31 29 27 28 29 28 27 25 29 29 30 29 30 30 29 28
37 39 36 31 29 31 28 28 27 27 29 28 29 27 27 29 29 29 29 29 29 27 34 35 34 31 25 29 31 28 26 28 29 30 29 27 28 28 28 29 29 29 30 29 29

GFSSW_sfc_dewp_087.txt.gz
Dewpoint
53 52 52 52 53 53 53 53 53 52 51 51 51 51 51 54 53 50 37 35 48 58 51 38 32 30 25 26 26 25 23 21 20 20 20 21 20 32 43 42 47 49 49 50 58
51 51 51 51 52 52 53 54 53 53 52 52 52 52 52 53 49 45 47 55 59 57 32 29 27 27 26 26 26 24 23 21 22 22 20 21 22 23 34 40 42 46 51 54 60
49 49 49 50 50 50 52 52 53 52 52 52 52 52 52 52 36 12 58 58 58 55 34 33 33 31 29 27 25 24 21 24 22 22 21 22 23 25 35 32 40 40 46 52 59
50 50 50 50 50 50 51 52 51 50 51 51 51 51 52 51 -3 25 58 60 59 47 30 32 31 29 28 26 26 23 24 23 22 21 25 25 29 38 39 34 49 47 49 54 58
51 51 51 50 50 50 51 51 51 49 49 49 50 50 49 32 27 37 52 54 46 34 27 27 28 29 27 26 24 22 22 22 22 22 26 27 27 30 37 47 53 53 54 56 57
51 51 51 51 50 50 51 51 51 50 49 49 49 49 48 16 18 40 40 44 36 28 25 25 25 29 27 27 25 26 23 23 27 27 26 25 30 42 39 51 56 57 56 56 56
49 50 50 49 49 50 51 51 51 50 50 49 49 46 43 29 31 37 41 36 37 35 28 27 28 28 29 28 29 28 27 27 26 24 24 28 28 34 39 52 51 53 53 53 53
48 49 50 51 51 51 51 51 51 51 51 51 49 45 36 40 43 44 43 40 41 38 35 37 34 30 29 30 29 27 26 22 20 25 28 29 25 28 42 51 50 51 52 52 54
47 49 50 50 50 50 50 50 50 50 50 50 45 43 31 38 38 39 42 35 38 37 35 36 35 34 31 27 23 26 19 21 20 27 29 29 26 27 46 49 49 51 52 52 52
47 48 49 50 49 49 49 49 48 49 48 48 46 37 27 16 39 41 43 41 33 35 35 34 35 33 32 26 16 17 24 25 23 25 26 24 25 27 34 43 43 46 51 51 51
47 47 48 49 49 49 47 42 38 36 39 38 35 36 35 40 42 40 38 36 32 30 27 34 29 30 30 30 24 23 24 23 25 26 24 22 24 25 28 41 43 47 50 51 51
46 46 48 49 49 49 43 40 37 37 35 38 38 37 37 37 35 34 38 33 31 24 29 29 28 30 30 30 29 26 25 24 25 26 26 25 24 26 32 36 39 44 48 50 49
46 46 47 48 49 43 41 40 40 40 38 35 38 37 36 37 31 32 29 32 29 27 26 25 27 29 29 29 28 27 26 25 23 26 26 26 25 26 28 38 42 45 46 49 49
47 47 47 49 41 43 36 41 42 42 32 27 34 35 36 37 33 34 30 22 29 27 27 24 24 28 27 27 28 25 28 26 25 24 16 27 21 25 26 27 38 40 46 47 49
46 47 47 48 44 39 39 43 43 43 8 14 29 33 33 32 26 29 31 29 17 26 27 25 25 25 25 28 28 25 29 28 27 25 25 24 24 24 26 25 27 34 43 47 49
46 46 47 44 43 43 43 44 45 32 12 17 27 28 29 29 27 27 31 30 29 20 24 24 24 25 25 26 29 30 27 28 30 28 25 26 25 22 22 25 29 34 40 46 48
46 46 45 46 39 43 44 41 32 22 21 21 21 21 21 22 28 29 27 26 22 19 18 22 22 23 27 24 29 28 28 23 24 25 22 26 25 25 27 27 29 29 35 45 48
46 46 44 45 45 45 41 34 22 17 25 24 21 21 22 17 23 30 24 22 28 24 20 13 9 21 24 24 25 28 28 24 15 22 22 27 23 24 30 31 33 33 33 43 47
44 42 43 43 45 44 36 24 16 22 23 22 19 20 22 16 18 20 30 29 32 34 24 24 14 22 22 23 25 27 26 27 25 30 27 26 29 30 30 30 28 28 37 44 47
41 39 38 44 45 42 31 16 16 24 22 23 15 19 15 16 13 13 24 31 31 33 37 33 24 25 24 22 23 25 29 25 26 18 17 22 26 22 27 28 30 29 34 42 47
40 34 39 45 44 36 23 21 22 22 25 17 23 18 21 19 20 18 25 27 30 30 38 35 30 26 25 21 20 22 22 27 27 27 19 20 24 33 30 29 30 32 31 38 46
37 30 41 44 31 32 25 23 26 23 24 25 26 23 19 20 19 13 17 22 25 37 32 36 36 32 28 29 27 22 22 23 22 19 29 27 22 29 34 33 34 33 32 31 41
34 33 42 41 25 24 25 24 25 23 22 25 26 27 27 20 9 20 22 25 30 30 24 27 30 21 24 25 29 29 29 26 27 28 23 25 24 30 30 31 33 33 34 34 34
34 28 34 38 34 27 24 26 25 29 25 23 25 27 27 26 26 25 25 26 29 24 33 38 31 20 17 29 32 28 30 32 34 27 24 25 23 28 30 30 31 33 34 31 31
34 31 31 27 30 30 26 24 23 22 28 27 24 24 25 23 22 21 22 22 25 32 30 36 30 31 30 29 30 31 29 31 32 33 25 23 23 26 27 31 31 34 33 32 32
30 29 34 32 29 30 31 25 23 23 27 27 24 25 24 22 22 19 23 26 24 31 35 37 31 32 29 32 31 27 27 28 32 32 31 25 24 30 31 32 31 32 32 32 33
37 38 34 28 27 29 27 26 27 25 27 27 27 26 26 28 28 29 29 29 29 29 28 28 31 29 24 28 28 25 27 30 31 31 29 27 29 31 29 30 32 32 33 33 33

GFSSW_sfc_dewp_090.txt.gz
Dewpoint
51 51 51 51 51 51 52 52 53 52 52 52 52 52 53 53 52 39 25 33 42 58 56 42 34 32 30 27 27 26 17 12 11 13 15 21 21 24 32 33 35 40 44 45 54
49 49 49 50 50 50 50 51 52 52 51 52 52 52 53 53 45 31 43 54 56 59 38 33 26 29 23 22 24 21 16 13 15 16 19 21 21 23 25 23 28 34 46 50 55
51 51 50 50 50 50 50 51 51 50 50 50 51 52 52 50 31 7 58 58 57 55 32 27 24 23 18 20 19 18 16 13 17 20 21 21 21 24 24 23 28 29 36 48 54
52 51 51 51 51 50 51 52 50 50 49 49 49 49 52 45 7 32 57 59 59 43 32 31 27 23 22 21 20 19 19 16 18 20 21 21 23 24 25 25 31 42 45 48 53
50 50 49 49 48 49 51 51 51 50 50 50 50 49 44 28 9 25 53 56 48 40 31 31 30 27 23 21 22 24 19 19 18 21 21 23 23 23 22 23 30 45 47 48 53
50 50 49 48 49 49 50 50 51 51 51 50 50 49 40 25 5 29 35 41 33 38 34 29 26 25 22 21 22 21 22 20 20 20 22 23 22 25 23 38 42 49 48 52 53
49 50 49 48 49 49 49 50 50 50 51 52 51 45 39 22 20 33 35 32 37 29 29 30 28 24 24 24 25 24 22 19 19 20 19 19 18 21 31 44 45 50 51 50 50
48 49 50 50 50 50 50 49 49 50 51 50 50 44 33 25 30 32 25 23 25 30 34 29 30 28 29 27 26 23 23 19 18 20 22 27 19 27 35 38 41 47 48 49 51
47 49 49 49 49 49 49 48 49 49 49 49 45 41 24 32 26 29 28 23 25 22 36 34 34 28 28 24 20 21 17 19 18 19 17 25 20 25 35 39 38 42 47 48 49
47 47 49 49 49 49 49 49 48 49 47 46 43 36 27 10 33 39 41 39 34 25 30 34 31 28 27 22 18 19 19 19 18 18 24 21 23 24 25 34 36 39 44 48 48
46 47 47 48 48 49 46 40 29 34 33 29 25 29 23 32 35 35 38 38 32 26 15 30 26 24 22 26 23 19 18 16 16 21 23 19 18 22 24 26 34 38 42 46 48
46 46 47 48 48 48 43 36 34 37 33 32 33 31 30 31 31 25 36 34 31 25 21 28 25 21 24 25 25 21 19 18 18 20 24 19 18 22 24 26 30 34 41 44 48
46 45 46 48 47 45 39 39 40 39 34 29 33 33 33 34 28 21 27 32 30 26 21 23 21 23 25 27 25 23 22 21 19 20 22 20 19 19 22 28 32 37 38 42 47
45 45 47 47 41 40 35 41 40 44 32 20 30 32 36 33 29 28 24 21 28 23 23 21 18 24 26 23 23 19 20 22 23 21 16 23 13 18 23 23 24 28 40 41 46
45 43 46 45 39 35 37 41 42 44 5 14 28 33 33 31 28 29 31 23 13 25 27 21 23 21 24 24 24 23 21 23 24 23 21 19 14 17 23 23 22 27 32 41 46
45 44 45 39 41 40 43 44 45 27 6 13 27 27 26 29 27 29 29 28 19 16 23 23 24 23 22 24 27 28 27 26 26 25 21 21 15 15 19 21 23 28 33 40 45
46 45 42 39 35 43 44 37 26 7 9 15 21 19 21 24 26 27 26 26 20 14 11 13 16 20 23 22 24 26 23 21 22 23 20 17 18 19 23 23 26 25 29 40 45
46 44 42 38 40 44 40 28 14 2 12 23 19 18 20 17 20 28 24 21 27 23 20 8 7 10 16 18 20 25 23 23 18 19 18 20 20 19 25 25 28 32 33 37 44
43 41 40 39 42 43 35 20 3 8 17 21 16 15 21 14 13 22 29 26 26 26 20 20 8 20 16 18 17 22 24 25 24 23 24 21 24 26 27 26 27 28 29 35 42
40 38 33 40 45 42 31 16 9 22 21 20 11 16 17 14 11 10 27 30 26 23 35 26 22 22 23 22 19 18 21 23 24 19 17 17 22 21 23 24 24 25 29 36 43
41 34 35 43 45 37 23 16 13 15 21 17 20 16 16 13 12 6 18 27 22 24 29 27 30 24 25 21 20 21 22 24 23 23 19 18 18 26 26 26 25 26 32 35 43
39 32 41 44 33 31 23 19 24 17 20 20 21 17 15 13 12 9 3 12 19 16 18 23 30 26 27 28 28 26 22 22 23 21 25 24 20 26 30 30 31 29 32 31 39
36 31 43 43 25 23 23 23 21 18 16 18 20 23 21 12 7 12 16 25 27 25 24 24 28 22 20 26 30 28 30 30 31 29 23 26 23 24 24 27 28 28 31 31 35
36 30 34 37 34 25 22 21 20 23 21 18 18 23 19 16 15 8 20 27 29 26 31 29 22 16 12 17 24 24 26 26 27 30 25 24 22 23 23 25 27 28 30 31 34
35 30 28 26 30 30 27 22 19 23 24 24 21 20 19 18 20 20 20 24 23 33 31 26 19 21 23 23 23 22 21 24 25 25 27 27 26 23 23 25 25 25 27 31 30
34 32 32 27 25 26 29 26 20 18 20 21 22 21 21 22 20 18 20 22 23 26 32 34 27 27 26 26 24 21 18 18 21 23 23 25 28 28 27 25 25 27 27 30 31
38 38 32 24 24 28 25 24 24 22 22 22 24 24 23 24 27 28 29 29 29 28 28 28 30 27 19 22 24 23 24 21 18 21 26 28 29 29 26 25 26 29 29 30 30

GFSSW_sfc_dewp_096.txt.gz
Dewpoint
51 51 52 51 51 52 51 51 52 50 51 51 51 52 53 53 52 37 22 34 42 57 53 38 37 32 28 26 25 24 21 19 15 13 14 14 13 17 18 17 20 21 27 30 46
49 49 49 50 50 50 51 50 51 50 50 50 51 52 53 53 45 34 45 54 56 58 30 29 31 31 26 23 24 23 22 19 16 14 14 14 13 16 15 16 18 21 35 33 39
48 49 49 49 49 49 51 52 52 50 49 50 51 52 53 51 37 31 57 58 57 53 26 25 30 30 25 23 22 21 21 21 17 17 16 13 14 15 14 14 21 22 26 29 41
47 48 48 48 48 49 50 51 50 48 48 49 49 51 53 46 20 35 59 59 60 43 35 31 29 29 25 22 22 19 18 19 17 16 16 15 14 16 16 16 20 23 27 35 39
48 48 48 48 48 48 50 50 50 48 48 49 49 51 47 27 24 18 58 55 43 42 34 32 29 28 23 21 21 19 18 17 18 16 20 18 17 17 15 14 16 20 28 36 39
50 50 48 47 48 48 49 49 49 50 49 49 50 52 44 28 19 12 15 18 21 31 31 32 27 26 25 23 21 21 20 19 19 19 21 20 20 18 18 16 17 24 31 37 41
50 50 50 48 47 48 48 48 48 49 49 49 52 48 39 28 18 20 19 24 18 21 23 31 29 28 28 26 27 25 22 22 21 20 20 21 19 17 18 20 18 23 30 39 39
50 50 49 49 49 48 48 47 48 48 48 51 51 44 34 25 24 19 18 17 18 21 25 25 30 30 30 28 25 22 23 22 22 22 22 21 18 20 21 17 18 29 33 39 42
50 50 49 49 49 48 47 47 47 48 50 51 48 43 32 35 22 19 16 12 12 16 21 23 27 30 28 27 25 24 21 22 21 21 21 19 16 17 22 25 27 28 31 37 42
49 50 49 49 48 48 47 46 45 47 46 45 42 37 35 20 15 23 24 34 23 13 12 12 11 18 23 23 22 22 21 22 21 21 21 19 18 19 17 26 29 28 29 32 40
48 49 49 48 48 47 42 36 31 36 42 36 35 34 30 20 11 18 20 26 33 25 18 14 8 12 16 20 20 21 21 21 21 21 21 21 20 19 21 19 23 23 28 30 39
48 48 48 47 47 46 39 36 33 35 30 26 21 21 18 14 13 14 20 24 32 29 26 16 10 13 12 15 18 19 20 21 23 22 23 21 19 21 22 21 19 18 24 30 37
47 46 47 47 46 41 38 32 37 36 28 19 17 17 18 20 18 17 17 19 24 26 25 17 12 12 13 12 15 21 23 24 24 24 25 23 20 21 22 23 21 20 24 27 36
46 47 47 46 40 36 34 37 36 39 27 8 18 21 22 27 23 23 21 17 17 21 18 20 19 17 11 15 13 15 21 23 25 26 21 24 19 22 22 20 20 20 24 31 30
46 47 47 44 36 31 32 38 38 40 8 10 21 26 27 24 25 22 23 19 13 18 19 19 18 17 16 14 19 18 20 21 26 28 25 23 21 21 21 19 19 24 28 31 33
45 46 46 40 39 37 34 39 40 27 9 1 20 23 25 28 25 26 27 21 17 12 12 15 17 16 17 17 16 18 20 22 24 25 23 25 25 21 20 21 20 21 26 35 34
45 45 44 37 34 38 41 35 20 11 4 -4 10 18 21 21 24 20 25 25 20 16 14 12 15 16 19 19 19 17 21 21 23 25 27 26 24 24 25 23 21 26 29 37 38
45 45 43 37 37 42 36 28 16 9 9 3 14 16 16 14 20 22 22 21 23 19 14 10 9 6 18 20 19 16 20 23 19 25 24 31 25 23 24 24 22 26 30 35 39
43 41 41 41 43 43 33 23 13 12 9 11 12 8 11 15 19 22 25 22 20 23 19 21 16 6 14 20 19 18 21 23 23 25 31 29 29 30 24 25 25 25 27 35 39
40 41 38 42 45 40 31 24 15 13 11 14 13 14 11 11 17 17 21 23 26 23 27 30 25 11 11 14 18 18 20 21 23 20 19 22 28 26 27 26 26 25 28 34 39
41 37 35 43 42 35 25 21 17 16 15 13 14 11 11 17 26 16 15 30 26 24 23 25 26 26 11 8 9 10 12 14 16 20 19 22 25 34 33 32 31 31 32 35 40
39 34 40 43 34 27 25 21 24 15 11 11 15 17 18 19 16 16 13 26 20 20 15 25 25 25 24 20 24 25 16 16 17 17 21 22 22 34 34 31 31 30 29 37 36
35 31 43 43 29 25 24 20 18 15 12 10 11 13 14 14 16 15 13 23 24 22 26 26 22 21 19 19 24 24 25 20 19 21 21 25 24 29 30 27 32 30 29 31 37
37 31 32 39 32 26 29 23 16 16 15 15 11 12 12 14 16 16 9 16 26 24 36 32 18 18 20 18 19 22 23 25 26 26 23 24 22 30 35 26 28 30 32 30 32
37 30 29 32 31 27 24 27 23 17 16 14 11 12 11 15 13 13 12 10 15 30 24 26 16 14 13 13 13 13 18 20 22 25 24 24 22 23 25 25 25 27 29 28 27
34 29 24 23 25 28 26 21 20 24 17 18 18 16 11 11 12 11 8 14 15 16 22 26 23 22 18 14 11 13 13 14 14 15 15 20 21 23 24 24 25 26 26 26 27
38 33 33 28 32 28 25 23 18 18 22 25 20 23 20 17 20 16 23 26 26 25 26 26 25 24 20 19 15 18 16 11 10 9 11 13 18 21 22 23 26 30 31 29 28

GFSSW_sfc_dewp_099.txt.gz
Dewpoint
49 49 49 50 50 50 50 50 51 50 50 50 50 50 51 53 53 42 32 38 46 57 56 40 40 39 34 30 26 25 21 18 19 19 19 17 14 19 18 17 19 21 26 39 57
48 48 49 49 49 49 49 50 50 49 49 49 49 51 52 53 49 38 44 56 59 59 35 32 33 36 31 26 25 23 21 21 22 22 19 20 15 16 17 16 19 25 39 54 55
47 47 47 48 48 48 49 50 50 48 48 49 49 51 51 52 40 31 57 55 57 57 32 23 24 30 29 28 25 22 21 22 23 22 21 19 16 14 15 15 20 23 28 35 51
47 47 47 47 47 48 50 50 49 48 48 48 48 50 52 49 12 39 58 59 58 47 37 31 25 23 28 28 25 21 22 22 21 22 19 16 19 19 17 17 20 20 27 34 39
51 50 48 48 47 48 49 49 49 48 48 48 48 50 48 36 32 37 58 58 53 44 36 31 31 30 27 28 25 22 22 22 20 19 17 17 21 22 18 18 19 19 20 36 38
51 51 51 49 48 48 49 48 48 48 49 48 48 51 48 33 26 22 35 41 35 35 34 33 31 31 28 27 24 24 23 22 22 21 21 20 23 22 21 20 19 24 22 34 39
51 51 50 50 50 49 49 48 48 47 48 47 48 49 43 32 24 24 24 25 23 21 19 27 31 30 29 28 29 27 24 25 24 23 22 22 20 20 21 22 22 20 25 36 38
48 50 50 50 50 49 49 47 47 47 48 47 51 47 40 35 31 30 29 20 18 18 19 26 26 31 32 31 29 27 25 21 23 24 24 22 19 22 24 22 21 22 28 34 40
49 49 50 50 50 49 48 46 46 47 48 50 48 45 39 41 33 32 31 21 15 14 20 17 25 27 30 28 27 26 23 23 23 24 24 23 20 21 21 22 26 27 28 33 40
48 49 50 50 49 48 47 46 44 45 44 42 44 40 41 30 23 20 25 24 27 23 18 17 14 16 26 26 23 24 24 23 22 23 23 21 20 20 17 20 26 28 28 32 40
46 47 49 49 49 47 44 37 34 35 39 40 40 35 32 34 33 17 20 22 21 31 12 15 10 8 11 23 24 24 23 22 22 22 22 22 21 21 19 21 23 29 28 28 39
46 46 48 49 48 47 43 34 35 35 32 33 30 28 30 34 28 24 17 14 22 30 29 15 10 10 9 13 20 21 21 19 19 21 22 24 24 24 21 21 22 22 20 28 49
46 46 47 48 48 42 37 35 37 37 31 25 25 23 25 21 17 14 15 14 17 26 30 25 23 16 10 10 12 12 17 19 19 22 25 28 26 23 23 22 22 22 22 32 49
46 47 47 47 42 37 32 34 38 40 30 21 20 16 17 18 22 21 17 16 17 16 24 27 27 21 11 10 13 11 13 16 19 23 24 28 24 26 24 24 23 22 23 27 49
45 46 47 45 41 36 33 37 38 39 17 5 12 22 17 21 24 23 23 19 16 15 22 20 22 21 19 18 13 13 18 17 18 21 25 27 26 25 26 26 23 21 22 24 49
44 44 46 41 41 39 38 39 39 28 16 12 24 23 24 25 24 25 23 23 22 17 14 14 16 15 18 19 19 20 21 22 21 24 24 27 25 24 26 26 24 23 23 27 48
43 44 42 39 37 38 44 37 26 20 4 -4 4 23 24 27 27 25 27 20 18 17 15 13 11 12 15 17 19 19 17 22 24 22 21 24 24 25 27 27 26 26 28 31 48
43 44 42 41 41 40 41 32 20 13 7 6 13 14 22 20 22 25 22 24 24 22 16 13 14 11 13 16 20 21 19 25 20 24 25 26 29 29 30 28 27 26 30 43 47
42 39 39 39 42 42 36 22 17 15 13 13 11 14 14 19 16 23 23 23 23 23 22 21 18 27 15 11 19 22 20 21 23 27 29 30 29 33 34 31 32 26 31 40 45
38 37 37 38 44 41 33 22 21 19 17 18 14 16 13 16 23 28 23 31 27 27 27 30 27 27 29 11 16 20 23 20 23 18 19 23 29 32 33 32 35 33 29 37 45
37 34 35 41 43 36 25 22 19 19 17 15 14 13 17 21 24 25 25 31 33 26 21 27 27 28 31 15 15 21 19 21 22 24 21 20 23 36 36 35 35 32 29 36 42
36 27 40 44 33 32 26 22 25 21 22 19 16 14 14 17 21 20 28 29 32 31 22 28 26 28 27 32 33 19 17 17 18 16 23 22 21 32 35 36 34 36 37 29 31
33 30 40 38 27 25 26 23 22 20 20 19 16 15 17 14 15 21 28 29 28 30 27 27 24 22 29 29 31 27 26 26 19 21 19 21 24 33 38 34 37 37 35 30 32
35 28 31 35 36 31 28 30 28 26 19 17 18 18 16 16 17 21 20 25 29 28 36 33 22 16 18 23 26 18 19 31 29 21 19 18 19 32 36 37 34 26 30 28 37
35 27 31 28 31 31 29 26 24 29 24 22 17 15 13 13 16 17 18 17 22 31 27 27 23 22 20 17 15 14 12 19 28 29 28 28 23 28 36 39 29 26 33 35 37
31 28 29 28 27 29 30 29 24 20 22 25 24 19 17 13 13 13 15 17 26 28 26 26 26 26 23 24 19 16 12 13 14 15 15 18 17 21 24 26 24 40 41 42 44
36 34 32 26 26 24 25 26 30 28 25 22 26 26 25 25 33 32 29 25 28 27 29 29 27 26 23 22 24 20 19 15 14 13 14 12 18 16 14 29 39 40 40 40 43

GFSSW_sfc_dewp_102.txt.gz
Dewpoint
48 48 48 49 49 49 49 49 50 49 49 49 49 49 50 52 52 46 34 34 44 56 56 43 44 40 38 33 30 27 23 21 19 19 20 23 18 19 18 17 19 20 27 31 56
47 47 47 48 49 49 48 48 50 49 49 49 49 49 51 52 49 43 45 54 56 58 39 33 36 38 35 29 29 25 21 21 22 21 22 24 22 18 15 15 17 24 53 56 57
48 48 48 47 48 49 49 50 50 47 49 49 49 50 51 52 43 31 56 55 60 58 35 29 29 35 33 30 28 23 23 23 23 23 24 23 21 18 16 16 19 19 49 56 56
49 49 48 48 48 48 50 49 49 47 47 47 48 49 52 49 -7 32 58 58 58 48 33 32 27 22 25 29 29 25 24 23 22 23 22 22 22 19 19 18 20 21 27 54 54
51 50 49 48 48 48 49 49 49 48 47 47 47 48 48 37 30 32 56 58 55 46 38 35 27 24 24 27 28 26 26 25 23 23 22 21 19 19 19 21 23 22 22 46 50
50 51 50 48 48 48 50 49 49 48 48 46 47 48 47 32 21 26 25 31 45 42 37 36 30 31 31 29 27 28 27 25 23 22 22 22 23 22 22 23 22 26 24 27 38
49 49 50 49 49 49 50 49 48 47 47 46 47 46 43 33 21 23 29 28 25 27 21 25 33 31 31 29 29 28 25 26 26 25 23 23 22 21 22 24 24 24 23 23 38
47 48 49 50 51 50 49 48 47 47 47 46 47 47 38 40 37 34 32 30 27 21 19 19 22 26 30 31 29 28 27 24 24 25 24 24 21 24 25 24 23 24 23 25 38
47 48 49 49 50 49 49 48 47 47 46 46 46 45 37 44 40 37 36 30 25 19 15 14 23 24 28 27 26 27 24 25 25 26 24 24 22 24 24 24 23 23 23 28 39
46 46 47 48 49 49 48 47 46 46 44 42 44 41 40 31 31 30 31 31 26 29 17 17 17 14 26 26 22 24 25 24 24 24 24 23 23 23 23 22 21 24 25 29 46
46 46 47 47 48 48 45 39 35 34 35 36 38 39 35 35 39 30 25 20 22 24 25 17 13 11 11 25 25 26 25 24 25 24 21 20 22 23 27 26 22 24 27 28 44
46 45 46 47 47 48 41 34 35 35 32 33 33 33 33 35 32 31 27 19 19 18 28 20 12 12 10 11 17 24 24 23 23 22 21 20 20 26 28 26 24 23 24 29 50
45 45 46 47 47 41 36 32 36 38 32 29 26 25 26 27 24 21 20 15 12 17 25 28 23 14 11 10 9 13 19 21 21 20 19 20 22 27 28 28 29 27 24 36 50
44 45 46 47 39 39 33 35 38 39 28 23 26 22 21 22 21 18 14 13 15 8 18 29 31 29 18 10 10 7 10 13 14 16 15 27 21 24 28 28 28 27 27 37 49
44 44 45 45 39 37 35 39 39 39 13 12 17 20 19 18 22 24 15 13 10 17 18 19 28 29 27 22 13 10 14 16 15 15 19 23 25 25 27 27 27 27 27 32 49
44 44 44 41 39 40 40 40 39 25 11 15 19 20 17 16 23 26 20 19 18 17 16 16 18 19 23 24 20 14 14 15 17 21 20 26 27 23 26 26 27 27 28 29 47
43 44 43 42 35 39 42 38 24 17 11 0 12 15 16 22 20 24 24 19 18 17 16 16 15 15 15 13 16 19 18 18 19 20 19 23 24 22 27 28 28 28 29 30 39
44 44 42 40 41 40 40 33 19 8 12 11 18 16 15 25 27 27 26 20 20 20 18 15 13 13 14 12 15 17 19 21 15 21 21 23 23 28 34 34 33 32 31 42 48
43 39 38 39 41 41 35 22 22 16 20 18 17 13 20 28 30 28 31 25 22 20 20 22 15 26 14 13 14 15 20 23 22 28 24 25 28 31 36 37 36 31 31 44 48
39 37 35 38 41 38 31 22 21 21 19 17 17 15 15 19 20 27 30 34 32 32 32 27 24 27 29 26 15 19 23 20 22 16 16 22 25 28 34 36 35 35 35 41 47
35 31 33 40 41 34 25 23 22 20 19 19 20 19 17 16 14 28 29 30 34 33 32 26 28 26 29 27 17 18 18 22 24 24 17 19 21 35 36 37 37 39 38 38 40
36 27 36 42 31 30 28 29 26 21 23 22 22 21 19 17 14 26 29 31 36 36 34 29 27 26 26 31 31 31 22 26 24 22 24 24 22 35 35 38 42 40 40 39 35
32 29 37 36 21 27 27 25 26 26 26 20 20 21 20 16 14 22 31 31 33 33 34 30 29 22 25 28 33 24 26 30 28 25 24 22 21 37 38 37 37 38 42 39 42
33 25 28 36 35 30 30 27 25 29 29 25 23 21 19 17 17 19 20 26 31 31 33 32 29 19 19 28 30 22 20 29 31 25 24 20 20 36 37 37 35 38 42 43 44
32 26 28 18 24 28 30 27 27 25 30 30 24 24 19 13 13 13 18 20 19 32 32 31 25 24 23 22 21 21 16 20 31 30 26 27 28 35 36 37 41 41 42 42 45
29 30 30 27 28 25 26 25 27 28 29 29 26 25 26 23 22 24 27 26 22 28 29 31 26 27 23 23 24 22 21 19 22 27 24 19 15 25 35 39 41 40 40 41 45
36 34 31 26 24 21 23 23 24 27 29 27 28 28 27 29 33 32 32 30 29 26 26 31 28 26 23 26 24 19 21 19 17 21 23 17 33 31 38 38 38 38 40 42 43

GFSSW_sfc_dewp_105.txt.gz
Dewpoint
48 48 48 48 48 49 49 48 50 48 48 48 48 49 50 52 52 46 36 31 44 54 54 46 43 41 38 35 30 27 25 23 21 19 20 23 22 24 19 17 18 21 36 39 56
49 49 49 48 49 50 49 49 49 48 48 48 48 50 51 51 48 43 44 51 54 57 37 36 36 38 35 33 30 27 23 24 24 21 21 24 23 24 19 19 17 20 52 55 58
49 49 49 49 48 49 50 50 50 48 48 48 48 49 50 50 40 17 55 57 55 57 39 36 32 36 34 31 27 25 24 25 23 24 24 24 23 24 19 19 20 19 33 55 57
49 49 48 48 48 48 50 50 50 48 47 47 46 48 50 48 -10 22 57 56 57 55 38 28 24 23 25 30 30 25 24 25 25 24 23 22 23 23 20 20 23 22 37 55 55
48 48 48 48 48 48 50 50 50 48 47 46 46 47 47 36 24 25 51 53 53 42 32 33 25 21 20 23 28 28 27 27 27 26 24 24 22 22 20 21 22 24 26 54 55
48 47 47 47 47 48 50 50 50 49 49 47 46 46 45 29 17 22 24 25 41 43 39 36 30 27 25 25 24 28 28 28 28 28 26 23 23 22 23 24 23 27 26 45 54
47 48 48 47 46 46 49 50 49 49 49 47 47 43 41 30 23 29 34 28 24 37 36 33 36 33 33 29 30 28 27 27 26 26 25 25 23 21 23 25 24 25 25 25 43
46 47 48 48 48 48 49 49 49 48 49 48 46 44 37 39 40 40 36 31 31 30 27 25 23 25 27 28 29 27 28 25 26 26 25 23 21 24 26 25 24 26 25 25 26
46 47 48 48 48 48 48 48 48 48 49 45 45 43 35 42 39 40 37 31 29 27 22 17 19 20 24 27 25 26 23 24 26 27 25 24 22 24 25 27 24 25 25 23 25
46 46 47 48 48 47 47 46 46 47 43 43 45 39 37 28 36 37 34 34 29 26 25 13 15 15 25 24 19 21 25 25 24 25 25 24 23 24 25 24 26 25 24 25 30
45 45 45 47 46 47 45 37 34 34 35 32 33 38 36 37 35 36 34 31 24 24 23 18 11 10 13 24 21 22 25 24 25 25 24 23 22 22 22 23 28 27 25 25 31
45 45 45 46 46 46 38 32 32 35 33 35 33 32 32 33 29 26 30 25 19 16 24 25 16 12 14 16 22 25 24 24 25 25 25 23 22 22 23 26 28 26 28 25 46
45 45 45 45 46 40 37 34 37 38 33 30 29 27 28 28 27 21 26 22 17 16 20 19 24 25 13 12 10 12 18 22 23 24 22 20 18 18 22 28 29 30 30 26 44
44 44 45 46 36 38 32 38 39 39 28 23 27 26 21 25 23 19 19 14 12 8 12 20 20 24 17 10 10 7 11 13 16 19 16 21 14 20 25 25 27 29 29 28 43
44 44 44 44 40 36 35 40 38 39 12 14 19 23 19 19 14 21 15 14 2 10 14 4 29 26 24 26 11 10 13 13 13 13 13 12 22 19 27 27 27 26 28 29 43
44 43 43 41 37 39 41 39 37 24 11 15 16 16 18 20 17 22 14 14 13 8 16 5 19 27 28 28 23 16 15 16 18 16 14 14 19 15 21 25 28 28 28 28 38
43 43 42 42 35 38 40 36 22 15 12 7 10 15 18 24 25 16 19 16 15 13 12 12 14 16 18 14 17 18 18 16 18 20 15 20 23 19 25 26 30 34 34 32 34
43 44 41 40 40 40 37 31 12 13 11 14 13 19 22 24 27 31 25 18 20 18 15 11 5 13 16 14 14 16 18 19 14 18 19 24 22 22 28 35 36 37 36 38 40
42 37 36 37 39 39 33 12 15 18 30 26 17 18 19 21 24 29 32 33 32 30 18 18 14 17 14 12 14 14 17 17 18 25 23 24 27 27 34 36 37 38 39 38 49
39 34 34 37 41 37 30 19 20 25 24 20 14 25 19 22 24 22 32 32 32 35 35 27 24 24 27 16 15 15 18 16 22 15 16 20 24 23 29 34 38 38 39 41 39
34 29 31 39 39 34 19 22 24 23 23 19 19 18 23 22 25 24 32 33 34 32 34 29 27 26 28 24 20 15 17 22 20 22 16 16 19 28 29 37 38 38 41 43 43
34 18 33 38 26 29 25 26 29 25 25 25 24 22 28 22 19 24 32 30 36 35 32 31 28 24 25 32 31 29 17 17 21 21 23 21 19 36 36 40 41 43 45 44 42
30 30 35 36 22 21 29 29 26 25 25 25 23 24 28 21 16 18 21 26 30 33 31 32 28 23 25 29 31 26 24 30 27 27 23 22 23 39 38 38 41 44 47 44 45
31 23 25 36 34 27 26 25 25 27 27 29 26 25 24 17 20 17 16 21 26 32 33 33 29 28 23 25 30 24 21 30 29 23 25 23 27 37 39 39 41 43 45 45 45
32 26 27 16 24 27 28 26 24 26 29 30 26 26 25 19 20 22 25 25 25 34 32 31 27 29 28 24 28 29 22 21 29 30 25 24 21 31 38 37 41 43 45 45 45
28 27 33 27 27 24 23 21 23 21 28 27 28 27 26 24 25 26 28 27 25 28 28 33 29 30 27 27 24 27 27 23 24 30 32 33 19 33 40 39 39 42 46 45 46
35 34 32 24 24 21 22 24 22 25 27 28 27 27 26 26 31 30 30 30 29 28 25 28 30 28 21 26 24 20 25 23 25 28 32 30 32 38 37 37 39 41 43 44 45

GFSSW_sfc_dewp_108.txt.gz
Dewpoint
49 49 49 49 49 49 49 49 50 49 49 49 48 48 49 51 51 46 33 31 44 54 54 47 43 40 37 34 30 28 24 22 22 21 20 23 22 25 23 18 19 20 32 42 55
49 49 49 48 48 48 48 48 49 49 48 48 48 48 49 51 47 42 43 52 54 57 42 38 37 37 33 33 30 27 25 23 24 22 20 23 24 25 21 22 22 21 40 55 58
48 48 48 48 47 47 47 49 49 48 48 48 48 48 49 49 38 10 57 56 55 55 39 36 36 36 33 30 30 28 24 25 24 24 23 24 23 25 22 22 24 22 23 54 57
47 47 47 47 47 46 48 49 48 48 48 48 47 47 48 47 -9 27 53 56 55 55 43 29 30 32 31 29 30 24 25 26 26 25 26 24 24 23 23 22 25 25 26 51 55
47 48 48 47 46 46 47 48 48 47 48 48 48 47 45 32 17 18 46 39 51 44 34 30 24 24 20 21 26 28 27 26 26 25 25 25 25 24 23 25 24 24 25 45 54
46 47 47 47 46 46 46 48 48 48 48 48 48 47 43 26 12 22 32 30 28 42 39 34 29 25 22 21 24 27 28 26 27 28 28 28 28 26 25 23 23 27 27 26 52
46 46 47 47 46 46 47 48 48 48 48 49 49 44 41 24 26 34 36 30 25 26 22 35 36 33 32 30 30 29 27 27 28 27 26 26 24 23 25 26 25 25 26 26 36
46 46 47 47 47 48 48 47 47 48 48 49 47 43 34 37 39 39 39 36 34 32 25 29 30 29 30 27 23 27 26 25 27 27 27 25 23 26 26 25 25 26 26 27 27
45 45 46 47 48 48 47 47 47 47 46 46 43 41 29 36 36 38 40 34 34 30 28 24 21 19 23 23 22 24 21 24 25 26 25 24 23 24 26 26 25 25 26 27 26
45 45 45 46 47 47 47 45 45 43 41 43 44 36 32 29 37 34 35 36 28 26 23 16 15 14 21 22 13 20 23 25 24 25 26 25 24 25 25 25 24 24 25 27 27
45 45 45 46 46 47 39 34 32 31 34 31 28 31 30 28 29 29 33 28 26 23 21 15 10 10 11 19 16 19 22 22 25 26 24 24 24 24 24 23 23 23 26 27 27
44 45 45 45 45 43 37 32 34 35 32 34 33 32 32 32 29 24 26 19 24 17 23 24 14 12 10 16 21 22 20 19 25 26 25 24 23 24 23 22 23 23 24 27 29
44 44 44 44 44 39 36 34 38 38 32 29 29 28 28 29 28 25 25 25 19 17 18 16 20 22 16 14 14 17 19 21 22 24 24 22 18 14 17 21 23 25 28 30 30
44 44 44 44 37 38 30 39 38 38 26 22 28 25 22 26 24 25 21 20 19 15 17 16 16 18 21 17 12 10 15 18 19 18 14 19 11 14 18 19 27 28 28 29 30
43 43 43 43 37 35 35 39 36 37 3 15 18 23 16 19 17 18 17 16 9 10 14 12 18 16 16 18 12 11 13 13 13 16 13 12 10 12 20 23 21 25 29 32 30
42 43 43 38 37 37 39 39 35 19 6 12 15 18 17 19 23 24 14 14 14 7 7 3 18 21 16 18 16 15 14 14 15 15 12 12 12 12 14 16 27 35 37 41 40
42 43 41 41 34 37 39 33 13 10 10 12 20 22 20 19 24 28 27 13 12 9 5 1 8 13 17 15 24 19 18 17 17 14 13 14 15 13 20 24 34 37 39 40 47
42 42 39 39 38 38 35 21 5 8 12 23 24 21 19 22 27 27 31 25 18 18 12 5 3 10 14 16 16 21 21 19 14 18 17 22 16 21 24 32 37 40 41 42 42
42 36 34 36 38 37 26 7 14 15 22 23 21 16 20 18 23 31 25 32 34 33 24 15 9 14 12 14 15 16 16 20 16 23 20 20 25 27 33 35 38 40 42 42 44
35 32 31 37 39 35 24 19 19 24 21 23 19 19 15 18 24 28 28 32 32 34 36 27 23 26 22 13 15 16 19 17 19 13 12 17 23 23 32 34 38 40 41 42 44
32 26 30 38 37 29 17 20 22 24 23 26 21 21 21 19 28 27 27 32 29 32 38 32 26 25 30 21 13 14 17 18 20 21 15 14 18 27 27 35 40 42 42 43 43
30 17 34 36 23 27 23 25 28 27 27 25 27 24 24 28 28 27 27 27 27 31 33 33 29 23 24 34 33 25 18 18 19 17 22 19 17 37 39 40 41 41 45 44 43
27 27 34 35 20 18 26 27 28 26 25 26 26 25 26 25 24 21 27 25 24 30 32 34 28 23 25 29 32 26 25 29 20 25 22 21 20 37 40 41 42 44 45 45 42
27 18 24 36 33 27 20 24 24 27 28 27 28 28 27 24 22 20 23 25 30 30 35 35 32 26 23 25 27 30 24 23 24 19 18 23 31 36 39 40 41 43 45 46 45
28 19 28 20 22 26 24 25 22 22 28 31 27 26 27 25 22 23 26 27 27 32 32 32 28 29 25 26 27 30 33 27 29 27 21 26 23 27 39 41 42 44 45 45 45
28 24 29 27 26 25 21 19 22 21 24 26 25 25 26 26 25 24 25 26 25 29 27 32 26 30 24 21 19 28 30 32 27 30 32 30 30 39 40 42 44 46 45 44 45
31 32 28 23 24 21 21 23 22 25 25 27 27 26 26 26 28 29 30 28 28 27 27 27 29 26 19 25 23 23 27 27 28 28 30 25 33 38 39 41 43 43 44 44 45

GFSSW_sfc_dewp_114.txt.gz
Dewpoint
47 47 47 48 48 47 47 47 47 47 47 47 47 49 50 50 49 32 20 29 36 54 52 40 40 34 33 28 29 26 18 13 11 9 10 16 15 21 23 21 22 23 26 29 39
47 47 47 47 47 47 47 46 47 47 47 47 47 48 50 51 39 27 44 54 55 53 33 31 30 33 28 28 28 23 18 15 12 12 11 14 15 16 20 21 21 22 28 28 35
47 47 47 47 47 46 46 46 47 47 47 47 48 49 50 47 28 10 51 54 54 50 37 30 29 30 24 26 27 24 21 20 16 16 15 14 15 15 17 15 21 23 23 26 29
46 46 47 46 47 47 46 48 47 47 47 48 48 49 50 39 -19 35 47 49 54 45 38 31 31 25 22 20 24 24 23 23 20 20 21 19 18 18 17 17 19 22 25 27 30
46 46 46 46 47 47 47 47 47 47 48 48 49 49 40 12 -3 18 45 38 28 42 34 24 23 26 24 24 25 26 24 22 24 23 22 22 21 21 20 19 21 23 26 27 28
45 45 46 46 47 47 47 48 48 47 47 49 49 47 35 5 10 20 18 18 11 8 24 30 21 20 22 23 22 22 23 24 24 23 22 22 23 22 22 24 25 26 26 24 27
45 45 46 46 47 47 46 48 48 47 49 49 49 42 35 17 21 29 36 35 35 33 20 19 28 26 27 24 23 22 21 22 22 23 22 23 24 24 26 26 25 25 27 28 28
44 45 45 46 46 46 47 47 47 47 47 49 49 40 22 24 29 36 35 31 28 33 34 30 16 17 16 21 26 21 21 20 22 23 24 22 22 24 26 27 27 29 30 30 29
44 44 45 45 45 47 46 45 48 47 48 48 42 35 19 35 19 21 24 22 20 27 31 28 25 15 15 16 14 15 11 11 15 24 24 26 22 23 26 26 26 27 28 28 28
43 44 45 44 45 46 45 42 41 40 36 39 39 21 17 20 24 26 23 23 22 21 20 24 22 13 8 7 5 8 9 11 12 12 18 21 22 23 25 26 27 28 28 29 29
44 44 44 44 44 44 37 29 20 23 25 23 24 26 23 25 27 24 24 22 20 21 12 15 13 2 -2 4 4 7 7 7 8 12 21 20 19 20 22 24 26 27 28 28 29
43 43 44 43 43 42 33 30 31 33 26 24 26 28 27 24 17 18 16 17 19 14 9 7 10 6 -1 -1 1 8 8 7 6 6 15 15 12 13 15 19 24 25 25 25 25
42 43 44 43 41 37 32 34 36 36 25 16 21 25 18 13 8 17 13 15 16 13 13 8 2 2 5 10 7 8 7 6 6 8 10 12 11 12 13 14 16 18 19 19 22
42 42 43 43 34 34 28 35 36 40 11 5 12 18 12 13 10 19 15 22 19 13 12 11 6 2 2 11 8 7 6 8 9 9 7 11 5 6 12 12 13 17 21 26 31
42 42 43 41 35 26 33 37 38 40 -17 3 7 13 14 15 16 18 19 22 21 18 15 13 9 8 7 3 9 9 9 12 14 13 12 9 8 6 7 7 15 19 29 38 41
41 42 41 36 38 36 38 40 36 9 -11 -0 6 13 15 16 17 17 14 23 25 22 18 15 15 12 11 8 5 12 15 14 13 12 10 9 9 3 4 14 16 34 38 42 43
41 41 37 39 33 40 40 30 6 -8 -0 1 10 15 16 13 14 12 19 24 28 26 19 18 9 10 12 11 10 10 13 5 6 8 4 4 7 8 9 22 27 36 41 42 44
42 38 39 37 39 42 35 26 0 2 5 11 15 16 13 12 14 18 18 24 20 27 25 22 13 10 10 11 6 9 11 5 -1 2 4 10 10 9 13 20 37 40 41 43 46
38 37 38 40 41 42 27 22 2 9 13 19 17 11 9 13 17 20 21 27 29 32 27 24 22 14 13 9 7 8 9 9 4 5 9 6 13 11 20 17 37 40 41 44 47
33 37 37 41 44 37 30 13 13 17 19 19 16 16 14 15 18 23 25 26 24 24 32 31 23 20 22 7 8 6 8 6 4 2 -0 -2 7 11 22 29 37 40 41 44 48
35 31 38 44 42 33 25 15 19 22 23 21 18 18 17 19 21 24 29 28 20 22 24 33 31 22 20 7 3 11 15 10 5 8 1 3 7 18 28 34 38 40 41 44 47
35 31 40 42 29 27 21 22 25 22 24 24 25 24 23 24 23 22 29 24 22 23 25 33 32 25 22 29 26 8 14 15 11 8 9 9 7 32 32 36 40 40 41 43 45
30 26 39 38 27 21 23 23 24 20 19 24 23 25 27 23 22 19 20 22 22 25 29 30 29 19 20 27 34 30 11 16 19 13 12 14 9 36 38 38 41 41 42 41 43
32 29 28 36 33 19 24 22 19 19 20 24 24 26 22 21 21 20 20 22 25 24 31 29 33 29 22 29 29 31 32 27 14 16 13 11 12 33 35 38 41 42 44 42 42
34 28 28 29 29 24 24 21 18 16 19 19 23 21 22 21 20 16 20 22 22 24 25 27 24 30 27 26 20 26 31 32 27 17 15 12 9 21 32 38 42 43 43 43 43
33 26 27 22 26 26 24 18 16 17 19 17 20 20 20 21 22 21 22 22 22 23 24 26 23 24 20 24 22 19 28 27 29 29 20 18 13 17 31 39 41 41 42 43 42
35 33 29 24 23 22 18 15 17 19 18 22 23 19 20 22 25 25 27 27 27 27 27 27 23 19 16 18 23 22 28 25 24 26 28 26 25 36 35 39 42 42 43 42 41

GFSSW_sfc_dewp_117.txt.gz
Dewpoint
47 47 48 48 48 47 47 47 47 48 48 48 48 49 49 51 50 32 17 40 42 53 50 26 31 29 31 29 27 25 22 18 15 14 12 10 10 14 12 13 20 22 26 31 37
47 47 47 47 47 47 47 47 48 48 48 48 48 49 50 51 41 22 48 55 57 52 33 28 24 26 27 28 26 25 23 21 18 15 12 12 11 13 14 17 17 22 27 27 30
47 46 47 47 47 47 48 48 48 48 48 48 49 49 51 49 32 27 50 51 54 48 33 29 26 23 26 26 26 26 24 23 20 19 16 14 13 12 11 14 17 20 24 27 27
46 46 46 47 47 47 48 49 48 48 48 48 49 50 51 41 -6 31 48 49 48 41 28 20 25 25 23 22 24 24 25 25 24 22 21 19 19 18 14 14 14 17 22 25 27
46 46 46 47 47 47 47 49 48 48 49 49 49 50 45 19 4 12 45 40 8 10 22 22 17 19 23 23 22 22 23 24 25 24 23 23 21 22 21 19 19 16 18 21 25
45 45 46 46 47 47 46 48 48 47 49 50 50 50 38 12 11 18 26 25 20 21 10 2 20 17 16 16 19 23 23 23 25 25 24 24 24 23 23 23 23 23 21 21 23
45 44 46 46 46 46 46 48 48 47 50 49 49 44 33 22 23 32 27 23 31 26 29 28 11 19 21 18 20 19 20 21 22 22 23 24 22 23 25 26 25 23 25 24 21
44 45 46 46 46 45 46 47 47 48 48 49 49 38 22 21 22 20 21 19 16 17 23 31 30 17 17 17 14 12 20 20 21 22 22 22 21 24 25 25 25 26 27 26 26
43 45 45 45 46 47 47 47 46 46 47 48 45 32 19 33 19 21 19 20 20 19 18 26 26 23 14 12 9 6 3 9 14 16 20 23 22 22 23 25 25 27 28 28 29
43 44 45 44 46 47 46 46 41 44 43 35 33 18 19 19 21 21 17 14 18 21 18 17 21 16 11 5 1 0 4 5 9 11 12 18 20 22 23 23 26 26 26 27 28
44 44 44 44 44 46 41 31 20 31 19 17 19 21 19 15 20 9 14 10 16 15 13 13 7 9 1 3 2 -0 1 1 8 8 10 12 13 14 20 21 24 25 26 28 30
43 43 44 44 44 44 35 24 25 30 19 20 23 24 22 14 6 2 12 11 12 10 12 11 7 4 -2 3 -1 -5 -2 3 1 1 5 6 11 18 17 16 19 22 24 26 28
43 43 43 43 42 39 31 30 33 33 26 11 18 16 12 11 9 9 13 14 12 13 11 8 7 6 5 2 1 1 -1 -0 -1 -0 3 7 5 7 9 12 12 13 17 21 24
42 43 43 43 37 31 29 30 33 39 22 6 8 14 8 10 8 10 17 14 15 14 11 12 11 8 5 3 1 3 1 1 -3 0 -1 6 2 3 6 8 11 13 17 18 19
42 42 43 42 33 23 30 34 36 39 6 3 2 7 7 8 10 10 13 12 15 18 20 16 14 10 7 6 4 -1 3 7 5 4 6 1 -4 1 5 7 11 14 16 20 27
41 42 42 37 37 33 35 37 37 26 0 1 2 7 7 8 7 9 11 17 22 19 16 14 15 17 12 10 9 10 5 6 11 9 7 7 1 -2 1 8 12 19 22 30 37
41 42 38 36 33 38 40 32 17 1 -2 -0 6 8 10 8 8 9 12 11 18 17 15 15 14 13 14 11 11 10 10 4 9 9 8 4 2 4 6 6 12 26 35 39 41
42 39 39 35 38 41 36 28 17 1 0 9 10 10 5 6 10 11 11 12 15 22 21 14 15 14 24 21 10 9 9 7 5 5 4 -1 -1 0 5 7 19 31 37 40 42
40 39 39 40 42 40 29 28 8 7 14 16 12 6 4 8 11 12 16 21 20 23 27 23 18 21 20 20 20 8 7 7 10 7 6 -1 0 6 8 11 30 35 37 41 44
34 34 35 41 44 39 29 12 9 13 15 16 12 11 10 10 13 16 19 23 20 19 24 28 24 20 21 30 25 10 6 7 9 6 3 -2 3 3 10 15 28 32 37 43 47
35 30 37 42 42 31 30 14 14 18 19 18 14 14 14 15 17 18 22 24 17 16 21 27 31 21 27 26 16 7 6 4 7 8 4 2 1 9 10 16 23 32 39 43 46
34 33 37 39 29 25 19 16 23 18 21 20 22 20 19 19 18 18 24 18 18 20 20 32 31 23 21 27 32 26 7 6 5 6 5 4 2 21 17 25 28 38 40 44 45
27 28 37 37 32 20 21 17 18 17 16 17 18 19 22 19 16 17 17 17 17 19 23 27 25 21 17 26 28 27 16 7 10 8 5 9 5 26 24 32 38 40 40 42 43
30 33 28 32 29 28 22 19 17 19 17 17 19 21 20 17 17 17 16 16 21 20 30 28 28 26 23 27 26 30 30 17 14 16 7 6 5 33 25 25 39 39 40 41 41
34 31 27 29 31 23 23 18 17 16 18 20 16 18 19 16 15 14 16 18 18 24 22 25 24 25 20 16 21 25 30 23 23 25 17 13 7 21 28 32 38 40 40 40 42
35 25 26 23 25 24 24 17 16 13 17 16 16 15 17 16 16 16 19 20 19 22 23 26 23 21 18 21 21 26 32 30 22 19 16 15 16 17 32 35 36 39 40 42 41
30 30 26 23 23 23 20 18 15 15 18 16 17 18 18 17 20 23 24 23 23 25 25 27 26 22 15 17 24 28 28 28 30 32 23 23 22 34 24 38 39 41 43 42 40

GFSSW_sfc_dewp_120.txt.gz
Dewpoint
47 47 48 48 48 48 48 48 48 49 49 49 49 49 50 51 51 37 30 41 47 58 52 28 22 25 26 27 29 28 24 20 19 17 16 15 14 11 12 11 9 20 26 36 42
47 47 47 47 48 48 48 48 49 48 48 49 49 50 50 52 45 30 44 52 54 57 35 26 25 23 24 26 27 27 25 23 23 23 20 16 13 12 11 11 11 20 27 28 34
47 47 47 47 47 48 48 48 48 48 48 49 50 50 52 50 39 30 45 49 50 50 29 22 23 23 21 22 25 26 25 25 24 25 24 22 18 14 12 11 17 17 24 25 31
47 46 46 47 47 47 47 49 47 47 47 49 50 50 52 46 10 19 44 48 52 31 32 24 17 16 22 21 20 23 25 25 25 25 25 24 23 19 16 16 16 18 22 24 29
46 46 46 47 47 47 47 48 47 46 47 50 51 52 46 30 7 13 51 45 27 5 3 2 6 15 11 11 18 21 20 20 22 24 25 26 24 24 22 22 22 20 19 18 28
46 45 46 47 47 46 46 47 48 47 48 51 50 51 44 20 14 29 25 20 25 24 22 22 13 3 10 13 11 14 15 18 21 23 24 24 26 24 24 25 24 26 24 20 21
45 45 46 47 46 46 46 47 47 47 49 50 50 44 35 20 22 18 18 17 16 18 17 18 26 24 9 11 15 14 15 16 15 20 22 23 22 24 25 27 27 25 26 25 23
44 45 46 46 46 46 47 48 47 48 49 49 50 44 26 20 23 17 17 16 16 16 16 15 21 25 20 14 11 10 7 7 7 14 19 21 20 23 25 25 24 27 27 26 25
43 45 46 45 47 47 47 48 47 47 48 48 45 34 21 32 17 17 18 11 9 17 20 10 21 21 17 11 7 4 3 -1 -0 4 3 15 20 22 23 24 25 27 27 27 28
44 45 45 45 46 47 47 47 46 45 45 36 31 21 20 17 11 17 11 13 10 15 12 16 17 14 14 8 5 -1 0 4 4 4 9 9 13 17 22 22 25 25 27 29 29
44 44 44 44 45 46 44 34 26 34 19 15 15 16 14 16 8 4 8 11 10 10 7 10 8 7 3 8 6 4 3 -0 1 3 5 11 11 12 14 19 22 24 27 28 30
43 43 44 44 44 46 40 23 26 29 22 18 21 21 19 13 7 7 10 12 13 10 11 10 8 6 5 4 0 -1 -0 2 1 -2 2 3 3 10 10 13 20 22 23 27 28
42 43 43 44 44 41 30 28 30 32 29 14 14 12 6 7 7 6 15 13 10 9 10 11 11 11 8 8 5 5 4 3 2 -0 -1 3 6 6 7 10 13 17 15 16 25
42 43 43 44 40 32 31 28 32 38 26 11 14 16 6 6 8 7 14 10 9 10 16 16 14 14 15 12 9 7 6 3 -0 1 -4 -0 1 4 4 7 10 11 14 17 17
42 42 43 43 40 26 30 33 34 40 14 5 3 4 4 4 6 5 8 9 8 16 16 13 11 9 10 8 9 12 12 7 3 2 5 -0 -4 -0 4 4 5 9 15 18 19
41 42 43 39 41 33 35 37 37 31 13 5 0 3 4 6 6 7 9 11 10 16 15 11 12 11 10 15 21 21 16 10 11 8 3 5 2 -1 0 3 2 10 17 20 27
41 42 40 37 36 37 40 37 23 18 -2 -0 3 4 6 5 5 8 8 9 12 21 18 12 11 12 15 17 19 20 21 9 9 9 5 5 4 7 8 4 5 16 32 37 41
41 42 42 34 38 41 39 32 22 2 -4 9 4 5 5 3 7 8 9 10 12 21 16 12 13 13 17 19 22 29 22 12 7 7 4 5 3 5 9 6 7 30 37 39 41
41 40 40 42 42 41 35 30 13 6 12 10 7 4 2 5 8 10 12 17 18 18 23 19 13 17 18 18 21 27 16 14 12 12 10 5 4 7 6 5 6 34 37 39 44
37 35 35 41 43 41 33 24 9 10 9 11 9 8 7 8 11 13 14 18 17 19 25 19 20 18 18 22 26 27 23 16 11 7 5 5 7 3 4 5 13 34 37 44 48
37 31 40 40 41 36 31 18 12 14 13 14 11 11 12 12 13 14 16 17 17 14 17 22 25 19 22 29 30 31 30 20 14 8 6 9 11 11 17 11 27 33 40 45 47
36 34 39 39 32 29 25 14 21 15 19 17 18 17 16 15 15 14 18 14 14 20 16 23 27 19 18 30 27 23 27 27 10 7 9 10 9 12 25 25 29 30 39 45 48
28 29 38 38 32 25 20 17 13 14 14 15 16 16 17 16 15 13 13 13 17 18 21 23 19 20 15 19 21 20 20 24 27 25 12 15 11 10 19 37 25 39 45 47 44
33 33 29 29 28 28 24 19 16 16 15 14 14 16 16 17 16 13 11 12 15 16 28 27 25 24 20 23 23 22 24 29 30 23 13 8 7 6 23 36 45 46 47 50 44
35 32 27 30 31 25 23 16 16 15 16 15 16 14 15 15 16 11 12 12 16 23 20 22 23 25 21 17 16 22 22 30 27 22 26 17 8 12 31 38 45 43 46 43 41
36 28 25 24 25 25 24 19 16 14 14 15 13 13 13 13 14 12 13 17 18 18 19 23 23 23 20 18 15 16 28 34 26 22 21 22 19 32 29 40 42 43 45 43 41
31 29 30 26 22 23 20 19 15 15 14 16 14 14 14 15 17 18 21 21 20 20 23 24 24 23 20 16 18 24 32 29 34 34 33 28 27 35 41 42 41 40 45 41 39

GFSSW_sfc_dewp_126.txt.gz
Dewpoint
47 48 48 48 48 48 49 48 48 48 48 48 49 50 51 52 52 46 34 36 41 54 54 34 30 28 26 28 27 28 25 25 25 24 25 26 25 26 27 24 25 14 27 37 50
47 48 48 48 48 48 48 48 48 48 48 48 49 51 52 53 47 22 39 50 53 54 33 32 30 26 21 24 24 23 25 25 27 26 26 27 27 27 25 25 25 23 45 49 51
48 47 47 48 48 48 48 48 48 48 48 48 50 52 54 53 39 28 47 52 53 52 30 33 35 29 16 21 22 23 23 25 26 27 27 27 27 28 25 24 28 24 24 37 47
47 47 47 47 48 48 47 48 48 48 48 48 50 52 53 49 26 19 49 53 55 46 28 20 17 6 6 3 14 14 17 21 23 25 26 25 24 23 23 24 28 28 25 25 30
47 47 47 47 48 47 47 47 48 47 48 49 51 52 48 37 14 22 50 43 30 19 17 18 21 22 20 21 10 6 13 12 13 13 15 16 16 21 20 23 27 28 28 25 24
46 46 46 47 47 47 47 48 48 48 49 49 51 53 46 19 17 19 18 18 16 16 15 15 16 15 22 22 18 11 13 10 10 10 12 14 15 17 16 21 25 27 27 27 28
45 46 46 47 47 47 46 47 48 48 48 49 51 48 41 21 20 20 17 18 16 17 16 16 18 15 19 23 24 18 13 12 3 7 12 13 11 15 17 17 21 24 24 24 27
44 45 45 47 47 46 47 48 48 48 49 49 50 46 32 25 25 13 17 18 14 14 15 16 19 17 18 23 21 18 13 5 -1 5 6 9 3 7 10 17 19 21 22 22 23
44 43 46 47 47 47 48 48 48 49 49 50 44 44 27 34 12 11 19 18 15 14 17 16 14 13 20 18 13 11 7 5 6 5 4 5 3 4 5 8 16 20 17 20 23
43 44 45 45 47 47 47 48 47 45 44 39 38 30 25 18 16 16 12 16 17 18 14 14 17 18 14 12 9 10 9 8 7 7 7 5 3 3 3 2 4 11 14 17 21
42 44 44 45 45 46 45 38 24 35 32 18 18 18 18 19 16 10 17 17 16 14 10 13 10 9 10 12 13 13 12 12 13 13 10 8 9 7 5 2 0 2 11 13 19
42 42 43 44 44 46 44 29 30 29 21 26 21 23 23 19 12 9 19 15 13 8 12 13 12 16 13 12 11 10 9 8 9 12 14 12 11 11 9 5 3 0 6 12 13
43 41 43 44 44 42 29 28 34 34 28 28 21 19 13 13 10 9 17 18 10 9 9 10 15 16 13 13 11 10 9 10 14 17 17 15 12 10 9 8 4 1 1 7 8
43 42 43 44 42 39 31 33 36 38 23 16 17 16 11 10 11 7 15 9 12 8 10 16 18 16 14 12 11 9 17 17 16 16 14 16 13 15 13 12 9 2 2 6 7
43 41 42 42 38 33 33 35 35 40 14 18 16 10 8 7 8 11 10 12 10 9 12 13 18 16 13 11 14 14 16 17 19 20 18 15 12 12 12 9 7 2 2 6 7
41 40 42 42 41 38 37 39 38 24 14 12 6 8 8 10 9 11 10 15 19 19 19 18 19 17 16 15 14 14 18 19 19 22 18 16 14 12 10 10 9 4 3 6 6
41 40 39 39 37 39 40 38 27 19 9 3 5 8 9 9 9 11 12 13 17 16 15 15 17 19 17 14 16 18 19 18 14 14 11 12 11 11 11 11 10 8 7 8 9
41 41 40 39 40 41 40 33 22 20 8 10 8 7 7 8 10 15 13 14 18 20 19 18 13 16 17 16 16 17 25 23 16 15 16 21 13 8 10 10 10 8 8 38 51
39 38 39 42 41 42 36 26 17 15 17 12 8 8 11 14 13 15 16 21 19 21 17 19 16 17 15 16 19 27 24 27 27 28 22 18 13 12 12 13 13 13 12 51 51
38 39 40 40 41 41 33 27 20 12 10 14 13 13 10 13 15 16 18 20 19 22 26 20 15 14 18 17 23 26 23 24 24 19 16 10 10 11 12 13 16 26 32 45 50
37 35 39 40 41 37 27 27 16 13 15 15 16 16 15 16 16 16 19 19 20 21 23 21 22 17 20 20 15 19 24 24 28 25 21 17 11 30 31 39 44 46 41 43 49
36 32 39 39 31 34 28 28 23 17 20 19 21 20 17 19 17 17 19 18 22 23 19 23 21 17 14 18 20 19 19 23 24 20 24 25 17 28 30 42 42 43 47 48 47
34 35 38 39 26 28 29 17 15 18 18 20 21 23 21 17 15 20 19 21 20 21 19 20 17 16 10 17 21 19 21 22 26 26 24 21 20 28 33 41 43 42 44 46 45
36 29 30 29 31 29 28 22 17 21 17 17 16 17 17 17 20 20 21 21 23 21 32 25 23 16 13 17 20 20 23 27 32 27 24 25 24 31 37 39 42 42 43 47 45
35 30 29 25 27 28 27 25 20 19 18 17 17 15 18 15 16 17 19 20 20 23 21 21 17 18 16 17 19 21 29 29 31 30 26 28 30 35 38 41 41 41 40 40 43
31 29 30 29 31 28 29 23 22 19 19 19 16 18 16 15 17 15 19 19 18 21 20 20 17 19 18 18 20 21 27 28 32 30 26 26 28 34 40 40 40 39 39 39 39
33 32 31 28 25 26 25 21 20 20 21 20 18 16 17 20 20 21 22 21 20 19 17 20 20 19 15 18 20 26 28 26 31 30 31 26 31 35 39 39 40 41 40 40 39

GFSSW_sfc_dewp_132.txt.gz
Dewpoint
48 48 49 48 48 49 49 49 48 48 48 49 50 51 52 52 52 44 13 31 35 53 50 27 21 27 25 27 29 30 27 27 29 27 28 28 28 29 29 27 28 28 30 30 48
48 48 49 48 48 48 48 48 48 48 48 49 50 51 52 53 46 25 37 48 53 53 18 22 15 26 18 25 24 24 26 27 28 28 27 28 26 25 25 24 26 27 32 30 52
48 48 48 48 47 48 48 48 48 48 49 49 50 51 53 51 36 22 48 50 53 54 26 25 24 19 15 6 21 28 21 24 21 23 15 19 19 21 23 21 22 19 26 24 30
48 48 48 48 47 48 48 47 47 47 49 49 50 51 53 46 15 18 55 54 56 37 21 19 20 19 11 7 17 14 14 14 13 15 12 9 14 16 13 12 19 23 19 23 29
49 49 48 47 46 47 48 47 47 48 48 49 50 52 47 32 14 19 48 40 17 17 15 15 15 18 17 20 18 12 13 16 15 16 10 10 8 10 8 11 16 19 22 27 28
49 49 48 47 46 47 47 46 47 48 48 49 50 52 42 13 18 20 16 17 17 15 13 13 15 14 14 20 17 18 18 19 15 10 7 8 10 10 8 9 10 13 13 16 23
50 49 47 46 46 47 46 46 47 48 49 49 50 47 39 9 19 19 18 17 18 14 12 14 16 14 17 12 21 21 15 11 10 9 7 11 3 5 11 12 13 12 11 10 8
50 49 47 45 46 47 46 46 47 48 50 50 48 45 25 36 24 10 15 15 17 16 15 16 16 16 15 19 15 12 10 10 12 12 11 10 6 10 11 10 9 13 12 12 12
50 48 47 46 46 46 46 47 48 48 50 49 44 40 23 34 15 13 16 14 15 18 17 18 17 18 15 13 10 12 9 9 10 11 9 7 4 3 9 12 12 13 13 12 12
50 48 46 46 45 47 48 47 46 46 45 40 38 25 29 19 17 16 15 16 14 18 13 14 15 14 13 11 6 9 9 10 10 10 9 8 9 10 13 15 15 15 14 13 12
50 47 45 45 45 46 44 29 21 23 31 20 24 23 17 18 17 12 17 15 12 12 9 14 14 12 11 13 12 12 11 10 9 9 11 11 14 15 14 14 14 15 16 15 14
50 47 45 44 44 45 37 25 27 27 16 20 24 21 22 16 9 10 18 10 11 8 10 13 14 15 14 14 12 11 10 9 10 13 13 12 11 11 13 14 15 15 14 15 14
49 47 45 44 43 37 28 28 34 31 12 19 24 21 22 14 8 6 15 12 8 8 8 10 15 17 14 12 12 12 11 11 12 14 13 12 10 8 12 16 17 17 17 17 15
48 46 46 44 37 35 29 33 37 34 9 9 19 19 10 11 10 7 14 8 11 7 13 16 19 15 14 12 14 11 14 15 14 13 10 15 11 13 15 16 17 22 24 17 16
47 46 45 42 34 32 30 33 39 32 -3 16 17 13 10 8 9 10 15 12 10 12 10 14 16 14 14 14 15 12 17 17 14 15 16 16 14 16 16 16 17 32 38 31 17
47 45 44 41 38 35 37 37 38 10 1 17 11 9 8 10 9 14 15 20 21 18 16 15 17 17 15 16 16 16 17 17 21 19 14 16 15 13 16 17 25 36 40 42 42
46 44 42 42 38 38 39 37 10 5 13 7 8 11 8 8 11 12 16 16 10 9 12 16 17 18 18 15 16 17 20 14 11 9 7 12 16 17 22 19 34 36 39 39 44
46 44 43 39 39 39 39 31 13 13 14 9 10 8 7 10 14 15 14 15 18 17 16 12 10 15 17 14 13 22 22 14 4 10 10 17 17 20 18 27 33 39 37 43 44
43 41 41 41 42 41 35 22 6 17 13 10 7 5 10 16 15 15 16 18 17 21 16 16 14 18 15 17 16 17 17 21 14 20 18 16 15 15 30 33 38 39 38 42 46
37 37 38 44 43 40 32 14 18 17 13 13 10 13 12 14 14 16 17 20 18 23 23 19 14 15 16 19 18 20 20 15 22 13 10 11 12 18 30 33 35 37 41 42 43
38 34 41 41 41 35 25 23 20 18 17 15 16 15 15 15 16 16 18 20 19 22 21 21 18 14 17 16 13 17 17 21 23 22 17 15 14 26 30 32 35 39 41 41 41
38 31 42 41 31 32 27 26 24 19 22 20 21 18 19 19 17 19 19 19 21 21 15 22 22 15 11 17 19 18 17 21 19 15 23 23 18 25 26 32 35 39 40 39 38
35 35 40 39 27 28 28 25 21 18 19 19 21 23 22 19 16 19 20 22 18 18 18 21 16 10 5 9 12 15 15 17 21 26 22 19 17 24 29 34 36 39 39 39 38
35 30 33 35 32 28 26 19 19 22 20 19 20 20 18 17 20 20 21 23 23 24 29 24 20 8 1 4 16 16 16 17 26 22 24 21 24 25 29 32 39 39 38 37 36
35 29 29 25 25 30 25 23 19 18 20 18 16 19 19 16 17 17 18 18 20 27 21 17 12 19 18 17 17 16 17 25 19 25 24 24 24 28 32 32 35 35 33 33 34
32 29 32 22 29 28 28 22 21 21 21 19 18 20 19 16 17 15 17 16 15 19 17 19 9 16 16 16 16 17 27 25 25 28 24 24 22 31 35 33 31 33 33 31 31
34 32 30 28 27 26 24 24 22 23 25 22 20 20 19 19 19 19 18 18 18 18 16 17 17 18 15 18 19 19 23 23 20 27 27 22 28 33 33 31 31 32 32 31 28

GFSSW_sfc_dewp_135.txt.gz
Dewpoint
49 48 48 49 48 48 49 49 48 48 48 49 50 51 52 53 53 44 13 25 32 53 48 21 18 26 25 28 31 31 31 28 28 29 28 28 22 25 24 25 21 24 29 26 29
50 48 48 48 48 48 48 48 48 48 49 49 50 51 52 54 47 22 38 52 55 53 21 20 18 22 19 23 25 28 29 28 30 29 24 21 15 15 14 15 15 17 19 25 22
50 49 48 48 48 48 48 48 48 48 49 50 50 51 53 52 36 21 50 52 55 47 25 22 22 12 15 9 21 24 22 25 20 20 14 10 7 8 5 -0 7 12 18 19 23
51 49 49 48 47 47 48 48 47 48 49 50 50 51 54 46 -1 19 54 52 52 34 18 19 22 19 15 10 21 13 15 14 13 14 14 10 9 8 10 6 12 15 18 16 16
52 50 49 48 47 46 47 48 47 48 49 50 50 52 47 24 21 18 46 40 17 16 14 16 16 19 15 18 17 16 12 15 17 14 9 11 10 9 7 10 14 15 13 12 13
52 51 50 48 47 46 47 47 47 47 49 49 50 52 40 -1 18 20 16 17 16 13 11 12 13 13 15 18 12 18 18 19 13 11 10 10 10 10 10 13 12 10 8 9 13
52 51 50 48 47 46 47 47 47 47 49 50 50 47 36 9 19 19 18 18 17 13 11 12 16 13 16 11 19 20 14 11 9 13 11 9 1 5 9 11 10 12 13 14 14
53 52 51 49 47 46 47 48 47 47 49 50 49 45 21 35 24 10 14 14 16 15 14 14 19 19 19 19 14 12 12 4 10 13 11 6 -8 8 6 9 10 13 15 17 18
53 52 50 49 47 47 47 48 48 48 49 49 45 40 17 36 14 13 14 12 15 17 21 18 22 19 16 12 8 11 6 9 10 12 11 7 3 5 7 12 13 14 16 17 18
53 52 50 48 48 48 47 46 47 46 45 41 38 28 23 19 17 15 14 16 15 15 15 17 17 14 14 8 -5 9 10 10 9 9 9 9 8 7 9 12 14 15 16 18 19
53 52 50 48 48 47 45 35 25 25 34 18 22 18 18 17 15 13 16 14 13 15 10 16 12 11 13 14 13 12 10 7 7 9 10 9 8 9 12 13 13 15 17 19 26
53 51 50 48 47 46 43 23 23 25 14 21 26 24 21 14 9 11 16 10 13 9 11 15 14 15 14 13 10 8 6 7 10 12 11 9 10 12 12 13 15 17 22 33 33
53 52 49 48 47 44 33 28 34 28 12 9 23 21 20 14 9 9 15 11 10 9 9 12 16 15 12 13 10 9 9 10 10 12 14 14 6 12 11 15 17 20 32 35 36
52 51 49 47 41 35 30 34 36 32 1 4 20 20 17 13 8 8 13 10 10 11 17 17 17 13 13 12 13 8 11 12 13 12 7 16 6 10 13 12 17 22 32 36 38
52 50 48 45 36 30 31 37 41 31 -8 16 17 12 9 7 10 12 17 15 10 12 11 13 15 14 12 11 15 10 15 15 15 14 15 15 14 11 9 14 20 30 35 38 39
51 49 46 44 43 37 34 40 37 9 -7 15 11 8 7 7 9 15 17 21 21 16 16 16 17 16 13 16 15 16 17 18 19 19 12 13 14 8 11 21 32 34 37 40 42
50 48 44 45 40 43 40 37 13 3 13 9 10 8 9 8 11 14 15 15 10 11 9 14 16 18 17 12 15 17 18 6 2 5 -2 12 11 12 21 30 31 34 37 40 43
48 46 43 45 46 46 44 32 15 10 13 8 10 9 7 10 13 14 15 14 17 17 15 7 6 15 16 13 11 19 21 13 4 5 6 15 13 11 25 26 30 33 39 40 40
47 43 42 43 46 45 34 21 16 14 14 10 7 6 10 14 14 14 15 19 19 21 19 14 10 17 15 17 16 15 15 20 19 18 16 13 13 16 24 26 30 34 38 38 38
41 39 39 44 45 41 31 18 13 18 12 9 8 10 10 13 14 16 18 19 18 21 25 18 11 14 16 18 17 19 19 17 19 13 10 9 11 19 23 27 30 36 38 36 35
38 32 40 46 45 36 26 18 24 16 16 14 14 14 14 15 16 16 19 19 21 21 21 22 16 14 16 16 12 19 19 18 21 19 15 12 10 24 26 28 33 37 37 36 34
37 31 39 45 31 32 28 24 28 19 21 20 22 19 19 18 17 18 21 19 23 22 17 23 23 10 9 14 17 17 17 21 20 16 20 19 16 25 28 29 34 36 36 36 35
35 33 40 39 27 28 28 24 22 20 19 20 20 21 22 19 16 19 19 20 19 20 23 24 18 6 4 11 14 17 14 16 19 22 20 19 13 24 27 30 31 33 35 35 35
34 29 33 36 35 30 26 23 21 22 21 22 21 22 20 18 22 19 18 20 21 24 28 25 20 17 7 5 13 15 14 15 26 22 21 19 23 22 27 32 31 33 35 34 33
35 31 33 29 30 27 27 24 19 19 19 19 18 19 20 17 18 18 19 19 21 27 21 20 18 19 15 11 12 12 15 18 25 23 23 23 22 26 30 33 34 33 30 29 30
32 31 32 29 31 27 29 25 18 21 20 19 20 20 20 17 19 17 17 17 18 19 17 19 6 14 13 13 13 13 20 26 25 25 25 22 21 28 32 34 31 29 30 28 28
36 34 31 30 32 29 27 24 21 24 25 23 23 23 21 20 23 23 21 21 21 18 16 14 14 16 11 17 19 21 23 23 24 26 26 23 28 30 30 32 32 30 29 28 27

GFSSW_sfc_dewp_138.txt.gz
Dewpoint
51 49 48 48 48 49 49 49 48 48 49 50 50 51 52 53 53 38 14 29 32 52 49 19 22 24 27 28 32 33 22 17 21 23 23 26 19 18 17 17 15 18 22 16 19
52 50 48 48 48 48 49 49 48 48 49 50 51 51 53 54 38 19 41 51 52 54 20 12 10 19 19 23 26 23 19 16 27 27 23 18 13 10 6 4 3 7 14 15 16
53 51 49 48 48 48 48 48 48 48 49 50 51 51 54 51 28 20 51 54 52 42 22 21 19 9 11 16 21 21 12 22 18 16 14 10 3 0 -2 -6 3 10 14 14 15
54 52 50 49 48 48 48 49 48 48 49 50 51 52 54 44 -3 20 52 53 51 24 18 18 16 9 5 7 16 14 16 16 11 11 8 3 6 4 1 1 8 13 14 10 9
55 53 51 50 49 48 47 49 48 48 48 50 51 52 44 19 3 19 48 42 15 14 14 15 13 14 6 10 13 11 11 10 10 8 8 10 7 8 4 2 11 10 7 6 10
55 53 52 50 49 48 47 48 48 48 48 50 51 52 34 4 17 19 16 16 12 8 7 11 12 12 10 8 5 11 8 9 11 8 8 9 6 2 5 9 8 6 5 7 11
55 53 52 51 50 48 47 48 49 48 48 50 51 45 32 16 18 18 16 15 13 12 8 13 14 10 11 10 16 16 9 6 8 9 6 8 -5 3 5 6 3 6 10 12 15
55 53 52 52 50 49 48 49 49 47 49 50 50 44 18 29 22 11 13 15 14 15 13 15 18 18 17 19 13 8 9 -2 9 8 5 5 -7 1 4 2 5 11 13 15 18
55 54 52 51 50 49 49 49 48 48 49 47 44 38 7 34 18 10 13 10 15 18 19 16 19 18 17 9 4 5 -6 1 2 4 3 2 1 -1 2 5 9 12 15 17 19
56 54 53 51 50 48 48 47 46 47 43 39 36 29 20 17 15 11 14 13 13 17 17 16 17 11 9 2 -10 0 1 2 1 -3 5 3 1 -0 3 6 11 15 17 19 21
56 54 53 52 50 48 43 37 28 30 34 23 18 11 18 17 14 11 13 11 12 13 8 16 8 2 8 12 10 7 2 -4 -4 3 7 2 2 1 7 9 13 16 19 21 28
55 54 53 51 49 47 40 25 19 26 25 22 19 26 19 14 10 11 14 8 10 4 12 9 3 13 12 11 7 2 -1 -2 2 3 8 6 7 7 8 11 15 18 23 29 31
55 54 53 50 48 43 35 25 29 27 27 25 20 20 17 14 9 9 13 9 5 6 6 4 13 15 12 10 4 1 2 2 1 5 7 11 -0 5 8 10 17 26 29 30 34
55 54 52 47 42 42 36 29 34 29 27 22 10 12 17 14 10 8 10 7 9 7 8 11 16 12 11 5 7 1 7 7 7 7 0 11 -6 3 6 14 24 27 29 33 38
53 53 49 48 42 37 38 44 42 35 25 16 14 16 12 6 8 12 11 10 8 13 14 14 14 13 7 6 10 4 11 13 14 12 12 10 7 -2 8 20 23 25 28 36 37
52 53 47 46 45 43 45 46 44 25 26 14 10 12 10 6 7 12 12 17 15 13 12 14 16 10 8 10 11 12 15 14 17 16 7 6 6 -1 15 22 24 28 34 38 36
51 52 46 45 42 46 46 39 26 22 18 12 8 10 7 5 9 11 12 12 7 10 10 12 12 15 14 6 11 12 12 1 -1 2 -3 7 7 8 21 23 26 34 37 36 36
50 50 48 46 47 47 41 33 22 27 15 11 10 8 5 7 10 11 9 12 13 8 6 5 7 12 14 8 7 15 16 13 6 -3 0 7 8 8 20 24 32 38 36 35 35
49 48 45 46 47 45 35 26 28 25 16 10 8 8 7 8 11 13 12 14 13 17 11 7 8 14 12 13 13 17 17 19 22 16 14 8 8 9 22 24 29 34 35 34 34
46 42 41 46 46 41 34 33 31 24 17 12 11 10 8 9 11 12 15 16 17 19 22 17 14 12 13 16 17 19 18 21 19 14 6 2 6 13 23 25 29 31 32 33 35
43 36 42 46 44 35 30 32 31 23 16 17 15 10 9 10 10 13 16 17 16 19 19 17 15 14 14 15 14 18 20 18 21 18 13 8 7 23 26 28 29 30 32 33 34
41 34 43 44 32 33 32 34 30 22 18 19 19 16 12 12 12 16 20 17 19 19 15 23 17 9 7 13 15 15 16 18 22 17 17 17 14 23 26 29 31 31 31 32 34
38 34 43 40 30 29 32 30 27 24 18 17 18 17 17 14 14 17 18 20 18 18 21 20 16 3 4 13 19 15 15 14 18 21 19 18 10 18 24 28 31 31 31 31 31
35 28 32 36 37 31 32 31 26 27 24 23 22 20 19 16 18 18 19 20 21 18 30 24 19 22 10 12 15 16 12 11 22 25 17 15 18 20 26 30 31 31 32 31 30
38 31 33 28 32 34 31 30 26 25 26 26 22 19 18 17 17 16 19 21 24 29 23 21 18 18 6 -0 2 4 9 14 26 26 25 19 19 22 29 31 32 31 30 28 28
34 33 32 29 31 32 32 32 28 27 25 23 20 19 19 18 17 17 17 18 19 21 19 18 6 9 -0 1 2 2 13 20 23 25 20 19 19 29 30 31 30 30 28 28 27
39 35 32 31 32 32 30 29 26 28 26 23 23 23 22 21 20 21 20 20 22 19 17 13 7 7 2 12 14 19 22 24 32 24 26 25 31 30 30 30 32 31 28 27 26

GFSSW_sfc_dewp_141.txt.gz
Dewpoint
53 51 50 50 50 50 50 50 50 49 50 50 51 52 52 54 54 39 17 28 34 54 50 17 18 20 21 22 25 26 20 16 15 18 21 25 19 15 12 9 13 11 20 14 13
54 52 51 50 50 49 49 50 49 49 50 50 51 52 53 54 42 14 35 52 51 54 26 11 6 11 15 16 20 19 16 14 23 22 20 15 8 4 -1 -2 -1 3 10 11 12
55 53 52 50 50 50 49 49 49 49 49 50 51 52 53 52 35 14 48 53 53 46 21 17 14 5 6 12 15 13 12 17 15 13 10 5 -2 -3 -6 -6 -0 7 11 12 11
56 55 53 51 50 50 49 49 49 49 49 50 51 52 53 41 11 20 50 49 50 26 16 14 14 11 6 6 9 8 10 14 7 7 2 -4 1 -1 -2 -3 0 9 12 9 8
56 55 54 52 51 50 50 50 48 48 49 49 51 52 46 26 8 22 45 39 18 11 9 10 10 10 6 3 8 7 3 8 3 3 2 5 1 2 0 1 4 8 7 4 7
56 55 54 53 51 50 50 50 49 49 48 49 51 52 41 14 12 14 14 14 11 8 5 5 7 7 6 5 5 8 3 1 1 3 5 6 4 -1 -1 7 4 5 2 7 10
56 55 54 53 52 51 50 50 50 49 48 49 51 44 33 15 11 14 14 13 11 9 8 7 9 5 8 5 9 6 5 0 4 2 4 5 -3 -3 1 6 3 3 8 10 13
56 55 54 53 52 52 51 50 49 48 47 50 50 41 28 22 17 15 14 14 13 11 10 13 14 13 14 16 9 3 4 -4 3 5 3 3 -4 -0 1 1 0 5 10 13 15
56 56 54 53 52 51 50 49 48 47 49 49 41 37 26 33 17 14 12 10 12 14 16 12 16 15 15 8 4 3 -4 0 0 3 0 -0 0 -2 -0 1 3 8 12 14 17
56 56 55 53 52 51 48 47 44 45 44 32 27 28 29 18 14 10 12 11 12 15 15 15 14 10 8 1 -4 3 2 -0 0 -1 -1 -1 -1 -3 -1 1 7 12 16 19 22
57 56 55 54 52 49 44 35 33 36 31 31 32 26 13 14 15 10 11 10 11 15 11 14 9 5 0 9 8 2 -3 -6 -5 -2 2 1 1 -0 4 6 12 16 23 28 29
56 56 55 53 51 48 43 33 28 31 25 32 29 25 20 15 11 11 12 10 12 9 9 11 5 6 9 7 4 1 0 -2 -1 -2 1 0 2 3 6 9 14 23 25 26 30
53 56 55 53 49 46 39 34 42 36 26 31 33 26 25 18 15 10 13 11 8 7 8 6 10 12 8 8 4 1 2 2 -1 -0 2 4 1 4 7 10 20 23 25 29 36
52 54 53 49 46 43 37 42 44 43 34 35 34 28 28 21 18 16 12 10 8 4 2 2 13 11 9 7 5 0 5 1 0 3 -5 4 -6 -3 5 11 19 23 31 36 36
51 52 50 50 46 40 42 45 45 44 27 33 25 22 29 19 15 10 11 9 9 6 8 7 13 10 9 5 7 2 8 5 8 9 8 3 4 -1 4 15 20 29 34 35 34
51 53 49 46 46 44 45 44 45 33 26 28 16 16 20 19 10 9 10 9 7 8 11 7 12 10 7 8 7 6 8 10 12 13 8 7 7 -5 11 19 24 31 33 34 34
51 51 49 45 43 46 44 43 30 27 35 27 14 14 15 14 8 11 9 11 11 12 10 11 12 10 11 6 10 8 11 7 10 10 4 6 3 3 17 22 25 29 31 33 34
50 50 49 47 46 45 44 35 26 32 31 21 19 13 14 10 9 12 10 12 12 11 9 8 7 11 11 7 5 9 11 11 9 -0 0 1 -0 10 18 22 26 28 31 33 33
49 48 47 48 47 46 39 30 33 35 32 22 13 12 12 10 10 12 14 17 14 13 16 12 7 10 10 9 7 16 14 17 19 10 13 4 7 7 20 23 25 28 30 32 33
47 46 45 47 47 43 36 33 34 36 30 23 21 17 12 9 12 13 14 14 14 15 17 13 16 12 10 10 13 16 18 20 20 13 5 -4 1 8 22 24 27 29 30 32 33
46 39 45 47 44 38 31 34 36 36 28 23 23 20 16 14 12 15 16 16 13 16 20 18 19 13 13 14 12 18 17 16 18 15 12 6 7 21 23 26 28 30 31 32 32
43 33 45 46 33 34 33 36 36 33 32 26 25 24 20 17 15 16 19 19 17 17 14 19 20 14 12 12 11 14 20 18 22 16 16 16 11 21 25 28 29 31 31 32 32
38 37 44 43 29 31 32 33 34 32 29 28 28 28 26 22 19 21 18 19 15 18 18 21 17 10 8 12 14 14 13 14 18 20 15 16 11 19 22 28 30 31 31 31 31
38 29 34 38 38 32 31 35 33 31 30 24 23 24 24 22 25 23 21 21 20 17 31 25 18 23 14 11 17 17 11 12 19 22 15 13 14 12 25 29 30 31 31 31 30
39 34 34 29 33 34 31 30 31 28 28 25 23 21 21 23 24 19 21 21 19 28 20 19 18 17 6 1 8 13 12 12 26 20 21 18 16 17 29 30 31 31 30 28 28
35 36 33 29 32 35 33 31 31 29 28 26 23 20 21 22 21 18 19 21 19 22 20 21 13 13 8 2 -3 -4 6 11 13 14 12 15 16 29 30 31 29 30 29 28 27
40 39 33 32 32 33 34 32 31 30 29 27 23 22 22 20 21 22 25 25 24 21 22 20 13 8 3 -2 -4 12 10 14 32 21 24 26 29 31 29 29 30 31 29 28 26

GFSSW_sfc_dewp_144.txt.gz
Dewpoint
54 54 52 51 51 51 50 51 51 50 50 50 51 53 54 55 53 39 26 29 34 53 50 25 12 19 18 19 23 23 21 18 17 20 22 22 19 11 9 5 7 12 19 13 12
55 55 53 52 51 51 51 50 51 50 50 50 51 53 54 54 42 28 41 51 50 54 27 18 10 8 10 16 19 18 17 15 19 18 16 9 5 1 -3 -5 -3 4 14 11 11
56 55 55 53 52 51 51 51 50 50 50 51 52 53 54 51 34 25 53 50 53 47 26 19 14 10 4 6 12 14 13 13 14 13 6 -0 -5 -3 -5 -6 2 5 12 12 13
57 57 55 54 52 52 52 52 50 49 49 50 51 52 53 42 21 23 53 48 51 28 17 12 13 12 10 6 7 8 11 9 12 6 0 -5 -1 -2 -2 -2 1 10 10 8 13
57 57 56 55 53 53 52 52 50 49 48 49 50 53 44 30 22 24 49 43 18 14 8 9 10 10 8 7 5 7 8 5 7 2 -1 2 1 -1 -1 3 4 6 5 7 14
57 56 56 55 54 53 52 52 51 50 48 48 50 53 41 26 14 17 13 11 10 8 6 3 4 8 7 6 6 6 5 2 -1 -1 2 3 4 1 -1 4 3 4 5 9 13
57 56 56 55 54 53 53 52 51 50 48 47 50 44 31 24 11 12 12 10 10 9 7 7 7 7 6 6 5 3 2 1 -1 0 1 4 -1 -3 3 5 3 2 7 11 14
57 56 55 55 54 53 52 51 50 49 48 49 51 39 28 29 22 15 13 14 13 10 9 10 13 12 12 12 12 4 1 -0 1 3 4 1 -3 1 2 -1 0 3 8 14 17
57 56 55 54 54 53 52 51 50 49 48 50 41 36 32 36 21 19 16 11 13 12 14 10 13 13 13 11 3 2 1 -1 4 4 2 1 -1 -1 0 -0 1 7 12 19 24
55 57 56 55 54 53 51 49 49 46 37 33 27 26 31 28 23 15 13 11 11 14 14 12 11 10 9 5 3 4 3 3 2 1 0 -1 -1 -1 -2 -0 5 12 22 26 27
54 56 56 55 54 52 49 44 35 36 32 35 34 30 21 30 17 11 11 11 11 14 14 15 11 9 9 10 6 5 2 -1 -2 -3 -1 1 -1 -2 -0 4 12 20 25 25 36
53 54 56 55 54 50 44 39 34 36 33 32 32 34 34 23 17 14 12 10 12 10 14 12 12 13 8 8 5 1 -3 -3 -2 -2 -1 -1 -2 0 4 8 17 23 25 34 36
53 52 54 54 50 46 41 38 42 40 30 33 32 32 33 30 22 19 14 12 12 12 12 12 12 10 8 7 5 0 1 1 1 -1 -1 0 0 3 6 9 20 26 32 33 33
53 52 53 50 48 46 41 41 42 48 38 36 38 38 36 31 27 25 15 13 12 12 11 11 11 10 8 4 4 4 3 2 -1 -2 -4 4 -2 2 6 9 21 30 32 31 33
53 51 50 51 46 44 44 42 47 48 28 35 35 35 37 30 26 25 24 15 15 13 11 10 7 11 8 7 3 2 9 6 2 2 5 4 1 3 5 10 23 29 30 31 33
52 51 50 48 47 45 44 45 47 35 27 35 24 26 25 29 26 17 23 16 16 13 11 10 11 12 11 7 7 6 5 3 5 9 9 10 7 3 5 20 24 27 29 31 32
51 51 50 46 44 46 45 45 33 30 37 32 25 19 21 27 25 14 14 12 10 12 12 10 10 11 10 8 8 6 6 6 9 12 11 7 6 7 20 23 26 26 28 31 32
50 50 50 48 46 45 45 37 29 30 32 32 29 19 18 24 22 14 11 11 11 10 12 11 8 12 10 9 6 9 6 17 10 10 8 2 0 10 20 23 27 28 29 31 32
49 46 49 50 46 45 41 30 31 28 29 32 26 22 17 17 17 16 15 17 13 15 19 16 10 9 11 10 6 10 11 13 19 13 6 0 2 14 20 24 27 28 29 31 31
47 46 46 48 47 43 36 32 36 32 27 33 30 22 19 18 16 16 14 16 14 18 21 20 20 10 10 8 8 11 16 15 11 7 3 1 3 14 22 24 27 28 29 31 32
46 39 45 48 46 38 30 31 34 34 30 31 31 25 20 19 17 15 16 16 16 17 21 19 26 14 13 12 8 11 19 16 17 19 12 6 6 21 24 27 28 29 30 31 32
43 34 47 47 34 34 33 32 32 30 33 34 33 30 30 25 21 18 20 18 18 19 15 24 28 19 12 13 10 11 15 15 23 10 13 15 12 25 28 28 29 30 30 30 32
38 38 46 44 29 32 31 30 30 28 31 34 32 30 31 27 25 27 20 22 17 18 23 24 23 16 13 14 14 13 13 16 17 20 20 21 13 26 28 29 30 30 30 30 31
38 31 35 39 33 29 27 28 29 31 30 31 33 30 28 28 27 27 24 24 25 21 32 31 25 24 18 15 17 16 13 12 20 23 16 11 10 16 28 29 29 30 30 30 30
38 33 36 29 32 29 29 23 26 28 30 32 33 30 29 29 27 28 24 26 24 31 27 27 23 24 16 10 12 13 11 10 24 22 22 15 14 20 29 30 30 30 29 28 27
34 34 34 29 31 32 30 28 22 24 28 29 32 31 29 29 28 26 26 28 25 26 24 24 21 18 16 9 -2 -1 12 14 15 14 13 13 11 29 28 29 28 30 28 28 27
40 38 37 30 31 32 30 27 25 25 28 28 31 30 28 28 29 28 30 29 25 26 28 27 23 15 9 8 4 11 15 14 31 16 16 20 26 31 28 28 30 31 28 27 26